     2              OBSERVATION DATA    GPS                 RINEX VERSION / TYPE
teqc 1999Jul19 19991123 02:45:22UTC                         PGM / RUN BY / DATE
                                                            COMMENT
Original Marker Name: 0209                                  COMMENT
Campaign Name: HPGN 1991                                    COMMENT
4-Character Station Name: 0209                              COMMENT
6-Character Antenna Code: TRMSST                            COMMENT
Vertical Measurement Point: TGP                             COMMENT
Vertical Offset to Rinex Ref. Point: 0.0629                 COMMENT
Radial Measurement Point: OGP                               COMMENT
Radial Offset to Rinex Ref. Point: 0.2413                   COMMENT
Antenna Height from Field Measurement: 2.2200 m             COMMENT
                                                            COMMENT
Original XYZ: -2476310.9858 -4079560.8287 4219164.1343      COMMENT
New XYZ position is based on association with SCEC monument COMMENT
E1P2V2Q4+0011. Position of that monument is believed to be  COMMENT
valid to within 1 m horizontally; vertical accuracy         COMMENT
should be no worse than 3-times this value.                 COMMENT
                                                            COMMENT
Revised Rinex header created by UCSD GPS archive for        COMMENT
GSAC on 10-Mar-2000 (2000:070) 04:31:05 GMT                 COMMENT
For assistance contact dagnew@ucsd.edu or hjohnson@ucsd.edu COMMENT
                                                            COMMENT
HPGN CA 02 09                                               MARKER NAME
0209                                                        MARKER NUMBER
-Unknown- CALIF DEPT TRANSPORTATION                         OBSERVER / AGENCY
360 TRIMBLE 4000 SST NP 4.53 / SP 4.20                      REC # / TYPE / VERS
42 TR 4000SST L1/L2 GEO                                     ANT # / TYPE
 -2476320.7085 -4079587.1222  4219165.4335                  APPROX POSITION XYZ
        2.1439        0.0000        0.0000                  ANTENNA: DELTA H/E/N
     1     1     0                                          WAVELENGTH FACT L1/2
     5    C1    L1    L2    S1    S2                        # / TYPES OF OBSERV
     0                                                      INTERVAL
  1991     6    24    18    35   15.000000                  TIME OF FIRST OBS
  1991     6    24    21    31   60.000000                  TIME OF LAST OBS
                                                            END OF HEADER
 91  6 24 18 35 15.0000000  0  3G 2G19G15
  20572647.594          -0.54918        -0.23732        29.500           2.094
  23404758.961          -0.11515        -0.38131        10.500           0.344
  24259122.000          -0.19415                        11.000
 91  6 24 18 35 30.0000000  0  3G 2G19G15
  20569579.922      -16119.550 8    -12560.50022        29.500           2.000
  23409720.133       26067.824 5     20312.27121        10.250           0.469
  24251076.758      -42296.547 5        -0.11231        11.000           0.281
 91  6 24 18 35 45.0000000  0  3G 2G19G15
  20566524.641      -32176.028 8    -25072.04722        29.500           2.063
  23414685.211       52173.381 5     40654.20421        10.250           0.406
  24243044.711      -84503.283 5    -32888.47221        11.250           0.313
 91  6 24 18 36  0.0000000  0  3G 2G19G15
  20563483.711      -48159.505 8    -37526.71022        29.500           2.063
  23419667.906       78326.745 5     61033.42721         9.500           0.438
  24235032.203     -126609.722 5    -65698.66521        11.250           0.375
 91  6 24 18 36 15.0000000  0  3G 2G19G15
  20560456.219      -64065.944 8    -49921.34622        29.750           2.156
  23424649.992      104531.958 5     81453.01721        10.750           0.531
  24227037.195     -168611.411 5    -98427.23021         9.250           0.375
 91  6 24 18 36 30.0000000  0  4G 2G19G13G15
  20557442.727      -79899.091 8    -62258.86722        29.750           2.063
  23429651.750      130785.221 5    101910.05921        10.250           0.406
  24135464.039      -77899.612 5                         8.000
  24219061.930     -210511.693 5   -131076.79021         9.250           0.375
 91  6 24 18 36 45.0000000  0  4G 2G19G13G15
  20554444.031      -95660.225 8    -74540.27622        30.000           2.188
  23434649.352      157085.488 5    122403.72021         9.750           0.375
  24120645.102     -155775.338 5                         8.250
  24211108.664     -252311.472 5   -163648.03221         9.500           0.438
 91  6 24 18 37  0.0000000  0  4G 2G19G13G15
  20551460.172     -111349.948 8    -86766.03622        30.250           2.031
  23439667.594      183432.167 5    142933.55121        10.250           0.375
  24105829.008     -233627.868 5                         8.000
  24203172.727     -294010.881 5   -196141.05221         8.750           0.438
 91  6 24 18 37 15.0000000  0  4G 2G19G13G15
  20548484.781     -126964.121 8    -98932.93322        29.000           2.094
  23444690.727      209829.297 5    163502.69321        11.000           0.406
  24091018.211     -311452.551 5                         7.750
  24195263.117     -335605.298 5   -228552.26921        10.500           0.375
 91  6 24 18 37 30.0000000  0  4G 2G19G13G15
  20545529.109     -142503.032 8   -111041.18122        29.500           2.094
  23449722.211      236276.370 5    184110.77121        10.000           0.438
  24076210.172     -389249.428 5        -0.12931         7.500           0.063
  24187364.219     -377094.903 5   -260881.83521         9.750           0.281
 91  6 24 18 37 45.0000000  0  4G 2G19G13G15
  20542587.156     -157965.698 8   -123090.01922        29.250           2.125
  23454763.539      262774.356 5    204758.50421         9.500           0.344
  24061409.063     -467017.012 4    -60598.09721         7.250           0.156
  24179487.258     -418478.232 5   -293128.56221         9.500           0.438
 91  6 24 18 38  0.0000000  0  4G 2G19G13G15
  20539659.828     -173351.153 8   -135078.69222        29.500           2.094
  23459819.336      289324.335 5    225446.74421        10.250           0.406
  24046618.469     -544753.715 4   -121172.01921         6.750           0.031
  24171636.820     -459753.777 5   -325291.28921        10.000           0.406
 91  6 24 18 38 15.0000000  0  4G 2G19G13G15
  20536746.695     -188661.470 8   -147008.81822        29.750           2.125
  23464878.906      315924.030 5    246173.72921        10.500           0.469
  24031839.266     -622461.284 4   -181723.19521         7.250           0.063
  24163805.484     -500923.448 5   -357371.56321        11.250           0.313
 91  6 24 18 38 30.0000000  0  4G 2G19G13G15
  20533847.391     -203895.609 8   -158879.58022        30.000           2.063
  23469951.102      342574.465 5    266940.24421        10.250           0.375
  24017057.508     -700138.465 5   -242250.74921         7.750           0.094
  24155987.195     -541985.937 5   -389368.32221        10.250           0.344
 91  6 24 18 38 45.0000000  0  4G 2G19G13G15
  20530962.328     -219056.683 8   -170693.41022        30.250           2.063
  23475028.836      369272.637 5    287743.98921        10.250           0.406
  24002278.484     -777787.732 5   -302756.52121         8.500           0.156
  24148194.813     -582943.767 5   -421283.47621         9.250           0.500
 91  6 24 18 39  0.0000000  0  4G 2G19G13G15
  20528092.961     -234134.146 8   -182442.09022        30.000           2.094
  23480124.023      396028.814 5    308592.92121         9.250           0.344
  23987507.844     -855398.327 5   -363232.13521         8.500           0.031
  24140422.078     -623786.205 5   -453108.72321         8.750           0.500
 91  6 24 18 39 15.0000000  0  4G 2G19G13G15
  20525238.523     -249137.574 8   -194133.07422        29.750           2.000
  23485225.063      422833.507 5    329479.63921        10.250           0.375
  23972746.203     -932979.344 5   -423684.75721         8.250           0.125
  24132665.789     -664522.596 5   -484851.34121         8.500           0.500
 91  6 24 18 39 30.0000000  0  4G 2G19G13G15
  20522395.500     -264065.671 8   -205765.36522        29.750           2.156
  23490332.875      449687.990 5    350405.18421         9.500           0.344
  23957988.844    -1010529.004 5                         8.500
  24124938.172     -705150.957 5   -516509.79521         9.750           0.469
 91  6 24 18 39 45.0000000  0  4G 2G19G13G15
  20519569.063     -278917.003 8   -217337.84322        29.500           2.125
  23495451.867      476593.586 5    371370.54521         9.500           0.375
  23943237.195    -1088045.252 5                         8.000
  24117231.688     -745669.338 5   -548082.53221        11.000           0.531
 91  6 24 18 40  0.0000000  0  4G 2G19G13G15
  20516758.203     -293695.940 8   -228853.89822        30.000           2.125
  23500580.734      503546.000 5    392372.37521         9.000           0.438
  23928489.156    -1165532.005 5        -0.25431         7.500           0.063
  24109536.758     -786081.703 5   -579572.66221        11.250           0.469
 91  6 24 18 40 15.0000000  0  4G 2G19G13G15
  20513960.078     -308398.756 8   -240310.64322        29.500           2.125
  23505719.820      530548.883 5    413413.52221         9.250           0.438
  23913750.117    -1242985.447 5    -60353.47821         7.500           0.094
  24101867.563     -826383.997 5   -610977.06521        11.000           0.438
 91  6 24 18 40 30.0000000  0  4G 2G19G13G15
  20511176.984     -323028.024 8   -251710.08122        29.500           2.094
  23510869.906      557599.676 5    434492.01421         9.250           0.375
  23899016.773    -1320407.398 4   -120682.15221         7.250           0.188
  24094220.859     -866578.543 5   -642297.46921        11.250           0.438
 91  6 24 18 40 45.0000000  0  4G 2G19G13G15
  20508407.375     -337580.177 8   -263049.42522        29.500           2.125
  23516025.195      584701.976 5    455610.63521         8.750           0.375
  23884297.273    -1397793.756 5   -180983.07921         8.000           0.156
  24086595.539     -906661.159 5   -673530.65621        11.000           0.406
 91  6 24 18 41  0.0000000  0  4G 2G19G13G15
  20505651.563     -352060.261 8   -274332.61322        29.500           2.125
  23521188.742      611850.602 5    476765.37921         8.000           0.375
  23869575.953    -1475149.202 5   -241259.91721         9.250           0.125
  24078984.625     -946636.791 5   -704680.49421        10.000           0.500
 91  6 24 18 41 15.0000000  0  4G 2G19G13G15
  20502911.617     -366463.145 8   -285555.64622        29.250           2.063
  23526364.102      639050.406 5    497959.97421         8.500           0.313
  23854859.188    -1552468.522 5   -301508.65121         9.250           0.031
  24071397.984     -986500.324 5   -735742.94121        10.500           0.438
 91  6 24 18 41 30.0000000  0  4G 2G19G13G15
  20500185.391     -380791.584 8   -296720.66722        29.500           2.188
  23531551.227      666298.892 5    519192.52121         9.000           0.344
  23840152.555    -1629754.020 5   -361730.96521         9.250           0.156
  24063835.766    -1026253.891 5   -766719.76221        10.750           0.531
 91  6 24 18 41 45.0000000  0  4G 2G19G13G15
  20497472.469     -395044.697 8   -307826.99922        29.750           2.188
  23536746.195      693596.732 5    540463.50221         8.250           0.406
  23825450.781    -1707004.091 5   -421925.73221         9.750           0.125
  24056291.375    -1065896.258 5   -797609.88221        10.500           0.531
 91  6 24 18 42  0.0000000  0  4G 2G19G13G15
  20494776.000     -409217.640 8   -318870.85622        29.500           2.156
  23541951.008      720948.904 5    561776.81221         8.250           0.375
  23810760.227    -1784213.460 5   -482088.77021         9.750           0.125
  24048768.367    -1105422.097 5   -828409.24521        10.750           0.438
 91  6 24 18 42 15.0000000  0  4G 2G19G13G15
  20492092.891     -423313.633 8   -329854.75622        29.250           2.094
  23547167.539      748351.987 5    583129.81521         9.750           0.313
  23796072.977    -1861384.913 5   -542222.26221         9.750           0.188
  24041270.375    -1144834.257 5   -859120.00921        10.750           0.375
 91  6 24 18 42 30.0000000  0  4G 2G19G13G15
  20489424.336     -437335.309 8   -340780.73722        28.500           2.125
  23552392.539      775803.339 5    604520.43821         9.500           0.375
  23781397.484    -1938520.784 5   -602328.03421        10.250           0.094
  24033788.570    -1184135.186 5   -889744.12121        10.750           0.406
 91  6 24 18 42 45.0000000  0  4G 2G19G13G15
  20486769.391     -451284.925 8   -351650.58322        28.750           2.156
  23557620.969      803300.462 5    625946.71121         8.750           0.344
  23766728.320    -2015622.970 5   -662407.55321        10.250           0.156
  24026333.297    -1223326.595 5   -920282.85621        11.000           0.406
 91  6 24 18 43  0.0000000  0  4G 2G19G13G15
  20484130.852     -465157.585 8   -362460.45022        29.000           2.188
  23562862.586      830848.259 5    647412.47221         8.500           0.313
  23752060.273    -2092686.043 5   -722456.59721        10.000           0.156
  24018895.930    -1262403.402 5   -950732.30921         9.750           0.375
 91  6 24 18 43 15.0000000  0  4G 2G19G13G15
  20481504.664     -478958.799 8   -373214.64522        29.000           2.063
  23568116.578      858441.497 5    668913.64621         9.000           0.281
  23737400.758    -2169714.906 5   -782479.02121         9.250           0.125
  24011481.930    -1301370.489 5   -981096.25721        10.750           0.250
 91  6 24 18 43 30.0000000  0  4G 2G19G13G15
  20478891.352     -492688.882 8   -383913.42122        29.250           2.094
  23573378.172      886079.843 5    690449.97221         9.500           0.375
  23722745.023    -2246709.411 5   -842474.63521         8.500           0.063
  24004082.664    -1340227.928 5  -1011374.76621         9.750           0.375
 91  6 24 18 43 45.0000000  0  4G 2G19G13G15
  20476293.148     -506341.139 8   -394551.55022        29.750           2.156
  23578642.719      913769.879 5    712026.56121        10.000           0.250
  23708098.930    -2323662.883 5   -902438.28421         8.250           0.156
  23996720.102    -1378968.891 5  -1041562.52421        10.750           0.375
 91  6 24 18 44  0.0000000  0  4G 2G19G13G15
  20473709.602     -519925.349 8   -405136.65022        29.250           2.125
  23583922.680      941501.552 5    733635.62521         9.250           0.250
  23693466.914    -2400584.505 5   -962377.14721         8.750           0.031
  23989361.336    -1417602.671 5  -1071666.76521        11.500           0.250
 91  6 24 18 44 15.0000000  0  4G 2G19G13G15
  20471137.945     -533434.117 8   -415662.97122        29.250           2.125
  23589207.734      969282.448 5    755283.04421         9.000           0.250
  23678842.375    -2477466.378 5  -1022285.00121         8.750           0.125
  23982032.180    -1456121.492 5  -1101681.43221        11.250           0.281
 91  6 24 18 44 30.0000000  0  4G 2G19G13G15
  20468581.883     -546866.296 8   -426129.61122        29.750           2.219
  23594506.063      997113.627 5    776969.62421         8.500           0.313
  23664215.531    -2554306.738 5  -1082160.50721         8.750           0.188
  23974727.844    -1494523.824 5  -1131605.33121        11.500           0.313
 91  6 24 18 44 45.0000000  0  4G 2G19G13G15
  20466039.852     -560227.551 8   -436540.98622        29.750           2.219
  23599808.492     1024988.985 5    798690.61121         8.500           0.344
  23649600.992    -2631110.928 5  -1142007.84521         8.250           0.094
  23967440.352    -1532815.162 5  -1161442.71321        11.250           0.219
 91  6 24 18 45  0.0000000  0  4G 2G19G13G15
  20463511.148     -573518.672 8   -446897.70922        29.500           2.188
  23605124.680     1052908.033 5    820445.69621         8.250           0.375
  23634991.305    -2707879.167 5  -1201827.15421         8.750           0.125
  23960169.336    -1570995.905 5  -1191193.93121        10.750           0.250
 91  6 24 18 45 15.0000000  0  4G 2G19G13G15
  20460992.781     -586736.402 8   -457197.24322        28.500           2.156
  23610441.430     1080874.102 5    842237.34621         8.250           0.250
  23620387.000    -2784607.867 5  -1261615.70921         9.500           0.125
  23952928.375    -1609062.065 6  -1220855.86521        12.250           0.313
 91  6 24 18 45 30.0000000  0  4G 2G19G13G15
  20458492.703     -599882.998 8   -467441.35022        28.750           2.219
  23615777.750     1108884.643 5    864063.68821         8.500           0.250
  23605795.984    -2861298.850 5  -1321374.83021        10.000           0.125
  23945706.047    -1647015.846 6  -1250430.23821        12.500           0.438
 91  6 24 18 45 45.0000000  0  4G 2G19G13G15
  20456005.133     -612955.887 8   -477628.02122        28.750           2.156
  23621116.219     1136942.134 5    885926.63121         9.750           0.313
  23591212.508    -2937949.159 5  -1381102.30821        10.500           0.063
  23938506.672    -1684854.487 6  -1279914.89121        12.250           0.406
 91  6 24 18 46  0.0000000  0  4G 2G19G13G15
  20453529.672     -625963.989 8   -487764.21422        29.250           2.250
  23626459.125     1165037.713 5    907819.23421         8.750           0.375
  23576632.164    -3014567.239 5  -1440804.62721         9.500           0.125
  23931325.016    -1722586.445 6  -1309316.39221        12.000           0.406
 91  6 24 18 46 15.0000000  0  4G 2G19G13G15
  20451068.820     -638896.997 8   -497841.88722        29.250           2.094
  23631814.867     1193181.770 5    929749.61721         8.750           0.375
  23562058.523    -3091142.301 5  -1500473.41821         9.500           0.125
  23924168.000    -1760201.047 6  -1338626.44721        13.000           0.375
 91  6 24 18 46 30.0000000  0  4G 2G19G13G15
  20448621.148     -651761.647 8   -507866.29322        29.000           2.188
  23637179.477     1221367.176 5    951712.20221         9.250           0.406
  23547492.547    -3167681.122 5  -1560114.00121        10.250           0.125
  23917035.273    -1797704.864 6  -1367850.20221        13.000           0.313
 91  6 24 18 46 45.0000000  0  4G 2G19G13G15
  20446185.578     -664554.656 8   -517834.88122        29.250           2.219
  23642551.367     1249597.281 5    973709.61721         9.750           0.438
  23532938.313    -3244179.407 5  -1619722.98921        10.500           0.156
  23909916.164    -1835093.862 6  -1396984.48121        12.000           0.406
 91  6 24 18 47  0.0000000  0  4G 2G19G13G15
  20443766.461     -677278.314 8   -527749.42622        29.750           2.156
  23647931.648     1277870.022 5    995740.27821         9.250           0.281
  23518386.266    -3320639.053 5  -1679301.86721         9.750           0.156
  23902821.133    -1872369.991 6  -1426030.79621        13.000           0.250
 91  6 24 18 47 14.9990000  0  4G 2G19G13G15
  20441356.776     -689934.368 8   -537611.29322        29.000           2.219
  23653318.339     1306180.831 5   1017800.57321         9.250           0.375
  23503844.558    -3397057.242 5  -1738848.47021        10.000           0.094
  23895750.433    -1909533.184 6  -1454989.15621        13.250           0.406
 91  6 24 18 47 29.9990000  0  4G 2G19G13G15
  20438962.222     -702520.471 8   -547418.65622        28.750           2.406
  23658718.128     1334537.371 5   1039896.49521        10.000           0.313
  23489308.362    -3473439.967 5  -1798367.43421         9.250           0.125
  23888702.675    -1946584.332 6  -1483860.15121        13.000           0.375
 91  6 24 18 47 44.9990000  0  4G 2G19G13G15
  20436579.690     -715035.945 8   -557170.97922        29.000           2.250
  23664117.417     1362937.504 5   1062026.42421         9.750           0.219
  23474779.495    -3549781.529 5  -1857854.26821         9.000           0.125
  23881672.253    -1983520.519 6  -1512641.60521        13.250           0.281
 91  6 24 18 47 59.9990000  0  4G 2G19G13G15
  20434212.456     -727479.409 8   -566867.18722        29.000           2.406
  23669535.823     1391382.562 5   1084191.37621        10.000           0.188
  23460261.605    -3626080.181 5  -1917307.69921         9.250           0.125
  23874668.042    -2020339.911 6  -1541332.07921        12.250           0.219
 91  6 24 18 48 14.9990000  0  4G 2G19G13G15
  20431856.690     -739849.703 8   -576506.38622        28.250           2.219
  23674953.073     1419873.637 5   1106392.16421         9.500           0.250
  23445753.370    -3702334.319 5  -1976726.47421         9.500           0.094
  23867678.909    -2057041.003 5  -1569930.29621        11.500           0.281
 91  6 24 18 48 29.9990000  0  4G 2G19G13G15
  20429516.667     -752149.429 8   -586090.59622        28.750           2.281
  23680389.745     1448408.169 5   1128626.82921         8.250           0.281
  23431245.651    -3778546.077 5  -2036112.17621         9.000           0.125
  23860717.667    -2093626.089 5  -1598438.17921        11.250           0.250
 91  6 24 18 48 44.9990000  0  4G 2G19G13G15
  20427191.636     -764379.276 8   -595620.35622        29.000           2.156
  23685821.425     1476985.352 5   1150894.69521         8.500           0.250
  23416752.901    -3854715.646 5  -2095465.04921        10.250           0.094
  23853779.542    -2130095.627 6  -1626855.97421        12.000           0.219
 91  6 24 18 48 59.9990000  0  4G 2G19G13G15
  20424877.198     -776536.188 8   -605093.27922        29.250           2.125
  23691269.292     1505608.161 4   1173198.12321         7.000           0.219
  23402267.120    -3930839.911 5  -2154782.62121        10.250           0.188
  23846858.784    -2166446.182 5  -1655181.06521        11.000           0.406
 91  6 24 18 49 14.9990000  0  4G 2G19G13G15
  20422574.308     -788629.602 8   -614516.72222        29.250           2.250
  23696722.737     1534267.180 4   1195529.74421         7.250           0.219
  23387792.417    -4006927.522 5  -2214071.59021        11.000           0.281
  23839967.503    -2202686.926 5  -1683420.60121        11.500           0.281
 91  6 24 18 49 29.9990000  0  4G 2G19G13G15
  20420288.565     -800654.310 8   -623886.63022        29.750           2.125
  23702180.675     1562967.376 4   1217893.47821         7.250           0.219
  23373318.081    -4082972.768 5  -2273327.58021        10.750           0.094
  23833092.503    -2238812.506 5  -1711570.36521        11.500           0.344
 91  6 24 18 49 44.9990000  0  4G 2G19G13G15
  20418011.409     -812610.421 8   -633203.08622        29.000           2.156
  23707651.800     1591708.682 4   1240289.28021         6.500           0.156
  23358853.222    -4158975.521 5  -2332550.43521        10.750           0.156
  23826237.730    -2274822.629 5  -1739630.23421        11.750           0.313
 91  6 24 18 49 59.9990000  0  4G 2G19G13G15
  20415752.065     -824492.737 8   -642462.04222        29.250           2.281
  23713129.933     1620496.372 4   1262721.17221         7.000           0.094
  23344399.503    -4234930.198 5  -2391735.86921        10.500           0.125
  23819410.401    -2310711.647 5  -1767595.71321        11.750           0.250
 91  6 24 18 50 14.9990000  0  4G 2G19G13G15
  20413504.355     -836310.598 8   -651670.77422        29.750           2.250
  23718616.925     1649321.051 5   1285181.91221         7.500           0.250
  23329955.940    -4310845.406 5  -2450890.51921        10.250           0.219
  23812603.409    -2346488.460 5  -1795473.73021        11.000           0.281
 91  6 24 18 50 29.9990000  0  4G 2G19G13G15
  20411266.589     -848060.597 8   -660826.62422        29.250           2.219
  23724109.339     1678185.806 5   1307673.87621         7.500           0.156
  23315517.917    -4386717.634 5  -2510011.66421        10.500           0.188
  23805813.761    -2382149.324 5  -1823261.38721        10.000           0.219
 91  6 24 18 50 44.9990000  0  4G 2G19G13G15
  20409044.839     -859738.024 8   -669925.92122        29.000           2.219
  23729605.409     1707095.570 4   1330200.93621         7.250           0.250
  23301084.355    -4462541.509 5  -2569095.13821        10.250           0.156
  23799051.355    -2417689.344 5  -1850954.95021        10.250           0.344
 91  6 24 18 50 59.9990000  0  4G 2G19G13G15
  20406834.706     -871346.911 8   -678971.81022        28.750           2.219
  23735117.714     1736046.274 5   1352759.83821         7.500           0.281
  23286668.870    -4538320.822 5  -2628143.91121        11.000           0.156
  23792310.706    -2453112.135 5  -1878557.10721        11.000           0.344
 91  6 24 18 51 14.9990000  0  4G 2G19G13G15
  20404639.378     -882888.930 8   -687965.59722        28.750           2.188
  23740636.222     1765035.961 5   1375349.14821         8.000           0.313
  23272254.644    -4614056.753 5  -2687158.88921        10.750           0.156
  23785591.706    -2488419.244 5  -1906069.13221        11.500           0.500
 91  6 24 18 51 29.9990000  0  4G 2G19G13G15
  20402456.136     -894357.642 8   -696902.26522        29.000           2.156
  23746168.917     1794070.840 5   1397973.66921         7.750           0.313
  23257851.269    -4689742.482 5  -2746134.70621        10.750           0.250
  23778897.136    -2523603.878 5  -1933485.70421        11.000           0.375
 91  6 24 18 51 44.9990000  0  4G 2G19G13G15
  20400287.034     -905758.943 8   -705786.40122        29.250           2.063
  23751692.144     1823145.249 5   1420629.00221         7.750           0.250
  23243458.706    -4765383.275 5  -2805075.52521        10.500           0.188
  23772224.378    -2558671.511 5  -1960811.11521        11.500           0.313
 91  6 24 18 51 59.9990000  0  4G 2G19G13G15
  20398132.011     -917088.314 8   -714614.48922        30.000           2.125
  23757237.401     1852263.781 5   1443318.68021         8.250           0.344
  23229073.237    -4840974.382 5  -2863977.61321        10.750           0.219
  23765576.815    -2593617.168 5  -1988041.51921        11.000           0.344
 91  6 24 18 52 14.9990000  0  4G 2G19G13G15
  20395987.636     -928348.083 8   -723388.34322        29.000           2.031
  23762782.495     1881423.808 5   1466040.69921         8.000           0.281
  23214699.065    -4916517.713 5  -2922842.52021        11.000           0.281
  23758948.237    -2628443.109 5  -2015178.61321        11.250           0.313
 91  6 24 18 52 29.9990000  0  4G 2G19G13G15
  20393859.105     -939534.700 8   -732105.19622        28.750           2.188
  23768340.839     1910628.929 5   1488797.87421         8.000           0.375
  23200334.112    -4992009.096 5  -2981666.90721        11.250           0.156
  23752341.815    -2663145.330 5  -2042219.32221        11.500           0.313
 91  6 24 18 52 44.9990000  0  4G 2G19G13G15
  20391743.878     -950655.814 8   -740771.00522        29.000           2.063
  23773908.612     1939871.269 5   1511584.05221         8.000           0.281
  23185980.534    -5067455.893 5  -3040456.57021        11.750           0.188
  23745762.292    -2697731.171 5  -2069169.33221        11.500           0.219
 91  6 24 18 52 59.9990000  0  4G 2G19G13G15
  20389639.714     -961707.663 8   -749382.84022        28.750           2.094
  23779484.175     1969154.722 5   1534402.27021         8.250           0.406
  23171626.378    -5142853.655 5  -3099208.02621        10.000           0.125
  23739204.386    -2732196.578 5  -2096025.49221        11.250           0.344
 91  6 24 18 53 14.9990000  0  4G 2G19G13G15
  20387550.714     -972687.883 8   -757938.86122        29.000           2.094
  23785054.315     1998481.626 5   1557254.36221         7.750           0.344
  23157286.542    -5218199.834 5  -3157919.27221        10.000           0.156
  23732670.753    -2766538.943 5  -2122785.73621        11.750           0.281
 91  6 24 18 53 29.9990000  0  4G 2G19G13G15
  20385475.136     -983599.955 8   -766441.77722        29.000           2.063
  23790648.706     2027848.414 4   1580137.52021         7.000           0.344
  23142964.659    -5293497.410 5  -3216592.62121        10.750           0.188
  23726154.823    -2800761.247 5  -2149452.48721        10.750           0.406
 91  6 24 18 53 44.9990000  0  4G 2G19G13G15
  20383409.495     -994446.379 8   -774893.54022        28.250           2.156
  23796244.831     2057252.623 4   1603049.81921         6.750           0.281
  23128643.534    -5368748.460 5  -3275229.75321        11.000           0.094
  23719665.276    -2834865.702 5  -2176027.40521        11.000           0.469
 91  6 24 18 53 59.9990000  0  4G 2G19G13G15
  20381359.698    -1005220.594 8   -783289.03422        28.000           2.156
  23801847.675     2086700.695 4   1625996.29921         6.750           0.250
  23114338.769    -5443945.831 6  -3333825.07721        12.500           0.094
  23713197.175    -2868845.342 5  -2202505.04221        10.250           0.531
 91  6 24 18 54 14.9990000  0  4G 2G19G13G15
  20379322.034    -1015928.128 8   -791632.57622        28.250           2.219
  23807454.011     2116186.877 4   1648972.49221         6.500           0.250
  23100034.003    -5519094.935 6  -3392382.74821        12.750           0.156
  23706756.870    -2902705.816 5  -2228889.79621        10.250           0.406
 91  6 24 18 54 29.9990000  0  4G 2G19G13G15
  20377298.612    -1026563.311 8   -799919.74022        28.000           2.156
  23813081.651     2145716.862 4   1671982.79621         6.750           0.250
  23085745.011    -5594189.522 6  -3450897.97121        13.000           0.125
  23700336.151    -2936440.926 5  -2255176.87721        10.750           0.344
 91  6 24 18 54 44.9990000  0  4G 2G19G13G15
  20375289.292    -1037126.245 8   -808150.60922        28.500           2.219
  23818707.269     2175290.550 4   1695027.16621         7.250           0.313
  23071464.206    -5669229.272 6  -3509370.44721        12.750           0.125
  23693943.034    -2970050.252 5  -2281365.97921        11.750           0.406
 91  6 24 18 54 59.9990000  0  4G 2G19G13G15
  20373291.636    -1047620.629 8   -816328.05722        28.500           2.188
  23824345.565     2204904.100 4   1718102.59921         7.000           0.125
  23057194.339    -5744217.542 6  -3567802.84721        12.750           0.125
  23687570.034    -3003537.495 5  -2307459.95421        11.500           0.406
 91  6 24 18 55 14.9990000  0  4G 2G19G13G15
  20371307.175    -1058045.081 8   -824451.01022        28.000           2.219
  23829980.448     2234558.872 4   1741210.16521         6.250           0.188
  23042933.159    -5819152.457 5  -3626193.61821        11.750           0.250
  23681219.808    -3036900.873 5  -2333457.39921        11.500           0.469
 91  6 24 18 55 29.9990000  0  4G 2G19G13G15
  20369336.855    -1068400.618 8   -832520.26822        28.250           2.344
  23835637.534     2264253.753 4   1764348.96721         7.000           0.219
  23028684.480    -5894034.538 6  -3684543.23421        12.000           0.281
  23674895.878    -3070141.372 5  -2359359.05621        11.000           0.375
 91  6 24 18 55 44.9990000  0  4G 2G19G13G15
  20367378.831    -1078689.764 8   -840537.79322        28.000           2.313
  23841295.581     2293986.115 4   1787516.97421         7.250           0.281
  23014444.003    -5968865.892 6  -3742853.31221        12.250           0.281
  23668589.847    -3103261.052 5  -2385166.59621        10.750           0.406
 91  6 24 18 55 59.9990000  0  4G 2G19G13G15
  20365434.925    -1088911.970 8   -848503.15522        28.750           2.344
  23846961.862     2323756.374 4   1810714.50821         7.000           0.281
  23000216.964    -6043645.703 5  -3801123.25921        11.750           0.250
  23662317.011    -3136258.885 6  -2410879.16821        12.250           0.500
 91  6 24 18 56 14.9990000  0  4G 2G19G13G15
  20363502.167    -1099061.928 8   -856412.22422        28.500           2.313
  23852628.097     2353570.094 4   1833945.88621         6.500           0.219
  22985994.136    -6118367.981 5  -3859348.35321        11.500           0.313
  23656054.300    -3169129.235 5  -2436492.43621        11.500           0.625
 91  6 24 18 56 29.9990000  0  4G 2G19G13G15
  20361584.581    -1109145.143 8   -864269.27722        28.000           2.219
  23858317.112     2383421.632 4   1857206.80021         7.000           0.156
  22971786.105    -6193037.918 6  -3917532.64621        12.000           0.156
  23649828.058    -3201877.360 5  -2462010.44621        11.750           0.500
 91  6 24 18 56 44.9990000  0  4G 2G19G13G15
  20359676.495    -1119162.959 8   -872075.37922        28.250           2.250
  23864001.308     2413309.362 5   1880495.85321         7.750           0.094
  22957585.081    -6267656.548 5  -3975676.96921        11.250           0.156
  23643618.542    -3234504.427 5  -2487434.15121        10.250           0.469
 91  6 24 18 56 59.9990000  0  4G 2G19G13G15
  20357784.753    -1129109.193 8   -879825.69722        28.750           2.250
  23869698.558     2443239.409 5                         8.250
  22943397.136    -6342217.126 5  -4033776.08321        11.750           0.188
  23637431.222    -3267004.086 5  -2512758.54521         9.750           0.344
 91  6 24 18 57 14.9990000  0  4G 2G19G13G15
  20355904.675    -1138985.885 8   -887521.83322        28.500           2.344
  23875399.026     2473209.892 5                         8.500
  22929218.206    -6416721.214 6  -4091831.17321        12.000           0.188
  23631273.831    -3299377.803 5  -2537984.81421        11.000           0.406
 91  6 24 18 57 29.9990000  0  4G 2G19G13G15
  20354037.667    -1148798.953 8   -895168.38922        28.750           2.344
  23881111.409     2503214.659 5                         8.500
  22915052.401    -6491174.560 5  -4149846.72421        11.250           0.156
  23625131.987    -3331631.377 5  -2563117.48321        11.250           0.594
 91  6 24 18 57 44.9990000  0  4G 2G19G13G15
  20352185.190    -1158536.951 8   -902756.44622        29.000           2.344
  23886826.370     2533265.074 5        -0.42331         8.250           0.125
  22900895.409    -6565565.189 5  -4207813.38321        11.500           0.281
  23619021.456    -3363753.102 5  -2588147.39221        11.000           0.438
 91  6 24 18 57 59.9990000  0  4G 2G19G13G15
  20350344.581    -1168205.930 8   -910290.72322        28.250           2.250
  23892557.323     2563355.065 5     23446.27921         7.500           0.094
  22886749.175    -6639898.611 5  -4265735.50321        11.500           0.219
  23612933.651    -3395748.862 5  -2613079.17021        11.500           0.469
 91  6 24 18 58 14.9990000  0  4G 2G19G13G15
  20348518.245    -1177803.194 8   -917769.11622        28.500           2.219
  23898288.198     2593487.342 5     46925.90421         7.500           0.313
  22872618.026    -6714171.546 5  -4323610.46021        11.500           0.188
  23606869.558    -3427615.418 5  -2637910.23421        11.000           0.531
 91  6 24 18 58 29.9990000  0  4G 2G19G13G15
  20346705.190    -1187332.142 8   -925194.28222        28.500           2.344
  23904030.097     2623658.429 4     70435.77421         7.250           0.188
  22858492.769    -6788387.028 6  -4381440.65521        12.250           0.219
  23600830.675    -3459355.728 6  -2662642.93621        12.000           0.500
 91  6 24 18 58 44.9990000  0  4G 2G19G13G15
  20344905.230    -1196793.328 8   -932566.63522        28.750           2.250
  23909772.565     2653867.538 4     93975.30621         7.250           0.344
  22844382.855    -6862545.389 6  -4439226.32021        12.000           0.281
  23594815.722    -3490970.483 6  -2687277.81821        12.000           0.688
 91  6 24 18 58 59.9990000  0  4G 2G19G13G15
  20343117.409    -1206183.270 8   -939883.48522        28.250           2.313
  23915534.550     2684118.174 4    117547.13721         7.000           0.250
  22830280.612    -6936642.721 6  -4496964.46721        12.000           0.219
  23588822.886    -3522455.789 6  -2711811.81721        12.750           0.563
 91  6 24 18 59 14.9990000  0  4G 2G19G13G15
  20341344.065    -1215503.734 8   -947146.19422        28.500           2.281
  23921299.315     2714408.663 4    141150.07821         7.250           0.281
  22816189.034    -7010680.360 6  -4554656.07921        12.000           0.375
  23582858.190    -3553812.994 6  -2736245.98921        13.250           0.563
 91  6 24 18 59 29.9990000  0  4G 2G19G13G15
  20339583.378    -1224753.473 8   -954353.78522        28.250           2.250
  23927071.909     2744739.941 4    164784.75121         7.000           0.438
  22802115.065    -7084656.676 6  -4612299.93721        12.500           0.156
  23576912.409    -3585040.481 5  -2760579.10221        11.750           0.531
 91  6 24 18 59 44.9990000  0  4G 2G19G13G15
  20337836.644    -1233937.296 8   -961510.02322        28.750           2.313
  23932843.815     2775107.303 4    188447.57221         7.000           0.313
  22788047.831    -7158575.865 6  -4669899.24321        12.250           0.313
  23570993.511    -3616142.866 5  -2784814.72321        11.750           0.469
 91  6 24 18 59 59.9990000  0  4G 2G19G13G15
  20336102.042    -1243056.190 8   -968615.66322        28.750           2.344
  23938638.581     2805509.688 4    212137.68121         7.250           0.406
  22773995.206    -7232438.332 6  -4727454.36521        12.250           0.219
  23565099.565    -3647120.846 6  -2808953.40021        12.250           0.438
 91  6 24 19  0 14.9990000  0  4G 2G19G13G15
  20334379.745    -1252104.846 8   -975666.57122        28.500           2.406
  23944431.261     2835952.278 4    235859.09721         7.000           0.344
  22759949.722    -7306238.671 6  -4784961.06021        12.750           0.156
  23559231.542    -3677968.922 6  -2832990.88221        13.500           0.531
 91  6 24 19  0 29.9990000  0  4G 2G19G13G15
  20332669.753    -1261084.217 8   -982663.48922        28.000           2.375
  23950226.440     2866433.926 4    259610.95921         6.500           0.188
  22745915.495    -7379977.337 6  -4842419.71321        12.500           0.219
  23553386.370    -3708687.817 6  -2856927.67521        14.000           0.469
 91  6 24 19  0 44.9990000  0  4G 2G19G13G15
  20330974.511    -1269997.304 8   -989608.76222        28.500           2.281
  23956035.776     2896951.708 4    283390.97321         6.500           0.219
  22731897.198    -7453657.013 6  -4899832.39321        13.250           0.250
  23547563.440    -3739280.371 6  -2880766.01421        13.500           0.594
 91  6 24 19  0 59.9990000  0  4G 2G19G13G15
  20329291.136    -1278842.075 8   -996500.79522        28.500           2.313
  23961855.401     2927507.542 4    307200.62121         6.250           0.281
  22717884.456    -7527275.086 6  -4957197.09121        13.000           0.188
  23541763.862    -3769744.027 6  -2904503.92121        12.750           0.531
 91  6 24 19  1 14.9990000  0  4G 2G19G13G15
  20327621.284    -1287616.645 8  -1003338.12822        28.500           2.344
  23967669.261     2958103.135 4    331041.29121         6.500           0.219
  22703888.683    -7600829.226 6  -5014511.95221        13.250           0.219
  23535992.198    -3800076.524 6  -2928139.64321        13.000           0.625
 91  6 24 19  1 29.9990000  0  4G 2G19G13G15
  20325964.659    -1296322.637 8  -1010122.02722        29.000           2.219
  23973504.315     2988736.950 3    354911.69921         5.250           0.188
  22689905.644    -7674320.848 6  -5071778.10021        13.250           0.219
  23530242.565    -3830279.446 6  -2951674.39521        12.750           0.625
 91  6 24 19  1 44.9990000  0  4G 2G19G13G15
  20324320.839    -1304963.889 8  -1016855.47822        28.750           2.313
  23979337.019     3019405.009 3    378808.83121         5.500           0.219
  22675932.261    -7747753.219 6  -5128998.07221        12.500           0.219
  23524520.073    -3860356.447 6  -2975111.02121        12.750           0.469
 91  6 24 19  1 59.9990000  0  4G 2G19G13G15
  20322689.362    -1313534.328 8  -1023533.75122        28.500           2.250
  23985181.237     3050113.380 3    402737.37621         5.000           0.125
  22661967.605    -7821119.884 6  -5186166.87221        13.000           0.281
  23518823.355    -3890301.122 6  -2998444.53021        12.750           0.500
 91  6 24 19  2 14.9990000  0  4G 2G19G13G15
  20321072.597    -1322031.023 8  -1030154.55822        29.000           2.406
  23991033.456     3080865.041 3    426699.62521         5.750           0.219
  22648021.831    -7894417.229 6  -5243281.67721        12.250           0.188
  23513151.831    -3920109.953 6  -3021672.18421        13.000           0.469
 91  6 24 19  2 29.9990000  0  4G 2G19G13G15
  20319469.144    -1330463.783 8  -1036725.54722        29.000           2.344
  23996893.105     3111649.921 3    450687.83421         5.250           0.156
  22634085.714    -7967654.977 6  -5300349.98121        13.000           0.281
  23507500.269    -3949792.778 6  -3044801.65521        12.000           0.563
 91  6 24 19  2 44.9990000  0  4G 2G19G13G15
  20317878.144    -1338827.331 8  -1043242.60722        29.250           2.188
  24002758.378     3142473.126 3    474705.83721         5.750           0.156
  22620160.737    -8040827.266 6  -5357367.30321        12.750           0.375
  23501876.362    -3979344.304 6  -3067828.81321        12.750           0.719
 91  6 24 19  2 59.9990000  0  4G 2G19G13G15
  20316298.292    -1347125.049 8  -1049708.36522        28.250           2.281
  24008630.269     3173331.306 4    498751.12721         6.250           0.125
  22606249.370    -8113937.360 6  -5414336.17721        13.500           0.281
  23496280.144    -4008767.575 6  -3090756.03721        13.500           0.563
 91  6 24 19  3 14.9990000  0  4G 2G19G13G15
  20314730.769    -1355357.069 7  -1056122.93122        27.750           2.250
  24014511.230     3204224.226 4    522823.45821         6.750           0.156
  22592346.722    -8186984.587 6  -5471256.06721        13.000           0.344
  23490706.253    -4038062.250 6  -3113583.06921        13.000           0.656
 91  6 24 19  3 29.9990000  0  4G 2G19G13G15
  20313178.378    -1363520.107 8  -1062483.75322        28.250           2.219
  24020392.315     3235155.217 3    546925.46121         6.000           0.156
  22578461.581    -8259965.265 6  -5528124.06721        13.250           0.219
  23485152.612    -4067224.940 6  -3136307.23821        12.500           0.688
 91  6 24 19  3 44.9990000  0  4G 2G19G13G15
  20311639.019    -1371615.996 8  -1068792.24822        28.250           2.250
  24026288.128     3266122.397 4    571055.64321         6.750           0.219
  22564587.823    -8332881.042 6  -5584941.52421        14.250           0.281
  23479633.761    -4096257.025 6  -3158929.64221        13.500           0.656
 91  6 24 19  3 59.9990000  0  3G 2G13G15
  20310108.644    -1379648.876 8  -1075051.63422        28.000           2.219
  22550721.284    -8405735.207 6  -5641710.95121        13.500           0.313
  23474132.472    -4125162.250 6  -3181453.19521        13.750           0.656
 91  6 24 19  4 14.9990000  0  3G 2G13G15
  20308594.448    -1387611.659 7  -1081256.40922        27.500           2.219
  22536869.933    -8478520.460 6  -5698426.70121        13.500           0.219
  23468655.440    -4153933.210 6  -3203872.11421        14.750           0.750
 91  6 24 19  4 29.9990000  0  3G 2G13G15
  20307090.105    -1395509.789 7  -1087410.80522        27.750           2.188
  22523033.292    -8551241.967 6  -5755092.75821        13.750           0.188
  23463209.183    -4182575.531 6  -3226190.78821        13.750           0.625
 91  6 24 19  4 44.9990000  0  3G 2G13G15
  20305599.347    -1403341.140 8  -1093513.16222        28.000           2.219
  22509207.417    -8623897.284 6  -5811707.25921        13.750           0.313
  23457777.628    -4211086.803 6  -3248407.36621        13.000           0.469
 91  6 24 19  4 59.9990000  0  3G 2G13G15
  20304123.284    -1411101.063 8  -1099559.86222        28.500           2.250
  22495396.042    -8696481.138 6  -5868266.05921        13.750           0.313
  23452380.776    -4239462.106 6  -3270518.00221        13.000           0.500
 91  6 24 19  5 14.9990000  0  3G 2G13G15
  20302660.003    -1418795.031 8  -1105555.16722        28.750           2.219
  22481596.019    -8768998.644 6  -5924773.16821        13.500           0.250
  23447005.581    -4267706.658 6  -3292526.72921        14.000           0.594
 91  6 24 19  5 29.9990000  0  3G 2G13G15
  20301208.292    -1426423.724 8  -1111499.61522        28.000           2.313
  22467809.245    -8841450.117 6  -5981228.82521        14.500           0.281
  23441655.878    -4295820.754 6  -3314433.80221        14.250           0.656
 91  6 24 19  5 44.9990000  0  3G 2G13G15
  20299770.597    -1433989.497 8  -1117395.03322        28.500           2.313
  22454032.909    -8913837.499 6  -6037634.53421        14.000           0.313
  23436329.862    -4323806.438 6  -3336240.81621        13.250           0.625
 91  6 24 19  5 59.9990000  0  3G 2G13G15
  20298341.097    -1441487.608 8  -1123237.72422        28.250           2.438
  22440271.331    -8986155.581 6  -6093986.24521        13.750           0.281
  23431028.448    -4351658.898 6  -3357944.05021        13.250           0.563
 91  6 24 19  6 14.9990000  0  3G 2G13G15
  20296925.792    -1448919.610 8  -1129028.90322        28.250           2.250
  22426523.745    -9058405.507 6  -6150284.83221        14.000           0.219
  23425757.167    -4379379.425 6  -3379544.46421        14.250           0.531
 91  6 24 19  6 29.9990000  0  3G 2G13G15
  20295525.073    -1456286.527 8  -1134769.36022        29.500           2.344
  22412786.323    -9130587.728 6  -6206530.67021        13.500           0.281
  23420503.628    -4406968.674 6  -3401042.56921        14.000           0.500
 91  6 24 19  6 44.9990000  0  3G 2G13G15
  20294136.105    -1463589.967 8  -1140460.35822        30.000           2.250
  22399063.026    -9202703.566 6  -6262724.79621        14.000           0.344
  23415279.745    -4434427.959 6  -3422439.40321        13.500           0.531
 91  6 24 19  6 59.9990000  0  3G 2G13G15
  20292759.737    -1470823.730 8  -1146097.06222        29.000           2.250
  22385352.261    -9274746.368 6  -6318861.99721        13.500           0.281
  23410081.730    -4461751.067 6  -3443730.12821        13.500           0.500
 91  6 24 19  7 14.9990000  0  3G 2G13G15
  20291395.550    -1477991.980 8  -1151682.72022        29.000           2.219
  22371658.300    -9346720.007 6  -6374945.32021        13.750           0.313
  23404909.214    -4488941.928 6  -3464917.81521        14.500           0.563
 91  6 24 19  7 29.9990000  0  3G 2G13G15
  20290042.237    -1485097.660 8  -1157219.61922        29.250           2.313
  22357975.675    -9418626.962 6  -6430976.67621        14.000           0.219
  23399753.800    -4516003.089 6  -3486004.44521        13.500           0.500
 91  6 24 19  7 44.9990000  0  3G 2G13G15
  20288703.425    -1492137.935 8  -1162705.55922        29.250           2.375
  22344308.425    -9490463.774 6  -6486953.36321        14.500           0.219
  23394631.667    -4542931.545 6  -3506987.64221        13.250           0.594
 91  6 24 19  7 59.9990000  0  3G 2G13G15
  20287376.308    -1499109.498 8  -1168137.95322        29.000           2.344
  22330648.425    -9562226.868 6  -6542872.61421        15.000           0.281
  23389535.315    -4569723.813 6  -3527864.73021        12.250           0.469
 91  6 24 19  8 14.9990000  0  3G 2G13G15
  20286062.792    -1506016.163 8  -1173519.77822        29.000           2.313
  22317004.862    -9633919.800 6  -6598737.18921        14.750           0.219
  23384462.081    -4596383.702 6  -3548638.68621        13.000           0.469
 91  6 24 19  8 29.9990000  0  3G 2G13G15
  20284761.284    -1512855.219 8  -1178848.91722        28.500           2.344
  22303375.605    -9705539.297 6  -6654544.55221        15.000           0.313
  23379414.308    -4622907.965 6  -3569306.93821        14.250           0.438
 91  6 24 19  8 44.9990000  0  3G 2G13G15
  20283472.230    -1519627.625 8  -1184126.13122        28.500           2.281
  22289764.659    -9777086.009 6  -6710295.19521        15.250           0.250
  23374390.347    -4649297.441 6  -3589870.16021        13.750           0.469
 91  6 24 19  8 59.9990000  0  3G 2G13G15
  20282195.190    -1526334.094 8  -1189351.95322        28.500           2.250
  22276160.815    -9848560.224 6  -6765989.35121        15.000           0.250
  23369394.987    -4675552.586 6  -3610328.72521        13.250           0.406
 91  6 24 19  9 14.9990000  0  3G 2G13G15
  20280934.222    -1532974.036 8  -1194525.95022        28.750           2.344
  22262573.612    -9919961.069 6  -6821626.33221        15.000           0.438
  23364420.776    -4701672.668 6  -3630682.03221        12.250           0.406
 91  6 24 19  9 29.9990000  0  3G 2G13G15
  20279680.386    -1539545.658 8  -1199646.70222        28.250           2.344
  22249003.175    -9991286.183 6  -6877204.29721        15.750           0.281
  23359481.011    -4727655.523 6  -3650928.42321        13.500           0.500
 91  6 24 19  9 44.9990000  0  3G 2G13G15
  20278444.776    -1546050.780 8  -1204715.63622        29.000           2.438
  22235441.917   -10062536.609 6  -6932724.07721        15.000           0.313
  23354560.230    -4753502.591 6  -3671068.99521        13.750           0.594
 91  6 24 19  9 59.9990000  0  3G 2G13G15
  20277218.573    -1552491.343 8  -1209734.26223        28.750           2.500
  22221895.480   -10133714.263 6  -6988187.13421        15.000           0.375
  23349668.120    -4779215.937 6  -3691105.36021        14.750           0.531
 91  6 24 19 10 14.9990000  0  3G 2G13G15
  20276004.386    -1558866.472 8  -1214701.90823        28.500           2.500
  22208366.183   -10204818.069 6  -7043592.63921        15.250           0.375
  23344800.675    -4804794.564 6  -3711036.77321        13.500           0.563
 91  6 24 19 10 29.9980000  0  3G 2G13G15
  20274806.232    -1565172.951 8  -1219616.05323        28.750           2.500
  22194851.943   -10275839.867 6  -7098934.26521        15.750           0.375
  23339956.014    -4830233.675 6  -3730859.46321        12.750           0.563
 91  6 24 19 10 44.9980000  0  3G 2G13G15
  20273617.139    -1571413.075 8  -1224478.49423        28.250           2.531
  22181352.959   -10346789.897 6  -7154219.95721        16.250           0.281
  23335146.967    -4855537.872 6  -3750577.01421        14.000           0.563
 91  6 24 19 10 59.9980000  0  3G 2G13G15
  20272440.467    -1577590.074 8  -1229291.74722        28.000           2.469
  22167864.342   -10417667.091 6  -7209448.91221        15.500           0.281
  23330354.693    -4880708.755 6  -3770190.69721        13.500           0.531
 91  6 24 19 11 14.9980000  0  4G 2G 6G13G15
  20271279.404    -1583698.362 8  -1234051.45723        28.750           2.531
  20096968.764          -0.96817                        21.250
  22154391.693   -10488465.532 6  -7264616.48421        15.750           0.250
  23325592.592    -4905740.567 6  -3789696.00321        13.750           0.438
 91  6 24 19 11 29.9980000  0  4G 2G 6G13G15
  20270128.381    -1589743.639 8  -1238762.06223        28.250           2.500
  20093066.389      -20530.909 7                        22.250
  22140932.897   -10559190.155 6  -7319726.52221        15.250           0.313
  23320853.818    -4930638.797 6  -3809097.22621        13.500           0.563
 91  6 24 19 11 44.9980000  0  4G 2G 6G13G15
  20268991.607    -1595719.530 8  -1243418.61122        28.500           2.438
  20089178.201      -40959.489 7                        22.250
  22127488.709   -10629834.325 6  -7374773.89121        15.500           0.344
  23316140.639    -4955396.762 6  -3828389.14821        13.000           0.531
 91  6 24 19 11 59.9980000  0  4G 2G 6G13G15
  20267868.545    -1601628.243 8  -1248022.81523        28.250           2.500
  20085310.459      -61288.826 7                        22.250
  22114061.834   -10700399.849 6  -7429759.97521        15.750           0.375
  23311458.123    -4980016.623 6  -3847573.44421        13.750           0.563
 91  6 24 19 12 14.9980000  0  4G 2G 6G13G15
  20266755.561    -1607468.255 8  -1252573.47623        28.000           2.625
  20081460.654      -81517.270 7                        22.500
  22100647.412   -10770884.845 6  -7484683.30721        15.250           0.344
  23306801.514    -5004496.829 6  -3866648.93421        13.250           0.594
 91  6 24 19 12 29.9980000  0  4G 2G 6G13G15
  20265656.936    -1613244.146 7  -1257074.17623        27.750           2.531
  20077629.365     -101649.095 7        -0.37332        22.500           1.750
  22087247.311   -10841293.390 6  -7539547.06221        15.000           0.375
  23302166.787    -5028841.639 6  -3885618.91021        12.500           0.563
 91  6 24 19 12 44.9980000  0  3G 2G13G15
  20264569.365    -1618956.937 8  -1261525.70823        28.250           2.563
  22073862.428   -10911626.378 6  -7594351.94621        15.000           0.375
  23297559.607    -5053051.691 6  -3904483.90421        13.500           0.500
 91  6 24 19 12 59.9980000  0  3G 2G13G15
  20263495.529    -1624599.811 8  -1265922.75723        28.000           2.625
  22060496.029   -10981876.403 6  -7649092.17821        16.000           0.469
  23292975.553    -5077120.051 6  -3923238.47321        12.750           0.438
 91  6 24 19 13 14.9980000  0  3G 2G13G15
  20262433.865    -1630174.443 7  -1270266.63623        27.750           2.594
  22047145.084   -11052044.635 6  -7703768.69921        16.500           0.406
  23288432.123    -5101048.262 6  -3941883.82721        14.250           0.531
 91  6 24 19 13 29.9980000  0  3G 2G13G15
  20261388.772    -1635676.908 8  -1274554.27623        28.250           2.625
  22033808.584   -11122126.670 6  -7758378.02921        16.000           0.406
  23283901.443    -5124832.089 6  -3960416.68621        12.500           0.625
 91  6 24 19 13 44.9980000  0  3G 2G13G15
  20260354.154    -1641109.394 8  -1278787.38623        28.250           2.531
  22020488.443   -11192124.516 6  -7812921.76921        16.250           0.344
  23279399.889    -5148473.530 6  -3978838.57821        13.250           0.500
 91  6 24 19 13 59.9980000  0  3G 2G13G15
  20259332.014    -1646478.825 8  -1282971.37123        28.000           2.500
  22007183.701   -11262044.713 6  -7867404.99521        16.250           0.406
  23274927.053    -5171979.340 6  -3997154.80421        14.500           0.563
 91  6 24 19 14 14.9980000  0  3G 2G13G15
  20258322.811    -1651782.874 7  -1287104.40323        27.750           2.625
  21993893.311   -11331884.429 6  -7921825.51421        15.750           0.438
  23270478.936    -5195346.979 6  -4015363.37221        14.500           0.531
 91  6 24 19 14 29.9980000  0  3G 2G13G15
  20257327.701    -1657020.014 8  -1291185.29822        28.750           2.469
  21980620.061   -11401641.735 6  -7976181.81421        16.000           0.438
  23266065.076    -5218574.911 6  -4033463.04721        15.000           0.531
 91  6 24 19 14 44.9980000  0  3G 2G13G15
  20256341.701    -1662191.885 7  -1295215.33223        27.750           2.625
  21967358.436   -11471318.157 6  -8030475.08621        16.000           0.344
  23261667.162    -5241664.590 6  -4051455.01021        13.750           0.594
 91  6 24 19 14 59.9980000  0  3G 2G13G15
  20255372.154    -1667294.035 8  -1299191.04222        28.500           2.469
  21954120.326   -11540908.573 6  -8084701.35321        16.500           0.375
  23257302.928    -5264611.155 6  -4069335.44421        13.250           0.469
 91  6 24 19 15 14.9980000  0  3G 2G13G15
  20254414.373    -1672327.482 8  -1303113.21623        28.500           2.563
  21940888.186   -11610413.468 6  -8138860.96721        15.500           0.469
  23252962.053    -5287415.417 6  -4087104.99221        14.750           0.469
 91  6 24 19 15 29.9980000  0  3G 2G13G15
  20253469.818    -1677291.769 8  -1306981.50322        28.250           2.469
  21927681.654   -11679831.981 6  -8192953.27521        16.000           0.406
  23248650.568    -5310076.667 6  -4104763.13221        14.250           0.531
 91  6 24 19 15 44.9980000  0  3G 2G13G15
  20252539.420    -1682182.719 8  -1310792.63922        28.500           2.469
  21914487.193   -11749159.608 6  -8246974.75621        15.750           0.375
  23244365.217    -5332590.884 6  -4122306.71221        13.750           0.406
 91  6 24 19 15 59.9980000  0  3G 2G13G15
  20251620.334    -1687004.479 8  -1314549.86822        29.000           2.406
  21901313.561   -11818400.482 6  -8300928.65821        16.750           0.406
  23240106.084    -5354962.369 6  -4139739.01221        13.000           0.500
 91  6 24 19 16 14.9980000  0  3G 2G13G15
  20250716.982    -1691757.134 8  -1318253.23722        28.500           2.375
  21888151.873   -11887553.990 6  -8354814.47621        16.500           0.438
  23235877.686    -5377190.464 6  -4157059.61121        13.000           0.469
 91  6 24 19 16 29.9980000  0  3G 2G13G15
  20249826.170    -1696440.458 8  -1321902.59023        29.000           2.500
  21875009.412   -11956619.390 6  -8408631.63521        15.750           0.438
  23231674.225    -5399274.722 6  -4174268.12121        13.000           0.438
 91  6 24 19 16 44.9980000  0  3G 2G13G15
  20248947.451    -1701055.978 8  -1325499.11023        29.500           2.500
  21861884.225   -12025597.751 6  -8462380.96021        16.000           0.500
  23227496.943    -5421216.456 6  -4191365.58621        13.000           0.438
 91  6 24 19 16 59.9980000  0  3G 2G13G15
  20248083.553    -1705601.997 8  -1329041.47022        29.750           2.438
  21848774.717   -12094487.345 6  -8516061.12521        16.000           0.406
  23223353.311    -5443013.738 6  -4208350.48021        12.500           0.469
 91  6 24 19 17 14.9980000  0  3G 2G13G15
  20247229.240    -1710084.298 8  -1332534.17522        29.250           2.469
  21835681.545   -12163293.225 6  -8569676.05721        17.250           0.375
  23219229.951    -5464672.330 5  -4225227.32221        11.750           0.563
 91  6 24 19 17 29.9980000  0  3G 2G13G15
  20246389.764    -1714495.573 8  -1335971.54022        29.500           2.438
  21822603.529   -12232007.936 6  -8623219.96221        17.000           0.406
  23215132.615    -5486185.171 5  -4241990.57021        11.000           0.531
 91  6 24 19 17 44.9980000  0  3G 2G13G15
  20245564.490    -1718833.923 8  -1339352.08023        29.250           2.500
  21809548.045   -12300629.084 6  -8676690.95221        17.250           0.375
  23211069.420    -5507549.907 6  -4258638.41721        13.500           0.563
 91  6 24 19 17 59.9980000  0  3G 2G13G15
  20244752.092    -1723103.913 8  -1342679.35123        29.500           2.500
  21796507.334   -12369160.763 6  -8730092.23221        16.750           0.469
  23207033.654    -5528770.822 6  -4275174.21621        13.250           0.406
 91  6 24 19 18 14.9980000  0  3G 2G13G15
  20243952.904    -1727305.531 8  -1345953.34722        30.250           2.406
  21783482.537   -12437603.072 6  -8783423.85921        16.500           0.438
  23203021.475    -5549847.589 5  -4291597.67421        11.750           0.344
 91  6 24 19 18 29.9980000  0  3G 2G13G15
  20243166.693    -1731441.314 8  -1349176.04022        30.250           2.406
  21770476.857   -12505957.952 6  -8836687.36621        17.250           0.469
  23199039.373    -5570782.859 6  -4307910.88221        13.000           0.438
 91  6 24 19 18 44.9980000  0  3G 2G13G15
  20242392.842    -1735504.082 8  -1352341.84522        30.250           2.406
  21757485.732   -12574217.588 6  -8889876.65121        17.500           0.469
  23195082.334    -5591569.237 6  -4324108.06721        13.250           0.406
 91  6 24 19 18 59.9980000  0  3G 2G13G15
  20241632.061    -1739504.154 8  -1355458.78522        30.250           2.469
  21744510.506   -12642391.876 6  -8942999.44821        17.000           0.469
  23191155.365    -5612217.156 6  -4340197.33521        13.500           0.469
 91  6 24 19 19 14.9980000  0  3G 2G13G15
  20240881.600    -1743435.369 8  -1358522.07822        29.500           2.406
  21731553.811   -12710474.266 6  -8996050.64021        16.500           0.438
  23187250.897    -5632720.224 6  -4356173.77521        13.750           0.500
 91  6 24 19 19 29.9980000  0  3G 2G13G15
  20240147.850    -1747302.739 8  -1361535.61822        29.750           2.313
  21718616.287   -12778469.365 6  -9049033.79121        17.000           0.500
  23183378.209    -5653082.950 6  -4372040.84921        14.500           0.500
 91  6 24 19 19 44.9980000  0  3G 2G13G15
  20239424.943    -1751098.872 8  -1364493.64022        29.500           2.375
  21705697.029   -12846369.583 6  -9101943.01721        17.250           0.438
  23179530.115    -5673297.779 6  -4387792.67221        14.250           0.375
 91  6 24 19 19 59.9980000  0  3G 2G13G15
  20238713.623    -1754832.570 8  -1367403.02222        29.250           2.313
  21692790.092   -12914183.623 6  -9154785.10521        17.250           0.531
  23175708.717    -5693373.703 6  -4403436.25321        13.750           0.375
 91  6 24 19 20 14.9980000  0  3G 2G13G15
  20238017.381    -1758496.533 8  -1370258.06322        29.500           2.313
  21679905.725   -12981903.566 6  -9207553.85021        17.500           0.469
  23171915.232    -5713303.203 6  -4418965.72721        13.250           0.344
 91  6 24 19 20 29.9980000  0  3G 2G13G15
  20237332.795    -1762094.489 8  -1373061.67222        29.500           2.375
  21667033.350   -13049532.600 6  -9260251.77521        16.500           0.438
  23168151.232    -5733089.661 6  -4434383.73721        13.250           0.438
 91  6 24 19 20 44.9980000  0  3G 2G13G15
  20236658.920    -1765630.885 8  -1375817.31322        28.750           2.375
  21654182.201   -13117074.843 6  -9312882.07421        17.500           0.406
  23164413.537    -5752737.315 6  -4449693.61221        14.250           0.531
 91  6 24 19 20 59.9980000  0  3G 2G13G15
  20235999.193    -1769102.689 8  -1378522.61622        28.750           2.219
  21641347.514   -13184526.749 6  -9365441.96721        17.750           0.531
  23160702.748    -5772243.084 6  -4464892.92321        14.500           0.469
 91  6 24 19 21 14.9980000  0  3G 2G13G15
  20235349.225    -1772513.611 8  -1381180.48322        28.750           2.313
  21628525.193   -13251891.678 6  -9417934.07921        17.250           0.594
  23157019.272    -5791610.465 6  -4479984.41021        14.500           0.469
 91  6 24 19 21 29.9980000  0  3G 2G13G15
  20234712.381    -1775855.231 8  -1383784.34122        28.250           2.250
  21615728.232   -13319161.128 6  -9470351.81221        18.750           0.438
  23153358.662    -5810831.232 6  -4494961.63921        13.250           0.563
 91  6 24 19 21 44.9980000  0  3G 2G13G15
  20234089.725    -1779135.569 8  -1386340.45222        29.250           2.188
  21602944.201   -13386342.638 6  -9522701.00621        17.500           0.563
  23149728.100    -5829913.101 6  -4509830.62721        13.500           0.469
 91  6 24 19 21 59.9980000  0  3G 2G13G15
  20233476.740    -1782353.541 8  -1388847.96722        29.250           2.313
  21590176.272   -13453434.580 6  -9574980.40921        18.000           0.500
  23146120.061    -5848854.794 6  -4524590.39821        13.500           0.469
 91  6 24 19 22 14.9980000  0  3G 2G13G15
  20232877.842    -1785506.678 8  -1391304.96022        29.000           2.469
  21577424.647   -13520434.090 6  -9627187.79121        18.000           0.531
  23142546.857    -5867653.474 6  -4539238.71621        13.750           0.531
 91  6 24 19 22 29.9980000  0  3G 2G13G15
  20232290.834    -1788592.323 8  -1393709.36622        28.500           2.250
  21564694.326   -13587338.176 6  -9679320.81021        17.750           0.594
  23138997.381    -5886306.548 6  -4553773.58221        13.750           0.438
 91  6 24 19 22 44.9980000  0  3G 2G13G15
  20231715.998    -1791615.698 8  -1396065.25222        28.750           2.438
  21551981.022   -13654151.787 6  -9731383.32621        17.750           0.500
  23135474.147    -5904819.240 6  -4568199.06121        13.250           0.469
 91  6 24 19 22 59.9980000  0  3G 2G13G15
  20231150.982    -1794576.905 7  -1398372.69422        27.750           2.281
  21539283.342   -13720874.693 6  -9783375.18621        17.750           0.469
  23131976.842    -5923191.449 6  -4582515.07621        13.000           0.563
 91  6 24 19 23 14.9980000  0  3G 2G13G15
  20230599.647    -1797474.840 7  -1400630.83722        27.500           2.406
  21526605.170   -13787505.259 6  -9835295.05821        19.000           0.688
  23128506.225    -5941421.999 6  -4596720.68821        12.500           0.531
 91  6 24 19 23 29.9980000  0  3G 2G13G15
  20230059.131    -1800309.103 7  -1402839.36322        27.750           2.438
  21513940.928   -13854042.627 6  -9887142.33421        18.750           0.469
  23125066.826    -5959510.411 6  -4610815.55421        13.500           0.563
 91  6 24 19 23 44.9980000  0  3G 2G13G15
  20229530.264    -1803084.185 7  -1405001.77223        27.250           2.500
  21501296.522   -13920491.163 6  -9938920.38421        18.500           0.500
  23121650.225    -5977460.871 6  -4624802.92921        14.250           0.438
 91  6 24 19 23 59.9980000  0  3G 2G13G15
  20229016.631    -1805798.465 7  -1407116.79923        27.500           2.594
  21488669.303   -13986848.719 6  -9990627.54421        18.500           0.531
  23118261.592    -5995271.614 6  -4638681.44721        13.500           0.563
 91  6 24 19 24 14.9980000  0  3G 2G13G15
  20228510.490    -1808454.353 7  -1409186.33823        27.750           2.594
  21476057.670   -14053117.477 6 -10042265.51321        18.500           0.563
  23114898.490    -6012944.958 6  -4652452.90021        13.250           0.594
 91  6 24 19 24 29.9980000  0  3G 2G13G15
  20228017.678    -1811043.591 7  -1411203.92823        27.750           2.625
  21463469.389   -14119289.010 6 -10093827.71621        19.750           0.469
  23111563.568    -6030472.546 6  -4666110.76621        12.000           0.406
 91  6 24 19 24 44.9980000  0  3G 2G13G15
  20227536.092    -1813575.438 8  -1413176.80522        28.000           2.438
  21450893.326   -14185371.969 6 -10145320.91021        19.500           0.563
  23108253.576    -6047863.556 6  -4679662.20221        12.000           0.594
 91  6 24 19 24 59.9980000  0  3G 2G13G15
  20227066.756    -1816042.484 7  -1415099.18623        27.500           2.594
  21438335.889   -14251358.677 6 -10196739.09621        19.250           0.594
  23104972.842    -6065110.501 6  -4693101.38021        13.250           0.406
 91  6 24 19 25 14.9980000  0  3G 2G13G15
  20226607.326    -1818452.354 7  -1416977.01223        27.500           2.531
  21425794.397   -14317256.218 6 -10248087.79921        18.250           0.500
  23101713.201    -6082220.789 6  -4706434.09921        12.750           0.500
 91  6 24 19 25 29.9980000  0  3G 2G13G15
  20226161.193    -1820797.013 7  -1418804.02423        26.750           2.531
  21413272.787   -14383056.433 6 -10299360.66821        19.000           0.531
  23098486.881    -6099186.207 6  -4719653.89821        12.500           0.469
 91  6 24 19 25 44.9980000  0  3G 2G13G15
  20225724.889    -1823078.462 7  -1420581.78823        26.000           2.563
  21400770.818   -14448760.693 6 -10350558.76621        19.750           0.500
  23095282.670    -6116008.751 6  -4732762.38421        12.750           0.594
 91  6 24 19 25 59.9980000  0  3G 2G13G15
  20225304.865    -1825300.089 7  -1422312.92723        27.250           2.563
  21388286.404   -14514371.799 6 -10401684.28221        19.500           0.531
  23092112.779    -6132691.443 6  -4745761.88621        13.250           0.563
 91  6 24 19 26 14.9980000  0  3G 2G13G15
  20224894.842    -1827457.996 7  -1423994.42723        27.500           2.594
  21375819.334   -14579885.566 6 -10452733.94021        19.500           0.594
  23088963.373    -6149230.470 6  -4758649.43221        13.250           0.563
 91  6 24 19 26 29.9980000  0  3G 2G13G15
  20224496.006    -1829553.625 7  -1425627.39523        27.750           2.656
  21363368.959   -14645303.462 6 -10503708.89621        18.500           0.563
  23085844.967    -6165627.388 6  -4771426.26021        13.000           0.469
 91  6 24 19 26 44.9980000  0  3G 2G13G15
  20224108.522    -1831590.645 7  -1427214.69023        27.750           2.563
  21350939.717   -14710628.796 6 -10554611.72921        19.000           0.594
  23082749.295    -6181885.562 6  -4784094.97021        12.250           0.438
 91  6 24 19 26 59.9980000  0  3G 2G13G15
  20223732.201    -1833568.854 8  -1428756.15423        28.250           2.625
  21338525.389   -14775860.817 6 -10605441.84421        18.750           0.625
  23079680.818    -6198004.706 6  -4796655.35021        12.250           0.531
 91  6 24 19 27 14.9980000  0  3G 2G13G15
  20223367.162    -1835486.078 8  -1430250.10223        28.500           2.656
  21326126.154   -14840997.022 6 -10656197.30621        17.250           0.625
  23076642.600    -6213982.728 6  -4809105.76521        13.000           0.625
 91  6 24 19 27 29.9980000  0  3G 2G13G15
  20223014.803    -1837336.835 8  -1431692.25823        28.250           2.594
  21313755.100   -14906031.483 6 -10706873.47821        18.250           0.625
  23073632.811    -6229813.628 6  -4821441.52621        13.750           0.469
 91  6 24 19 27 44.9980000  0  3G 2G13G15
  20222675.264    -1839126.365 8  -1433086.70423        28.000           2.625
  21301395.592   -14970968.880 6 -10757474.02221        18.250           0.563
  23070642.732    -6245502.431 6  -4833666.57221        13.500           0.594
 91  6 24 19 27 59.9980000  0  3G 2G13G15
  20222344.693    -1840858.924 7  -1434436.75523        27.500           2.719
  21289058.420   -15035813.488 6 -10808002.24421        19.000           0.688
  23067682.272    -6261053.633 6  -4845784.41121        13.000           0.500
 91  6 24 19 28 14.9980000  0  3G 2G13G15
  20222026.834    -1842533.955 7  -1435741.98823        27.500           2.813
  21276734.811   -15100564.389 6 -10858457.47121        18.500           0.625
  23064754.342    -6276466.753 6  -4857794.62121        13.750           0.438
 91  6 24 19 28 29.9980000  0  3G 2G13G15
  20221718.740    -1844144.253 7  -1436996.77723        27.750           2.813
  21264435.217   -15165213.849 6 -10908833.64121        19.250           0.625
  23061847.928    -6291734.310 6  -4869691.42521        12.750           0.469
 91  6 24 19 28 44.9980000  0  3G 2G13G15
  20221425.248    -1845691.825 7  -1438202.68723        27.750           2.781
  21252151.897   -15229763.576 6 -10959132.10221        19.000           0.656
  23058969.357    -6306858.024 6  -4881476.16021        12.500           0.563
 91  6 24 19 28 59.9980000  0  3G 2G13G15
  20221139.287    -1847184.673 7  -1439365.95923        27.750           2.813
  21239883.897   -15294221.115 6 -11009358.71821        19.250           0.625
  23056117.404    -6321845.859 6  -4893154.98221        12.500           0.688
 91  6 24 19 29 14.9980000  0  3G 2G13G15
  20220868.326    -1848611.752 7  -1440477.97223        27.750           2.781
  21227638.639   -15358575.169 6 -11059504.71321        19.500           0.656
  23053292.092    -6336687.019 6  -4904719.53021        12.250           0.688
 91  6 24 19 29 29.9980000  0  3G 2G13G15
  20220609.053    -1849982.869 8  -1441546.38623        28.500           2.656
  21215410.514   -15422835.165 6 -11109577.41021        19.250           0.656
  23050493.264    -6351391.145 6  -4916177.28321        12.500           0.500
 91  6 24 19 29 44.9980000  0  3G 2G13G15
  20220359.881    -1851289.709 8  -1442564.70623        28.500           2.719
  21203202.623   -15486992.597 6 -11159570.17921        19.500           0.719
  23047723.803    -6365949.948 6  -4927521.81621        12.500           0.469
 91  6 24 19 29 59.9980000  0  3G 2G13G15
  20220124.787    -1852533.701 8  -1443534.05823        29.000           2.656
  21191011.748   -15551048.622 6 -11209483.93121        19.000           0.625
  23044979.334    -6380364.674 5  -4938754.09821        11.750           0.500
 91  6 24 19 30 14.9980000  0  3G 2G13G15
  20219896.732    -1853717.281 8  -1444456.33623        29.000           2.688
  21178840.357   -15615005.125 6 -11259320.13621        18.750           0.594
  23042262.811    -6394637.421 5  -4949875.69321        11.750           0.500
 91  6 24 19 30 29.9980000  0  3G 2G13G15
  20219685.990    -1854839.669 8  -1445330.93123        29.250           2.625
  21166691.139   -15678860.937 6 -11309077.89121        19.000           0.594
  23039575.240    -6408767.144 5  -4960885.86721        11.500           0.656
 91  6 24 19 30 44.9980000  0  3G 2G13G15
  20219482.873    -1855902.932 8  -1446159.45023        29.250           2.625
  21154557.334   -15742617.783 6 -11358758.52321        19.000           0.688
  23036911.295    -6422756.017 5  -4971786.30421        11.750           0.438
 91  6 24 19 30 59.9980000  0  3G 2G13G15
  20219291.709    -1856909.793 8  -1446944.02523        28.250           2.719
  21142444.881   -15806278.136 6 -11408363.96021        18.750           0.688
  23034280.482    -6436607.088 6  -4982579.35221        14.500           0.563
 91  6 24 19 31 14.9980000  0  3G 2G13G15
  20219110.217    -1857858.049 8  -1447682.94023        28.750           2.719
  21130348.420   -15869839.421 6 -11457892.20821        19.000           0.781
  23031668.193    -6450317.926 6  -4993263.14421        12.500           0.563
 91  6 24 19 31 29.9980000  0  3G 2G13G15
  20218940.107    -1858744.940 8  -1448374.02623        29.000           2.719
  21118274.342   -15933298.556 6 -11507340.84821        19.000           0.719
  23029087.725    -6463885.575 6  -5003835.34921        12.000           0.563
 91  6 24 19 31 44.9980000  0  3G 2G13G15
  20218782.365    -1859571.785 8  -1449018.32923        28.250           2.656
  21106213.928   -15996656.122 6 -11556710.35221        18.750           0.688
  23026532.248    -6477311.145 6  -5014296.84321        12.000           0.594
 91  6 24 19 31 59.9980000  0  3G 2G13G15
  20218637.522    -1860338.985 8  -1449616.16023        28.750           2.656
  21094179.326   -16059912.351 6 -11606000.89521        19.000           0.625
  23024004.498    -6490594.887 6  -5024647.81021        12.250           0.594
 91  6 24 19 32 14.9980000  0  3G 2G13G15
  20218502.623    -1861051.694 8  -1450171.52023        28.750           2.719
  21082159.443   -16123072.264 6 -11655216.38621        19.250           0.625
  23021502.287    -6503742.063 6  -5034892.37721        12.250           0.500
 91  6 24 19 32 29.9980000  0  3G 2G13G15
  20218379.014    -1861700.677 7  -1450677.23023        27.750           2.719
  21070163.592   -16186126.346 6 -11704349.41821        19.750           0.719
  23019031.357    -6516743.502 6  -5045023.38121        12.750           0.594
 91  6 24 19 32 44.9980000  0  3G 2G13G15
  20218268.615    -1862291.275 8  -1451137.44923        29.000           2.688
  21058180.584   -16249079.450 6 -11753403.74821        19.250           0.563
  23016582.553    -6529604.404 6  -5055044.88021        12.000           0.563
 91  6 24 19 32 59.9980000  0  3G 2G13G15
  20218164.037    -1862825.582 8  -1451553.80023        28.750           2.656
  21046218.639   -16311933.518 6 -11802380.91821        19.250           0.625
  23014160.904    -6542326.879 5  -5064958.49521        11.750           0.531
 91  6 24 19 33 14.9980000  0  3G 2G13G15
  20218075.193    -1863298.952 8  -1451922.66823        28.000           2.719
  21034279.428   -16374683.270 6 -11851276.80821        19.500           0.656
  23011765.061    -6554906.092 5  -5074760.47621        11.750           0.438
 91  6 24 19 33 29.9970000  0  3G 2G13G15
  20217994.220    -1863713.424 8  -1452245.64823        28.000           2.594
  21022359.228   -16437326.294 7 -11900089.52321        20.000           0.656
  23009400.735    -6567343.252 5  -5084451.78421        11.750           0.563
 91  6 24 19 33 44.9970000  0  3G 2G13G15
  20217930.759    -1864064.538 8  -1452519.24523        28.250           2.625
  21010458.446   -16499866.181 6 -11948821.86921        19.750           0.594
  23007058.251    -6579635.579 5  -5094030.22821        11.750           0.500
 91  6 24 19 33 59.9970000  0  3G 2G13G15
  20217872.853    -1864354.101 8  -1452744.88622        28.250           2.438
  20998577.845   -16562300.285 6 -11997471.80221        19.750           0.656
  23004748.204    -6591783.810 5  -5103496.38621        11.750           0.656
 91  6 24 19 34 14.9970000  0  3G 2G13G15
  20217831.563    -1864585.894 8  -1452925.51422        28.500           2.469
  20986713.063   -16624632.092 6 -12046042.02321        19.500           0.656
  23002467.868    -6603791.957 6  -5112853.39721        12.500           0.563
 91  6 24 19 34 29.9970000  0  3G 2G13G15
  20217796.759    -1864759.313 8  -1453060.65222        28.750           2.406
  20974874.235   -16686860.792 7 -12094531.89221        20.000           0.625
  23000202.407    -6615659.134 5  -5122100.56321        10.750           0.469
 91  6 24 19 34 44.9970000  0  3G 2G13G15
  20217774.204    -1864877.111 8                        28.750
  20963049.353   -16748988.679 6 -12142943.21221        19.500           0.688
  22997974.071    -6627388.069 6  -5131239.98021        12.000           0.656
 91  6 24 19 34 59.9970000  0  3G 2G13G15
  20217761.118    -1864938.947 8                        28.750
  20951245.845   -16811015.157 6 -12191275.50721        19.250           0.750
  22995772.892    -6638978.504 5  -5140271.47521        11.750           0.594
 91  6 24 19 35 14.9970000  0  3G 2G13G15
  20217762.415    -1864937.383 8                        28.750
  20939466.079   -16872932.356 7 -12239522.65221        20.000           0.750
  22993592.938    -6650422.739 6  -5149189.07621        12.000           0.688
 91  6 24 19 35 29.9970000  0  3G 2G13G15
  20217776.673    -1864874.281 8                        28.000
  20927705.978   -16934741.774 7 -12287685.80921        20.500           0.750
  22991440.767    -6661722.908 6  -5157994.39821        12.500           0.500
 91  6 24 19 35 44.9970000  0  3G 2G13G15
  20217798.204    -1864749.488 8                        28.250
  20915961.603   -16996442.840 6 -12335764.53521        19.750           0.750
  22989317.829    -6672878.518 6  -5166687.10521        12.250           0.469
 91  6 24 19 35 59.9970000  0  3G 2G13G15
  20217830.462    -1864565.330 8                        28.000
  20904240.290   -17058037.570 6 -12383760.40521        19.750           0.750
  22987220.782    -6683891.943 6  -5175268.98821        12.000           0.438
 91  6 24 19 36 14.9970000  0  3G 2G13G15
  20217878.360    -1864323.466 8                        28.500
  20892538.134   -17119527.371 6 -12431674.50621        19.500           0.813
  22985153.774    -6694764.697 6  -5183741.27421        12.250           0.625
 91  6 24 19 36 29.9970000  0  3G 2G13G15
  20217938.845    -1864024.157 8  -1452487.85723        28.500           2.500
  20880857.907   -17180912.221 7 -12479506.83021        20.000           0.813
  22983112.399    -6705496.964 6  -5192104.08421        12.000           0.688
 91  6 24 19 36 44.9970000  0  3G 2G13G15
  20218004.290    -1863669.959 8  -1452211.87523        28.000           2.531
  20869197.587   -17242194.145 7 -12527258.97021        20.000           0.875
  22981095.188    -6716091.282 6  -5200359.40621        13.500           0.625
 91  6 24 19 36 59.9970000  0  3G 2G13G15
  20218083.681    -1863261.126 8  -1451893.30523        28.500           2.531
  20857556.837   -17303373.325 6 -12574931.01621        19.500           0.781
  22979105.868    -6726548.053 6  -5208507.53321        13.250           0.500
 91  6 24 19 37 14.9970000  0  3G 2G13G15
  20218170.595    -1862794.760 8  -1451529.91123        29.250           2.500
  20845930.993   -17364446.279 6 -12622520.31021        18.750           0.719
  22977141.595    -6736864.054 6  -5216546.00221        13.000           0.531
 91  6 24 19 37 29.9970000  0  3G 2G13G15
  20218271.446    -1862267.747 8  -1451119.25323        29.250           2.531
  20834333.946   -17425409.545 6 -12670024.12421        19.250           0.938
  22975205.759    -6747036.118 6  -5224472.29721        12.000           0.625
 91  6 24 19 37 44.9970000  0  3G 2G13G15
  20218382.243    -1861677.343 8  -1450659.21023        28.250           2.531
  20822753.720   -17486260.551 6 -12717440.46421        19.250           0.781
  22973296.884    -6757061.765 6  -5232284.48821        12.500           0.594
 91  6 24 19 37 59.9970000  0  3G 2G13G15
  20218509.493    -1861024.770 8  -1450150.71422        28.500           2.406
  20811197.087   -17547000.059 6 -12764769.93121        19.750           0.813
  22971419.071    -6766942.257 6  -5239983.58521        12.000           0.500
 91  6 24 19 38 14.9970000  0  3G 2G13G15
  20218641.392    -1860313.632 8  -1449596.58522        28.000           2.406
  20799656.454   -17607631.278 6 -12812015.00121        19.750           0.844
  22969564.657    -6776680.991 6  -5247572.20921        12.500           0.594
 91  6 24 19 38 29.9970000  0  3G 2G13G15
  20218788.712    -1859544.000 8  -1448996.88222        28.000           2.406
  20788140.243   -17668153.831 7 -12859175.41221        20.250           0.813
  22967734.790    -6786278.062 5  -5255050.47021        11.750           0.500
 91  6 24 19 38 44.9970000  0  3G 2G13G15
  20218946.415    -1858712.998 8  -1448349.36322        28.000           2.313
  20776644.681   -17728564.639 7 -12906248.74521        20.250           0.875
  22965937.720    -6795730.713 6  -5262416.20421        12.000           0.531
 91  6 24 19 38 59.9970000  0  3G 2G13G15
  20219115.829    -1857823.693 7  -1447656.39922        27.500           2.406
  20765169.134   -17788866.244 7 -12953236.97221        20.750           0.813
  22964168.821    -6805041.868 6  -5269671.63621        13.000           0.531
 91  6 24 19 39 14.9970000  0  3G 2G13G15
  20219296.681    -1856875.466 7  -1446917.52422        27.250           2.469
  20753715.298   -17849057.777 7 -13000139.44621        20.750           0.781
  22962422.962    -6814210.790 6  -5276816.24321        13.000           0.563
 91  6 24 19 39 29.9970000  0  3G 2G13G15
  20219487.509    -1855872.739 7  -1446136.18822        27.500           2.469
  20742279.985   -17909143.639 7 -13046959.57821        20.250           0.938
  22960702.876    -6823241.939 6  -5283853.50821        13.250           0.500
 91  6 24 19 39 44.9970000  0  3G 2G13G15
  20219689.056    -1854809.025 7  -1445307.32622        27.500           2.406
  20730867.712   -17969117.044 7 -13093692.08221        20.500           0.750
  22959013.993    -6832128.972 6  -5290778.48421        13.500           0.406
 91  6 24 19 39 59.9970000  0  3G 2G13G15
  20219902.181    -1853687.250 7  -1444433.22023        27.500           2.500
  20719476.806   -18028980.363 7 -13140338.79221        21.250           0.781
  22957350.517    -6840874.470 6  -5297593.16521        12.500           0.625
 91  6 24 19 40 14.9970000  0  3G 2G13G15
  20220127.993    -1852509.322 7  -1443515.35722        27.000           2.406
  20708103.563   -18088735.226 7 -13186901.00021        21.000           0.750
  22955708.665    -6849480.475 6  -5304299.16521        12.000           0.656
 91  6 24 19 40 29.9970000  0  3G 2G13G15
  20220364.501    -1851274.790 7  -1442553.39222        27.500           2.469
  20696753.126   -18148381.046 7 -13233378.25221        20.750           0.781
  22954098.759    -6857946.482 5  -5310896.06121        11.750           0.500
 91  6 24 19 40 44.9970000  0  3G 2G13G15
  20220610.087    -1849978.324 7  -1441543.16822        27.250           2.438
  20685426.493   -18207911.898 7 -13279765.89121        21.250           0.844
  22952517.110    -6866267.166 6  -5317379.73021        12.000           0.531
 91  6 24 19 40 59.9970000  0  3G 2G13G15
  20220866.571    -1848622.411 7  -1440486.62222        26.750           2.281
  20674119.735   -18267329.871 7 -13326065.59221        21.500           0.813
  22950960.048    -6874445.112 6  -5323752.18221        12.000           0.375
 91  6 24 19 41 14.9970000  0  3G 2G13G15
  20221136.353    -1847207.037 7  -1439383.74522        27.250           2.344
  20662833.845   -18326634.785 7 -13372277.19421        21.000           0.781
  22949431.899    -6882480.458 6  -5330013.47221        12.500           0.469
 91  6 24 19 41 29.9970000  0  3G 2G13G15
  20221417.509    -1845738.364 7  -1438239.32122        27.000           2.469
  20651570.517   -18385832.597 7 -13418405.32821        21.750           0.844
  22947927.212    -6890378.924 6  -5336168.11721        12.000           0.406
 91  6 24 19 41 44.9970000  0  3G 2G13G15
  20221708.556    -1844208.986 7  -1437047.61322        27.250           2.438
  20640326.313   -18444915.626 7 -13464444.03521        21.500           0.875
  22946452.548    -6898133.246 6  -5342210.47321        12.250           0.406
 91  6 24 19 41 59.9970000  0  3G 2G13G15
  20222009.571    -1842623.757 7  -1435812.37422        26.750           2.438
  20629104.181   -18503888.484 7 -13510396.87821        21.250           0.781
  22945002.946    -6905748.441 6  -5348144.38521        13.000           0.375
 91  6 24 19 42 14.9970000  0  3G 2G13G15
  20222320.009    -1840979.118 7  -1434530.84822        26.250           2.344
  20617905.548   -18562747.179 7 -13556260.78521        21.750           0.844
  22943583.001    -6913220.761 6  -5353966.98221        13.500           0.500
 91  6 24 19 42 29.9970000  0  3G 2G13G15
  20222645.220    -1839273.644 7  -1433201.90922        27.000           2.438
  20606725.103   -18621489.954 7 -13602034.35921        21.750           0.875
  22942187.345    -6920548.834 6  -5359677.19121        13.250           0.750
 91  6 24 19 42 44.9970000  0  3G 2G13G15
  20222981.368    -1837509.487 7  -1431827.24722        27.750           2.438
  20595569.454   -18680118.677 7 -13647719.04821        21.250           0.875
  22940820.759    -6927734.910 6  -5365276.72321        13.250           1.000
 91  6 24 19 42 59.9970000  0  3G 2G13G15
  20223326.431    -1835689.626 7  -1430409.18722        27.750           2.344
  20584430.118   -18738635.902 7 -13693316.86621        20.500           0.875
  22939477.626    -6934781.999 6  -5370767.97221        13.000           0.250
 91  6 24 19 43 14.9970000  0  3G 2G13G15
  20223684.790    -1833807.363 7  -1428942.49122        27.500           2.344
  20573320.103   -18797034.830 7 -13738822.50221        20.750           0.938
  22938164.993    -6941683.415 6  -5376145.75421        13.250           0.469
 91  6 24 19 43 29.9970000  0  3G 2G13G15
  20224054.688    -1831867.180 8  -1427430.66222        28.000           2.438
  20562229.603   -18855319.724 7 -13784239.27921        21.000           0.938
  22936879.954    -6948443.600 6  -5381413.43021        13.000           0.531
 91  6 24 19 43 44.9970000  0  3G 2G13G15
  20224436.813    -1829866.429 8  -1425871.64222        28.500           2.406
  20551158.571   -18913487.501 7 -13829564.78921        20.750           0.969
  22935619.563    -6955059.993 6  -5386569.03421        12.750           0.313
 91  6 24 19 43 59.9970000  0  3G 2G13G15
  20224828.360    -1827807.080 8  -1424266.96522        28.250           2.438
  20540113.970   -18971539.950 7 -13874800.44321        21.000           0.906
  22934389.446    -6961534.438 6  -5391614.04721        12.500           0.375
 91  6 24 19 44 14.9970000  0  3G 2G13G15
  20225230.821    -1825690.801 8  -1422617.92122        28.750           2.406
  20529088.540   -19029478.471 7 -13919947.31021        21.000           1.000
  22933184.438    -6967869.022 5  -5396550.10021        11.500           0.375
 91  6 24 19 44 29.9970000  0  3G 2G13G15
  20225646.009    -1823514.715 8  -1420922.27722        28.000           2.375
  20518084.821   -19087299.675 7 -13965002.76821        21.500           1.031
  22932006.876    -6974060.676 5  -5401374.80621        11.500           0.469
 91  6 24 19 44 44.9970000  0  3G 2G13G15
  20226069.337    -1821277.587 8  -1419179.06822        28.000           2.469
  20507102.759   -19145001.933 7 -14009965.54721        21.000           1.094
  22930852.251    -6980107.869 6  -5406086.91321        12.000           0.344
 91  6 24 19 44 59.9970000  0  3G 2G13G15
  20226507.095    -1818984.101 7  -1417391.94522        27.500           2.438
  20496146.274   -19202589.917 7 -14054839.26821        21.750           1.156
  22929726.563    -6986015.417 6  -5410690.20321        12.250           0.406
 91  6 24 19 45 14.9970000  0  3G 2G13G15
  20226953.681    -1816629.592 7  -1415557.27022        27.250           2.469
  20485207.735   -19260058.550 7 -14099619.99421        22.000           1.031
  22928629.923    -6991778.824 6  -5415181.19021        12.250           0.406
 91  6 24 19 45 29.9970000  0  3G 2G13G15
  20227413.595    -1814219.559 7  -1413679.33022        27.250           2.438
  20474294.118   -19317413.284 7 -14144311.97621        21.500           1.063
  22927559.837    -6997403.556 6  -5419564.09421        12.500           0.469
 91  6 24 19 45 44.9970000  0  3G 2G13G15
  20227883.704    -1811752.111 7  -1411756.65323        26.750           2.656
  20463402.368   -19374651.859 7 -14188913.43621        21.500           1.094
  22926519.306    -7002887.524 6  -5423837.31521        13.250           0.438
 91  6 24 19 45 59.9970000  0  3G 2G13G15
  20228362.938    -1809223.640 7  -1409786.43222        26.750           2.469
  20452533.103   -19431770.074 7 -14233421.10521        22.250           1.000
  22925501.876    -7008227.318 6  -5427998.21821        12.750           0.531
 91  6 24 19 46 14.9970000  0  3G 2G13G15
  20228857.134    -1806635.510 7  -1407769.71122        27.000           2.375
  20441686.962   -19488769.262 7 -14277836.04121        22.250           1.000
  22924514.329    -7013424.357 6  -5432047.86721        12.750           0.563
 91  6 24 19 46 29.9970000  0  3G 2G13G15
  20229359.993    -1803987.379 7  -1405706.24022        26.750           2.438
  20430862.149   -19545648.894 7 -14322157.81021        22.500           1.094
  22923551.993    -7018478.113 6  -5435985.88321        12.750           0.531
 91  6 24 19 46 44.9970000  0  3G 2G13G15
  20229876.056    -1801276.602 7  -1403593.95823        27.500           2.500
  20420063.267   -19602405.968 7 -14366384.07521        22.750           1.031
  22922617.978    -7023386.095 6  -5439810.29521        12.000           0.594
 91  6 24 19 46 59.9970000  0  3G 2G13G15
  20230404.071    -1798509.219 8  -1401437.56922        28.500           2.469
  20409285.712   -19659046.096 7 -14410519.21821        22.500           0.906
  22921711.095    -7028154.486 6  -5443525.94721        13.000           0.625
 91  6 24 19 47 14.9970000  0  3G 2G13G15
  20230941.243    -1795680.284 7  -1399233.20722        27.500           2.406
  20398529.118   -19715564.064 7 -14454559.16821        22.250           0.938
  22920826.743    -7032778.170 6  -5447128.83921        12.000           0.563
 91  6 24 19 47 29.9970000  0  3G 2G13G15
  20231488.798    -1792799.305 7  -1396988.29723        27.500           2.563
  20387796.196   -19771969.005 7 -14498511.04221        22.250           1.000
  22919975.274    -7037266.942 6  -5450626.60721        12.000           0.438
 91  6 24 19 47 44.9970000  0  3G 2G13G15
  20232050.556    -1789857.278 7  -1394695.81323        27.750           2.656
  20377086.517   -19828251.982 7 -14542367.89521        22.750           0.938
  22919151.204    -7041611.770 6  -5454012.18821        12.500           0.406
 91  6 24 19 47 59.9970000  0  3G 2G13G15
  20232620.931    -1786855.551 7  -1392356.81023        27.250           2.531
  20366398.173   -19884413.963 7 -14586130.45121        22.500           0.938
  22918348.712    -7045813.854 6  -5457286.55221        13.000           0.438
 91  6 24 19 48 14.9970000  0  3G 2G13G15
  20233203.048    -1783793.789 7  -1389971.03523        27.500           2.531
  20355733.884   -19940454.483 7 -14629798.36521        22.000           0.906
  22917579.321    -7049873.064 6  -5460449.57921        12.500           0.438
 91  6 24 19 48 29.9970000  0  3G 2G13G15
  20233797.673    -1780674.750 8  -1387540.62723        28.500           2.531
  20345092.618   -19996375.791 7 -14673373.39221        22.500           0.906
  22916833.142    -7053792.283 6  -5463503.53721        12.500           0.406
 91  6 24 19 48 44.9970000  0  3G 2G13G15
  20234400.501    -1777495.745 7  -1385063.48223        27.250           2.500
  20334474.571   -20052174.928 7 -14716853.21421        22.500           0.938
  22916113.915    -7057568.706 6  -5466446.22221        13.000           0.281
 91  6 24 19 48 59.9970000  0  3G 2G13G15
  20235017.681    -1774256.206 7  -1382539.17923        27.250           2.531
  20323877.048   -20107851.204 7 -14760237.30021        21.500           0.875
  22915420.438    -7061202.030 6  -5469277.39821        13.500           0.344
 91  6 24 19 49 14.9970000  0  3G 2G13G15
  20235645.313    -1770962.065 8  -1379972.32723        28.000           2.531
  20313307.735   -20163410.395 7 -14803530.16321        22.000           0.969
  22914756.907    -7064698.287 6  -5472001.78021        12.750           0.281
 91  6 24 19 49 29.9970000  0  3G 2G13G15
  20236284.868    -1767603.434 7  -1377355.21823        27.750           2.563
  20302759.540   -20218842.072 7 -14846723.65221        22.250           0.844
  22914115.978    -7068047.352 6  -5474611.44321        12.000           0.375
 91  6 24 19 49 44.9970000  0  3G 2G13G15
  20236937.931    -1764185.767 8  -1374692.11022        28.250           2.469
  20292234.110   -20274151.416 7 -14889821.82421        22.000           0.906
  22913504.040    -7071254.774 5  -5477110.75421        10.750           0.469
 91  6 24 19 49 59.9970000  0  3G 2G13G15
  20237596.892    -1760700.924 7  -1371976.66122        27.500           2.438
  20281731.306   -20329330.248 7 -14932818.28921        20.750           0.969
  22912934.478    -7074312.674 5  -5479493.56321        11.500           0.531
 91  6 24 19 50 14.9970000  0  3G 2G13G15
  20238273.392    -1757150.424 7  -1369210.05022        27.500           2.406
  20271259.493   -20384379.708 7 -14975713.93921        22.250           1.031
  22912369.376    -7077222.445 5  -5481760.95121        11.500           0.563
 91  6 24 19 50 29.9970000  0  3G 2G13G15
  20238961.142    -1753534.945 7  -1366392.80022        27.250           2.438
  20260805.837   -20439300.227 7 -15018509.13121        22.000           0.969
  22911847.665    -7079984.908 6  -5483913.54221        12.250           0.500
 91  6 24 19 50 44.9970000  0  3G 2G13G15
  20239661.024    -1749856.708 7  -1363526.64722        26.750           2.344
  20250380.884   -20494093.715 7 -15061205.33721        22.500           1.031
  22911346.313    -7082602.291 5  -5485953.08921        11.500           0.531
 91  6 24 19 50 59.9970000  0  3G 2G13G15
  20240374.173    -1746115.629 7  -1360611.52622        27.500           2.469
  20239978.306   -20548759.805 7 -15103802.26321        22.250           0.969
  22910874.899    -7085074.304 5  -5487879.35121        10.750           0.438
 91  6 24 19 51 14.9970000  0  3G 2G13G15
  20241097.782    -1742312.056 7  -1357647.71323        27.750           2.500
  20229597.399   -20603298.349 7 -15146299.81121        21.750           1.156
  22910437.220    -7087401.477 6  -5489692.73521        12.500           0.500
 91  6 24 19 51 29.9970000  0  3G 2G13G15
  20241834.360    -1738441.794 8  -1354631.92922        28.250           2.375
  20219246.751   -20657705.217 7 -15188694.75021        22.500           1.031
  22910020.767    -7089579.702 5  -5491390.10921        11.500           0.406
 91  6 24 19 51 44.9970000  0  3G 2G13G15
  20242581.501    -1734513.501 7  -1351570.93223        27.500           2.531
  20208913.618   -20711988.824 7 -15230993.65121        21.750           1.156
  22909631.071    -7091617.730 5  -5492978.18521        11.250           0.313
 91  6 24 19 51 59.9970000  0  3G 2G13G15
  20243340.142    -1730523.767 7  -1348462.06222        27.750           2.313
  20198608.407   -20766145.382 7 -15273193.53721        22.500           1.094
  22909277.688    -7093512.292 6  -5494454.47221        12.000           0.375
 91  6 24 19 52 14.9970000  0  3G 2G13G15
  20244110.665    -1726475.886 8  -1345307.87422        28.500           2.344
  20188326.892   -20820177.891 7 -15315296.77621        22.250           1.094
  22908936.446    -7095266.977 5  -5495821.78421        10.500           0.344
 91  6 24 19 52 29.9970000  0  3G 2G13G15
  20244895.134    -1722361.335 7  -1342101.73922        27.250           2.250
  20178071.993   -20874077.581 7 -15357296.51521        23.250           1.094
  22908633.157    -7096873.096 5  -5497073.30121        11.000           0.313
 91  6 24 19 52 44.9970000  0  3G 2G13G15
  20245690.103    -1718189.124 8  -1338850.68722        28.250           2.406
  20167838.751   -20927853.240 7 -15399199.59621        22.750           1.219
  22908355.978    -7098339.414 5  -5498215.93621        10.750           0.406
 91  6 24 19 52 59.9970000  0  3G 2G13G15
  20246494.173    -1713951.338 7  -1335548.51322        27.750           2.344
  20157630.970   -20981496.751 7 -15440999.71521        23.500           1.250
  22908103.649    -7099658.454 5  -5499243.75621        10.250           0.469
 91  6 24 19 53 14.9970000  0  3G 2G13G15
  20247313.032    -1709650.115 7  -1332196.91722        27.250           2.281
  20147448.032   -21035010.101 7 -15482698.40521        23.500           1.219
  22907878.603    -7100832.607 5  -5500158.68621        11.500           0.375
 91  6 24 19 53 29.9970000  0  3G 2G13G15
  20248142.532    -1705290.571 7  -1328799.87722        27.000           2.281
  20137285.767   -21088398.279 7 -15524299.55721        23.000           1.281
  22907685.649    -7101866.852 5  -5500964.62521        11.750           0.375
 91  6 24 19 53 44.9970000  0  3G 2G13G15
  20248985.712    -1700870.181 7  -1325355.42622        27.250           2.188
  20127151.829   -21141658.262 7 -15565800.81621        23.250           1.250
  22907511.899    -7102758.688 5  -5501659.61821        11.500           0.406
 91  6 24 19 53 59.9970000  0  3G 2G13G15
  20249838.032    -1696383.214 7  -1321859.09222        26.750           2.219
  20117042.665   -21194784.202 7 -15607197.62721        23.500           1.219
  22907371.431    -7103502.588 6  -5502239.26721        12.000           0.375
 91  6 24 19 54 14.9970000  0  3G 2G13G15
  20250703.345    -1691839.497 7  -1318318.54422        27.500           2.188
  20106957.837   -21247785.783 7 -15648497.53521        23.250           1.250
  22907256.188    -7104108.331 5  -5502711.29721        11.250           0.344
 91  6 24 19 54 29.9970000  0  3G 2G13G15
  20251583.478    -1687207.911 7  -1314709.52522        27.000           2.219
  20096901.673   -21300631.322 7 -15689675.85321        22.750           1.281
  22907174.368    -7104544.776 5  -5503051.39921        11.500           0.344
 91  6 24 19 54 44.9970000  0  3G 2G13G15
  20252477.157    -1682513.625 7  -1311051.64722        26.750           2.313
  20086868.821   -21353346.014 7 -15730752.21521        22.750           1.281
  22907117.884    -7104837.397 5  -5503279.45021        11.750           0.344
 91  6 24 19 54 59.9970000  0  3G 2G13G15
  20253381.970    -1677754.762 7  -1307343.45622        27.000           2.219
  20076863.626   -21405927.774 7 -15771724.99321        23.250           1.156
  22907091.970    -7104984.233 5                        11.750
 91  6 24 19 55 14.9970000  0  3G 2G13G15
  20254300.774    -1672931.766 7  -1303585.28522        27.500           2.281
  20066883.165   -21458376.514 7 -15812594.12421        23.500           1.188
  22907092.610    -7104985.735 5                        11.500
 91  6 24 19 55 29.9970000  0  3G 2G13G15
  20255231.376    -1668045.348 7  -1299777.69622        27.500           2.281
  20056925.509   -21510692.685 7 -15853359.94621        23.000           1.156
  22907121.587    -7104842.764 5                        11.250
 91  6 24 19 55 44.9970000  0  3G 2G13G15
  20256172.259    -1663097.265 7  -1295922.05322        27.000           2.281
  20046996.431   -21562877.997 7 -15894023.80321        23.000           1.125
  22907175.149    -7104557.243 5                        11.250
 91  6 24 19 55 59.9970000  0  3G 2G13G15
  20257123.267    -1658088.712 7  -1292019.29922        27.000           2.375
  20037092.876   -21614933.505 7 -15934586.51721        23.250           1.156
  22907251.243    -7104130.527 5  -5502728.75721        11.250           0.313
 91  6 24 19 56 14.9960000  0  3G 2G13G15
  20258088.684    -1653018.583 7  -1288068.55922        27.250           2.438
  20027210.270   -21666854.022 7 -15975044.04421        23.000           1.125
  22907360.934    -7103561.448 5  -5502285.37921        11.000           0.313
 91  6 24 19 56 29.9960000  0  3G 2G13G15
  20259067.934    -1647885.874 7  -1284069.04822        27.000           2.313
  20017355.324   -21718645.962 7 -16015401.38221        23.000           1.219
  22907496.059    -7102849.613 5  -5501730.67121        11.000           0.313
 91  6 24 19 56 44.9960000  0  3G 2G13G15
  20260054.106    -1642693.434 7  -1280022.99622        27.000           2.344
  20007522.387   -21770308.090 7 -16055657.56221        22.750           1.125
  22907656.270    -7101997.488 5  -5501066.69321        11.250           0.313
 91  6 24 19 56 59.9960000  0  3G 2G13G15
  20261052.566    -1637441.352 7  -1275930.47322        27.250           2.344
  19997718.262   -21821840.047 7 -16095812.31221        23.250           1.219
  22907843.613    -7101005.184 5  -5500293.49921        10.250           0.250
 91  6 24 19 57 14.9960000  0  3G 2G13G15
  20262065.059    -1632125.569 7  -1271788.30822        27.000           2.281
  19987937.254   -21873237.765 7 -16135862.46021        23.000           1.156
  22908067.223    -7099869.017 5  -5499408.19821        10.250           0.313
 91  6 24 19 57 29.9960000  0  3G 2G13G15
  20263087.035    -1626748.542 7  -1267598.42122        26.500           2.281
  19978182.012   -21924503.512 7 -16175809.77421        23.500           1.313
  22908309.496    -7098591.492 5  -5498412.74321        10.000           0.219
 91  6 24 19 57 44.9960000  0  3G 2G13G15
  20264125.504    -1621309.148 7  -1263359.94322        27.000           2.406
  19968452.168   -21975635.950 7 -16215653.20921        23.250           1.281
  22908575.215    -7097171.352 5  -5497306.18421        10.000           0.313
 91  6 24 19 57 59.9960000  0  3G 2G13G15
  20265168.363    -1615813.092 7  -1259077.31322        27.500           2.281
  19958745.020   -22026640.563 7 -16255397.04721        23.000           1.250
  22908875.731    -7095614.528 5  -5496093.11021        10.500           0.375
 91  6 24 19 58 14.9960000  0  3G 2G13G15
  20266228.027    -1610255.310 7  -1254746.58322        26.500           2.250
  19949067.629   -22077511.970 7 -16295037.08021        24.000           1.219
  22909194.731    -7093916.121 5  -5494769.70921        10.500           0.344
 91  6 24 19 58 29.9960000  0  3G 2G13G15
  20267296.051    -1604635.825 7  -1250367.77222        26.500           2.344
  19939410.652   -22128249.689 7 -16334572.94921        23.750           1.125
  22909546.207    -7092076.164 5  -5493336.00721        11.000           0.281
 91  6 24 19 58 44.9960000  0  3G 2G13G15
  20268376.902    -1598957.266 7  -1245942.92822        27.250           2.250
  19929781.098   -22178856.187 7 -16374006.56721        23.250           1.188
  22909924.238    -7090097.429 6  -5491794.14721        12.000           0.250
 91  6 24 19 58 59.9960000  0  3G 2G13G15
  20269470.863    -1593215.287 7  -1241468.66022        27.000           2.375
  19920175.215   -22229327.359 7 -16413334.73021        23.750           1.250
  22910327.488    -7087975.793 6  -5490140.94221        12.500           0.219
 91  6 24 19 59 14.9960000  0  3G 2G13G15
  20270572.137    -1587419.755 7  -1236952.66522        26.250           2.344
  19910595.027   -22279672.541 7 -16452564.72721        24.000           1.219
  22910758.512    -7085720.998 6  -5488383.99121        12.500           0.313
 91  6 24 19 59 29.9960000  0  3G 2G13G15
  20271685.496    -1581564.162 7  -1232389.88222        26.250           2.219
  19901038.856   -22329885.283 7 -16491691.51521        24.000           1.250
  22911210.465    -7083326.957 5  -5486518.51021        11.750           0.344
 91  6 24 19 59 44.9960000  0  3G 2G13G15
  20272810.918    -1575647.876 7  -1227779.79222        26.250           2.406
  19891509.637   -22379964.596 7 -16530714.33721        24.250           1.219
  22911690.926    -7080792.915 5  -5484543.97021        11.250           0.313
 91  6 24 19 59 59.9960000  0  3G 2G13G15
  20273952.832    -1569669.628 7  -1223121.42922        26.500           2.438
  19882004.895   -22429909.105 7 -16569632.11921        23.250           1.219
  22912202.301    -7078117.784 6  -5482459.47721        12.250           0.281
 91  6 24 20  0 14.9960000  0  3G 2G13G15
  20275101.027    -1563629.969 7  -1218415.20822        25.500           2.281
  19872528.426   -22479719.035 7 -16608445.03121        24.000           1.250
  22912737.215    -7075302.175 5  -5480265.54121        11.500           0.250
 91  6 24 20  0 29.9960000  0  3G 2G13G15
  20276263.231    -1557528.335 7  -1213660.70422        26.250           2.250
  19863073.270   -22529393.638 7 -16647152.49621        23.500           1.406
  22913300.184    -7072345.721 6  -5477961.83621        12.250           0.375
 91  6 24 20  0 44.9960000  0  3G 2G13G15
  20277433.223    -1551368.177 7  -1208860.58522        26.500           2.313
  19853646.129   -22578936.030 7 -16685756.94221        24.250           1.438
  22913889.191    -7069251.922 6  -5475551.09621        12.000           0.344
 91  6 24 20  0 59.9960000  0  3G 2G13G15
  20278618.012    -1545146.010 7  -1204012.15322        26.000           2.281
  19844243.918   -22628342.790 7 -16724255.69521        24.000           1.344
  22914504.832    -7066017.600 5  -5473030.90421        11.750           0.344
 91  6 24 20  1 14.9960000  0  4G 2G 6G13G15
  20279814.481    -1538864.178 7  -1199117.22722        25.750           2.406
  19723805.543        1733.629 7                        21.250
  19834869.926   -22677616.213 7 -16762650.55521        25.000           1.313
  22915146.199    -7062645.172 5  -5470403.04921        11.250           0.344
 91  6 24 20  1 29.9960000  0  4G 2G 6G13G15
  20281021.356    -1532523.003 7  -1194176.06022        26.000           2.313
  19724160.395        3589.836 7                        21.250
  19825517.848   -22726755.696 7 -16800941.04321        24.250           1.406
  22915817.012    -7059134.833 5  -5467667.73621        11.250           0.375
 91  6 24 20  1 44.9960000  0  4G 2G 6G13G15
  20282239.059    -1526120.577 7  -1189187.16322        27.000           2.344
  19724536.668        5569.762 7                        21.250
  19816190.707   -22775759.673 7 -16839125.94121        23.750           1.281
  22916512.707    -7055485.026 5  -5464823.78221        10.750           0.406
 91  6 24 20  1 59.9960000  0  4G 2G 6G13G15
  20283465.988    -1519658.508 7  -1184151.78922        26.250           2.250
  19724937.176        7671.868 7                        20.750
  19806892.410   -22824629.246 7 -16877206.11021        24.500           1.406
  22917234.113    -7051697.176 5  -5461872.25121        10.500           0.438
 91  6 24 20  2 14.9960000  0  4G 2G 6G13G15
  20284706.270    -1513137.246 7  -1179070.30122        26.500           2.219
  19725361.770        9895.907 7                        20.750
  19797618.879   -22873364.649 7 -16915181.73121        24.000           1.281
  22917976.996    -7047771.942 5  -5458813.65721        10.250           0.531
 91  6 24 20  2 29.9960000  0  4G 2G 6G13G15
  20285959.676    -1506558.938 7  -1173944.35422        26.750           2.281
  19725805.965       12239.552 7        -0.41632        21.000           1.625
  19788368.770   -22921967.902 7 -16953054.37521        24.000           1.406
  22918751.645    -7043711.875 5  -5455650.00421        10.000           0.531
 91  6 24 20  2 44.9960000  0  4G 2G 6G13G15
  20287223.910    -1499922.408 7  -1168773.03822        26.750           2.094
  19726275.481       14703.972 7      1919.91222        21.000           1.750
  19779145.449   -22970437.847 7 -16990823.14821        23.750           1.469
  22919549.879    -7039515.954 5  -5452380.48721         9.750           0.500
 91  6 24 20  2 59.9960000  0  4G 2G 6G13G15
  20288497.106    -1493224.069 7  -1163553.56922        26.750           2.250
  19726769.676       17293.081 7      3937.39422        21.000           1.688
  19769948.277   -23018770.377 7 -17028484.84121        23.250           1.375
  22920370.715    -7035180.480 5  -5449002.25121         9.750           0.438
 91  6 24 20  3 14.9960000  0  4G 2G 6G13G15
  20289784.473    -1486467.206 7  -1158288.49022        27.000           2.094
  19727285.277       20003.315 7      6049.26622        20.750           1.750
  19760776.582   -23066968.870 7 -17066042.09621        24.000           1.375
  22921225.277    -7030709.091 5  -5445518.08921         9.500           0.375
 91  6 24 20  3 29.9960000  0  4G 2G 6G13G15
  20291078.762    -1479650.943 7  -1152977.12922        26.750           2.156
  19727822.324       22835.865 7      8256.43622        20.750           1.781
  19751631.481   -23115032.201 7 -17103494.02121        24.000           1.406
  22922102.574    -7026100.900 5  -5441927.31521        10.500           0.406
 91  6 24 20  3 44.9960000  0  4G 2G 6G13G15
  20292387.707    -1472778.774 7  -1147622.19422        26.500           2.063
  19728386.137       25787.324 7     10556.27222        20.750           1.719
  19742508.777   -23162963.386 7 -17140842.98121        23.500           1.406
  22923004.356    -7021359.506 5  -5438232.74921        10.750           0.313
 91  6 24 20  3 59.9960000  0  4G 2G 6G13G15
  20293707.613    -1465841.699 7  -1142216.69522        26.000           2.063
  19728969.816       28866.703 7     12955.78522        20.750           1.719
  19733417.871   -23210753.785 7 -17178082.23621        24.750           1.469
  22923937.762    -7016476.083 5  -5434427.52621        10.500           0.375
 91  6 24 20  4 14.9960000  0  4G 2G 6G13G15
  20295038.996    -1458850.814 7  -1136769.26222        26.250           2.063
  19729580.309       32062.905 7     15446.32922        21.000           1.750
  19724345.996   -23258413.942 7 -17215219.99921        24.000           1.406
  22924886.973    -7011461.867 5  -5430520.37921         9.750           0.438
 91  6 24 20  4 29.9960000  0  4G 2G 6G13G15
  20296380.684    -1451800.280 7  -1131275.35122        26.750           2.156
  19730211.410       35381.705 7     18032.40522        20.750           1.688
  19715303.457   -23305938.017 7 -17252251.72921        24.500           1.438
  22925862.918    -7006311.166 5  -5426506.87621         9.000           0.438
 91  6 24 20  4 44.9960000  0  4G 2G 6G13G15
  20297735.207    -1444688.330 7  -1125733.57322        26.250           2.031
  19730864.207       38824.999 7     20715.48622        20.750           1.781
  19706285.762   -23353324.007 7 -17289175.86021        24.250           1.406
  22926877.059    -7001022.403 5  -5422385.80221         9.750           0.406
 91  6 24 20  4 59.9960000  0  4G 2G 6G13G15
  20299095.496    -1437523.036 7  -1120150.24222        27.000           2.031
  19731545.715       42384.764 7     23489.32822        21.000           1.813
  19697293.293   -23400579.984 7 -17325998.68621        23.750           1.375
  22927906.770    -6995603.578 5  -5418163.36521         9.250           0.531
 91  6 24 20  5 14.9960000  0  4G 2G 6G13G15
  20300472.863    -1430297.017 8  -1114519.58922        28.000           2.000
  19732242.949       46068.604 7     26359.85422        20.000           1.750
  19688326.816   -23447697.814 7 -17362713.86621        23.250           1.281
  22928967.746    -6990047.554 5  -5413834.04821        10.750           0.469
 91  6 24 20  5 29.9960000  0  4G 2G 6G13G15
  20301859.551    -1423007.560 7  -1108839.49922        27.250           1.938
  19732970.004       49879.046 7     29329.01822        21.000           1.906
  19679388.027   -23494674.837 7 -17399319.31521        23.750           1.344
  22930050.238    -6984351.836 5  -5409395.84021         9.750           0.469
 91  6 24 20  5 44.9960000  0  4G 2G 6G13G15
  20303255.652    -1415665.233 7  -1103118.21622        27.000           1.938
  19733717.574       53805.655 7     32388.70622        20.750           1.969
  19670469.496   -23541521.323 7 -17435823.06121        23.000           1.250
  22931156.504    -6978527.096 5  -5404857.11421        10.750           0.313
 91  6 24 20  5 59.9960000  0  4G 2G 6G13G15
  20304663.082    -1408263.252 7  -1097350.45422        26.750           1.969
  19734489.777       57855.190 7     35544.18222        20.500           1.875
  19661584.856   -23588230.586 7 -17472219.87521        24.000           1.313
  22932291.098    -6972566.858 5  -5400212.80721        10.250           0.375
 91  6 24 20  6 14.9960000  0  4G 2G 6G13G15
  20306084.668    -1400804.375 8  -1091538.34822        28.000           1.938
  19735282.434       62024.824 7     38793.24822        20.000           1.875
  19652720.043   -23634805.348 7 -17508511.87821        23.750           1.250
  22933451.941    -6966474.146 5  -5395465.28621         9.750           0.375
 91  6 24 20  6 29.9960000  0  4G 2G 6G13G15
  20307515.848    -1393283.243 7  -1085677.73022        27.000           1.969
  19736099.418       66320.036 7     42140.15822        20.500           1.969
  19643884.207   -23681239.939 7 -17544694.66921        24.000           1.313
  22934629.176    -6960243.444 5  -5390610.23421         8.750           0.281
 91  6 24 20  6 44.9960000  0  4G 2G 6G13G15
  20308956.871    -1385701.945 7  -1079770.24222        26.250           2.125
  19736940.379       70738.736 7     45583.29822        20.750           1.906
  19635074.348   -23727536.332 7 -17580769.76421        24.750           1.313
  22935841.973    -6953877.012 5  -5385649.40721         8.500           0.313
 91  6 24 20  6 59.9960000  0  4G 2G 6G13G15
  20310410.660    -1378064.124 7  -1073818.70222        27.000           2.000
  19737801.879       75277.367 7     49119.88922        20.000           1.906
  19626291.645   -23773697.978 7 -17616739.86321        25.000           1.313
  22937086.816    -6947378.786 5  -5380585.87421         9.000           0.281
 91  6 24 20  7 14.9960000  0  4G 2G 6G13G15
  20311877.051    -1370360.713 7  -1067816.05022        26.750           2.000
  19738692.629       79945.016 7     52757.01122        20.750           1.875
  19617535.418   -23819715.517 7 -17652597.66921        25.500           1.313
  22938343.316    -6940739.750 5  -5375412.62821         8.250           0.250
 91  6 24 20  7 29.9960000  0  4G 2G 6G13G15
  20313354.988    -1362597.292 7  -1061766.63722        26.500           2.063
  19739603.184       84736.179 7     56490.38322        20.000           1.781
  19608806.106   -23865594.381 7 -17688347.42721        26.000           1.344
  22939629.965    -6933965.681 5  -5370134.18121         9.250           0.219
 91  6 24 20  7 44.9960000  0  4G 2G 6G13G15
  20314842.809    -1354775.145 7  -1055671.46722        27.000           2.031
  19740543.184       89649.541 7     60318.96022        21.250           1.813
  19600099.871   -23911335.619 7 -17723989.93321        24.750           1.375
  22940953.379    -6927058.169 5  -5364751.71321         9.750           0.313
 91  6 24 20  7 59.9960000  0  4G 2G 6G13G15
  20316344.777    -1346894.157 7  -1049530.44322        27.250           1.969
  19741498.301       94685.190 7     64242.84622        21.000           1.813
  19591421.129   -23956939.024 7 -17759525.04121        24.750           1.375
  22942290.465    -6920017.139 5  -5359265.24621         9.750           0.313
 91  6 24 20  8 14.9960000  0  3G 2G 6G13
  20317854.816    -1338958.992 7  -1043347.20722        26.500           1.969
  19742477.816       99838.665 7     68258.53022        21.250           1.906
  19582768.676   -24002409.009 7 -17794956.18821        25.500           1.313
 91  6 24 20  8 29.9960000  0  3G 2G 6G13
  20319377.254    -1330964.698 7  -1037117.88322        26.750           1.969
  19743478.356      105115.025 7     72369.97822        20.500           1.844
  19574143.348   -24047740.379 7 -17830279.31821        25.500           1.344
 91  6 24 20  8 44.9960000  0  3G 2G 6G13
  20320904.527    -1322913.971 7  -1030844.59822        25.500           2.063
  19744509.590      110511.523 7     76575.03622        20.500           1.813
  19565542.840   -24092935.734 7 -17865496.46721        25.750           1.375
 91  6 24 20  8 59.9960000  0  3G 2G 6G13
  20322448.801    -1314808.203 7  -1024528.43222        26.500           2.156
  19745559.332      116026.650 7     80872.53122        21.000           1.719
  19556967.426   -24137996.525 7 -17900608.75721        26.250           1.313
 91  6 24 20  9 14.9960000  0  3G 2G 6G13
  20324006.113    -1306638.916 7  -1018162.75922        26.000           2.031
  19746627.004      121669.049 7     85269.19522        20.000           1.781
  19548421.473   -24182914.006 7 -17935609.38121        27.000           1.281
 91  6 24 20  9 29.9960000  0  3G 2G 6G13
  20325566.152    -1298413.747 7  -1011753.54922        25.000           2.031
  19747730.637      127430.910 7     89758.95522        21.750           1.844
  19539899.223   -24227695.745 7 -17970504.22921        26.250           1.344
 91  6 24 20  9 44.9960000  0  3G 2G 6G13
  20327146.231    -1290130.811 7  -1005299.32922        25.000           2.000
  19748847.441      133314.265 7     94343.37922        21.500           1.875
  19531403.082   -24272339.540 7 -18005291.58621        26.000           1.313
 91  6 24 20  9 59.9960000  0  4G 2G 6G13G12
  20328730.973    -1281793.437 7   -998802.68722        26.000           2.094
  19749990.902      139315.757 7     99019.86622        20.750           1.813
  19522933.254   -24316848.671 7 -18039974.01221        26.000           1.281
  22946127.379          -0.52815                         8.750
 91  6 24 20 10 14.9960000  0  4G 2G 6G13G12
  20330330.121    -1273398.246 7   -992260.98322        25.500           2.094
  19751153.574      145438.839 7    103791.09722        21.500           1.750
  19514488.957   -24361219.480 7 -18074548.66221        25.750           1.250
  22933651.074      -65577.244 5                         8.750
 91  6 24 20 10 29.9960000  0  3G 2G13G12
  20331937.535    -1264941.408 7   -985671.25322        25.750           2.188
  19506073.356   -24405448.208 7 -18109012.59521        26.250           1.344
  22921169.371     -131139.528 5                         8.500
 91  6 24 20 10 44.9960000  0  3G 2G13G12
  20333561.793    -1256427.252 7   -979036.85822        25.750           2.063
  19497681.012   -24449538.882 7 -18143368.95221        26.000           1.313
  22908696.332     -196691.429 5                         8.750
 91  6 24 20 10 59.9960000  0  3G 2G13G12
  20335191.402    -1247855.513 7   -972357.59522        26.250           2.156
  19489316.926   -24493491.136 7 -18177617.45421        25.750           1.406
  22896226.402     -262232.479 5                         8.750
 91  6 24 20 11 14.9960000  0  3G 2G13G12
  20336832.324    -1239226.996 7   -965634.08822        25.750           2.031
  19480982.262   -24537305.575 7 -18211758.55921        26.250           1.438
  22883752.731     -327763.130 5                         8.250
 91  6 24 20 11 29.9960000  0  3G 2G13G12
  20338484.715    -1230545.288 7   -958869.12822        25.250           2.063
  19472670.715   -24580985.727 7 -18245795.02921        26.500           1.406
  22871284.676     -393286.753 5                         8.250
 91  6 24 20 11 44.9960000  0  3G 2G13G12
  20340148.488    -1221802.026 7   -952056.20522        24.500           2.094
  19464385.441   -24624523.171 7 -18279720.29921        26.250           1.406
  22858821.059     -458794.908 5        -0.03931         8.500           0.250
 91  6 24 20 11 59.9960000  0  3G 2G13G12
  20341823.387    -1213000.756 7   -945198.08422        25.250           2.063
  19456126.426   -24667921.168 7 -18313536.90521        26.000           1.438
  22846354.238     -524290.723 5    -51035.68121         8.250           0.188
 91  6 24 20 12 14.9960000  0  3G 2G13G12
  20343507.543    -1204144.834 7   -938297.38422        25.250           2.125
  19447893.215   -24711182.886 7 -18347247.32521        25.500           1.406
  22833897.441     -589777.312 5   -102064.14421         8.500           0.281
 91  6 24 20 12 29.9960000  0  3G 2G13G12
  20345204.551    -1195236.767 7   -931356.03722        25.750           2.125
  19439685.410   -24754310.766 7 -18380853.45422        25.500           1.500
  22821435.324     -655257.020 5   -153087.25321         8.250           0.219
 91  6 24 20 12 44.9960000  0  3G 2G13G12
  20346908.238    -1186271.560 7   -924370.16922        24.750           2.125
  19431506.699   -24797299.531 7 -18414351.17622        25.750           1.531
  22808974.973     -720724.487 5   -204100.82421         8.000           0.313
 91  6 24 20 12 59.9960000  0  3G 2G13G12
  20348628.082    -1177244.720 7   -917336.28722        25.500           2.063
  19423354.887   -24840144.756 7 -18447737.05021        26.000           1.469
  22796523.363     -786174.921 5   -255101.12821         9.000           0.250
 91  6 24 20 13 14.9960000  0  3G 2G13G12
  20350353.746    -1168162.416 7   -910259.17422        25.000           2.094
  19415227.957   -24882852.152 7 -18481015.52821        26.500           1.469
  22784072.418     -851614.239 5   -306092.76621         9.000           0.250
 91  6 24 20 13 29.9960000  0  3G 2G13G12
  20352093.309    -1159026.983 7   -903140.65622        24.750           2.094
  19407123.809   -24925424.144 7 -18514188.50021        26.500           1.438
  22771625.621     -917044.649 5   -357077.44121         9.250           0.250
 91  6 24 20 13 44.9960000  0  3G 2G13G12
  20353842.387    -1149834.446 7   -895977.64622        24.250           2.000
  19399050.262   -24967856.467 7 -18547252.63321        26.500           1.438
  22759174.465     -982461.738 5   -408051.75221         9.000           0.219
 91  6 24 20 13 59.9960000  0  3G 2G13G12
  20355605.496    -1140586.460 7   -888771.43722        25.500           1.969
  19391000.879   -25010150.726 7 -18580209.18621        26.500           1.438
  22746723.598    -1047866.855 5   -459016.76421         8.500           0.125
 91  6 24 20 14 14.9960000  0  3G 2G13G12
  20357375.246    -1131281.095 7   -881520.51022        24.500           1.938
  19382979.965   -25052305.055 7 -18613056.71122        26.500           1.500
  22734280.527    -1113257.891 5   -509970.76521         8.250           0.219
 91  6 24 20 14 29.9960000  0  3G 2G13G12
  20359155.809    -1121918.057 7   -874224.64622        24.000           2.031
  19374983.629   -25094318.889 7 -18645794.75121        26.000           1.438
  22721840.465    -1178634.275 5   -560913.35821         8.500           0.219
 91  6 24 20 14 44.9960000  0  3G 2G13G12
  20360945.254    -1112495.157 7   -866882.13622        23.250           1.938
  19367018.762   -25136190.009 7 -18678421.58721        27.000           1.438
  22709403.129    -1243993.609 5   -611842.68121         9.000           0.281
 91  6 24 20 14 59.9960000  0  3G 2G13G12
  20362751.324    -1103016.023 7   -859495.81022        24.000           1.875
  19359075.926   -25177921.790 7 -18710939.84522        26.250           1.531
  22696968.973    -1309339.278 5   -662761.34021         9.750           0.281
 91  6 24 20 15 14.9960000  0  3G 2G13G12
  20364568.020    -1093483.059 7   -852067.53222        24.000           1.813
  19351161.074   -25219516.514 7 -18743351.31022        26.500           1.531
  22684532.645    -1374673.451 5   -713671.05921        10.000           0.313
 91  6 24 20 15 29.9960000  0  3G 2G13G12
  20366390.074    -1083891.279 7   -844593.43222        23.750           1.750
  19343273.559   -25260969.092 7 -18775652.00721        26.750           1.469
  22672109.223    -1439990.894 5   -764567.74421        10.250           0.281
 91  6 24 20 15 44.9960000  0  3G 2G13G12
  20368231.871    -1074239.687 7   -837072.71322        24.250           1.781
  19335414.285   -25302278.350 7 -18807841.02221        27.250           1.438
  22659671.801    -1505290.228 5   -815450.31521         9.500           0.313
 91  6 24 20 15 59.9960000  0  3G 2G13G12
  20370076.441    -1064531.365 7   -829507.80022        24.250           1.844
  19327578.856   -25343447.412 7 -18839920.80621        26.750           1.469
  22647254.332    -1570574.297 5   -866320.97521         9.750           0.375
 91  6 24 20 16 14.9960000  0  3G 2G13G12
  20371934.348    -1054771.028 7   -821902.35622        24.000           1.750
  19319770.551   -25384480.879 7 -18871894.92721        27.250           1.344
  22634832.801    -1635847.617 5   -917183.28821         9.500           0.188
 91  6 24 20 16 29.9960000  0  3G 2G13G12
  20373800.566    -1044953.281 7   -814252.18222        24.250           1.781
  19311987.309   -25425372.975 7 -18903758.88521        26.500           1.438
  22622422.426    -1701104.417 5   -968032.73521        10.500           0.156
 91  6 24 20 16 44.9960000  0  3G 2G13G12
  20375682.949    -1035078.086 7   -806557.22822        23.750           1.781
  19304233.145   -25466124.000 7 -18935512.92421        27.000           1.438
  22610006.043    -1766344.575 5  -1018869.16721        10.250           0.281
 91  6 24 20 16 59.9960000  0  3G 2G13G12
  20377570.371    -1025147.443 7   -798819.08122        23.500           1.813
  19296503.449   -25506735.501 7 -18967158.23621        26.750           1.375
  22597591.559    -1831569.808 5  -1069693.99421        10.500           0.250
 91  6 24 20 17 14.9960000  0  3G 2G13G12
  20379468.504    -1015166.075 7   -791041.40522        23.000           1.688
  19288802.293   -25547211.937 7 -18998698.31021        27.500           1.406
  22585181.629    -1896784.420 5  -1120510.55921        10.500           0.344
 91  6 24 20 17 29.9960000  0  3G 2G13G12
  20381380.465    -1005127.276 7   -783218.97022        22.500           1.875
  19281128.926   -25587546.771 8 -19030128.04121        28.000           1.375
  22572776.168    -1961981.525 5  -1171313.46521        10.500           0.281
 91  6 24 20 17 44.9960000  0  3G 2G13G12
  20383301.473     -995033.312 7   -775353.55822        23.500           1.750
  19273479.410   -25627742.177 7 -19061449.13021        27.500           1.375
  22560367.613    -2027162.949 5  -1222104.14021        10.250           0.313
 91  6 24 20 17 59.9960000  0  3G 2G13G12
  20385232.824     -984885.780 7   -767446.39022        23.500           1.719
  19265856.277   -25667799.439 7 -19092662.57221        27.000           1.375
  22547972.410    -2092330.001 5  -1272883.64621        10.250           0.250
 91  6 24 20 18 14.9960000  0  3G 2G13G12
  20387173.293     -974684.040 7   -759497.00222        23.750           1.781
  19258261.348   -25707718.048 7 -19123767.97121        27.500           1.438
  22535575.426    -2157482.025 5  -1323651.41721        10.000           0.281
 91  6 24 20 18 29.9960000  0  3G 2G13G12
  20389124.473     -964426.737 7   -751504.30222        24.500           1.750
  19250688.981   -25747496.420 7 -19154764.09721        26.750           1.438
  22523178.262    -2222617.246 5  -1374406.10621        10.250           0.313
 91  6 24 20 18 44.9960000  0  3G 2G13G12
  20391085.848     -954113.486 7   -743468.01222        23.750           1.750
  19243146.879   -25787134.029 7 -19185650.53721        27.000           1.406
  22510786.270    -2287734.990 5  -1425147.18421        10.000           0.281
 91  6 24 20 18 59.9950000  0  3G 2G13G12
  20393059.413     -943744.371 7   -735388.19221        23.750           1.469
  19235631.007   -25826627.590 7 -19216424.73021        26.750           1.406
  22498396.773    -2352830.120 5  -1475870.61321         9.750           0.438
 91  6 24 20 19 14.9950000  0  3G 2G13G12
  20395044.437     -933318.838 7   -727264.40922        24.000           1.594
  19228141.601   -25865983.128 7 -19247091.37721        26.500           1.438
  22486010.929    -2417911.913 5  -1526583.66421         9.750           0.313
 91  6 24 20 19 29.9950000  0  3G 2G13G12
  20397039.515     -922838.025 7   -719097.56122        24.500           1.688
  19220680.648   -25905198.460 7 -19277648.76921        26.750           1.375
  22473633.679    -2482976.106 5  -1577283.01721        10.500           0.250
 91  6 24 20 19 44.9950000  0  3G 2G13G12
  20399043.601     -912305.990 7   -710890.78522        25.000           1.594
  19213242.983   -25944277.078 7 -19308099.63521        26.500           1.438
  22461256.116    -2548026.385 5  -1627971.52621         9.500           0.344
 91  6 24 20 19 59.9950000  0  3G 2G13G12
  20401057.983     -901723.297 7   -702644.54622        24.500           1.563
  19205834.023   -25983219.664 7 -19338444.49221        27.250           1.375
  22448870.812    -2613062.974 5  -1678649.34521         9.250           0.281
 91  6 24 20 20 14.9950000  0  3G 2G13G12
  20403079.991     -891085.340 7   -694355.24622        23.750           1.563
  19198448.976   -26022021.669 7 -19368679.81421        27.000           1.469
  22436501.741    -2678081.202 5  -1729312.88921        10.000           0.344
 91  6 24 20 20 29.9950000  0  3G 2G13G12
  20405119.296     -880392.629 7   -686023.26922        24.500           1.563
  19191092.624   -26060683.418 7 -19398805.85322        26.750           1.500
  22424132.140    -2743081.201 5  -1779962.21521        10.500           0.188
 91  6 24 20 20 44.9950000  0  3G 2G13G12
  20407162.148     -869640.841 7   -677645.26922        24.500           1.656
  19183762.554   -26099200.670 7 -19428819.28222        26.750           1.531
  22411772.929    -2808058.507 5  -1830593.83421        10.500           0.344
 91  6 24 20 20 59.9950000  0  3G 2G13G12
  20409220.788     -858829.859 7   -669221.14422        24.750           1.750
  19176460.577   -26137573.125 7 -19458719.89121        26.500           1.438
  22399412.171    -2873012.826 5  -1881207.53921        11.000           0.344
 91  6 24 20 21 14.9950000  0  3G 2G13G12
  20411289.757     -847964.322 7   -660754.50422        25.000           1.625
  19169185.624   -26175805.224 7 -19488511.12422        26.250           1.500
  22387054.655    -2937948.261 5  -1931806.55521        10.500           0.219
 91  6 24 20 21 29.9950000  0  3G 2G13G12
  20413365.452     -837045.050 7   -652245.99422        25.250           1.563
  19161936.624   -26213897.704 7 -19518193.56321        25.750           1.375
  22374697.507    -3002865.339 5  -1982391.25821        10.750           0.281
 91  6 24 20 21 44.9950000  0  3G 2G13G12
  20415454.757     -826074.121 7   -643697.23122        25.500           1.719
  19154713.296   -26251852.662 7 -19547768.84921        25.500           1.438
  22362353.296    -3067765.999 5  -2032963.17721        11.000           0.313
 91  6 24 20 21 59.9950000  0  3G 2G13G12
  20417551.116     -815045.036 7   -635103.14222        25.000           1.719
  19147518.562   -26289663.650 7 -19577231.94421        25.750           1.406
  22350005.499    -3132643.473 5  -2083517.00721        10.250           0.313
 91  6 24 20 22 14.9950000  0  3G 2G13G12
  20419661.632     -803954.388 7   -626461.10122        24.750           1.688
  19140351.538   -26327327.092 7 -19606580.07121        26.000           1.375
  22337664.718    -3197493.976 5  -2134049.84421        10.500           0.406
 91  6 24 20 22 29.9950000  0  3G 2G13G12
  20421780.812     -792813.939 7   -617780.23622        25.250           1.750
  19133211.351   -26364854.772 7 -19635822.42021        26.250           1.438
  22325322.319    -3262329.229 5  -2184570.80221         9.500           0.438
 91  6 24 20 22 44.9950000  0  3G 2G13G12
  20423914.101     -781620.472 7   -609058.06722        25.250           1.688
  19126095.452   -26402243.006 7 -19664956.09621        26.500           1.406
  22312987.546    -3327145.483 5  -2235076.93021         9.250           0.375
 91  6 24 20 22 59.9950000  0  3G 2G13G12
  20426052.093     -770370.017 7   -600291.49322        24.750           1.688
  19119007.530   -26439487.824 7 -19693978.02621        26.500           1.438
  22300660.523    -3391938.436 5  -2285564.91321        10.000           0.375
 91  6 24 20 23 14.9950000  0  3G 2G13G12
  20428204.843     -759065.503 7   -591482.79422        24.000           1.656
  19111947.163   -26476592.257 7 -19722890.56222        27.250           1.531
  22288331.030    -3456710.804 5  -2336036.83121         9.750           0.375
 91  6 24 20 23 29.9950000  0  3G 2G13G12
  20430367.413     -747704.072 7   -582629.74822        24.250           1.719
  19104914.007   -26513553.220 7 -19751691.30421        27.250           1.375
  22276014.366    -3521459.486 5  -2386490.31621        10.250           0.344
 91  6 24 20 23 44.9950000  0  3G 2G13G12
  20432539.085     -736286.084 7   -573732.62622        24.500           1.500
  19097906.741   -26550371.155 7 -19780380.59621        26.750           1.406
  22263694.804    -3586184.543 5  -2436925.36221        10.250           0.469
 91  6 24 20 23 59.9950000  0  3G 2G13G12
  20434721.921     -724805.394 7   -564786.64222        23.750           1.531
  19090928.913   -26587039.739 7 -19808953.50222        26.500           1.500
  22251382.187    -3650879.476 5  -2487336.95021         9.750           0.469
 91  6 24 20 24 14.9950000  0  3G 2G13G12
  20436918.687     -713272.915 7   -555800.31422        24.250           1.594
  19083977.882   -26623569.978 7 -19837418.62421        26.750           1.375
  22239081.179    -3715555.023 5  -2537733.43721        10.250           0.375
 91  6 24 20 24 29.9950000  0  3G 2G13G12
  20439123.624     -701683.985 7   -546769.98822        24.250           1.563
  19077052.523   -26659957.012 7 -19865772.14921        26.250           1.469
  22226774.499    -3780206.168 5  -2588110.92221        10.750           0.406
 91  6 24 20 24 44.9950000  0  3G 2G13G12
  20441338.093     -690041.681 7   -537698.07722        23.750           1.563
  19070156.069   -26696203.731 7 -19894016.33521        26.250           1.469
  22214479.421    -3844835.636 5  -2638471.51521        10.750           0.406
 91  6 24 20 24 59.9950000  0  3G 2G13G12
  20443565.077     -678346.296 7   -528584.80522        23.500           1.594
  19063285.890   -26732310.675 7 -19922151.61021        26.750           1.406
  22202183.812    -3909443.613 5  -2688815.34921        10.500           0.406
 91  6 24 20 25 14.9950000  0  3G 2G13G12
  20445803.780     -666590.544 7   -519424.50321        24.250           1.375
  19056440.968   -26768270.160 7 -19950171.98321        26.000           1.375
  22189894.358    -3974022.387 5  -2739136.44321        10.500           0.406
 91  6 24 20 25 29.9950000  0  3G 2G13G12
  20448046.905     -654782.943 7   -510223.78821        23.250           1.438
  19049625.866   -26804090.672 7 -19978084.05321        26.750           1.438
  22177612.046    -4038580.277 5  -2789441.27721        10.750           0.344
 91  6 24 20 25 44.9950000  0  3G 2G13G12
  20450306.812     -642915.015 7   -500976.07222        23.250           1.500
  19042836.569   -26839763.615 7 -20005881.14521        27.000           1.344
  22165330.312    -4103108.413 5  -2839722.89421        11.000           0.438
 91  6 24 20 25 59.9950000  0  3G 2G13G12
  20452574.280     -630991.180 7   -491684.78621        23.500           1.375
  19036075.968   -26875293.698 7 -20033566.91621        26.500           1.406
  22153056.101    -4167610.990 5  -2889984.61521        11.500           0.188
 91  6 24 20 26 14.9950000  0  3G 2G13G12
  20454853.265     -619019.969 7   -482356.56821        23.250           1.438
  19029340.577   -26910689.468 7 -20061148.02921        26.750           1.344
  22140784.163    -4232096.267 5  -2940232.84621        11.500           0.313
 91  6 24 20 26 29.9950000  0  3G 2G13G12
  20457143.366     -606984.608 7   -472978.38222        22.750           1.500
  19022633.132   -26945933.906 7 -20088611.21721        26.500           1.406
  22128523.733    -4296547.226 5  -2990454.34321        11.750           0.375
 91  6 24 20 26 44.9950000  0  3G 2G13G12
  20459446.733     -594893.244 7   -463556.55322        24.000           1.500
  19015954.343   -26981035.134 7 -20115962.82021        26.750           1.281
  22116258.421    -4360971.674 5  -3040655.17821        11.500           0.313
 91  6 24 20 26 59.9950000  0  3G 2G13G12
  20461754.593     -582749.734 7   -454094.08021        23.500           1.438
  19009302.429   -27015996.621 7 -20143205.52721        26.750           1.313
  22104006.765    -4425373.003 6  -3090837.98621        12.000           0.313
 91  6 24 20 27 14.9950000  0  3G 2G13G12
  20464079.116     -570549.373 7   -444587.31222        24.500           1.563
  19002675.069   -27050813.885 7 -20170335.85321        26.500           1.250
  22091752.288    -4489746.523 6  -3140999.14821        12.000           0.313
 91  6 24 20 27 29.9950000  0  3G 2G13G12
  20466409.593     -558298.403 7   -435041.11121        23.000           1.375
  18996077.702   -27085492.851 7 -20197358.42021        27.250           1.313
  22079511.648    -4554097.974 6  -3191143.10221        12.000           0.375
 91  6 24 20 27 44.9950000  0  3G 2G13G12
  20468752.218     -545988.260 7   -425448.80421        23.250           1.469
  18989505.202   -27120025.247 7 -20224266.76721        26.500           1.406
  22067273.054    -4618418.529 6  -3241262.97221        12.000           0.344
 91  6 24 20 27 59.9950000  0  3G 2G13G12
  20471107.452     -533623.461 7   -415813.91222        23.000           1.531
  18982959.038   -27154415.482 7 -20251064.34721        26.250           1.313
  22055034.819    -4682712.545 5  -3291362.16021        11.500           0.438
 91  6 24 20 28 14.9950000  0  3G 2G13G12
  20473466.523     -521204.299 7   -406136.65121        23.000           1.469
  18976443.944   -27188663.668 7 -20277751.23921        27.000           1.281
  22042804.663    -4746979.882 5  -3341440.56721        11.750           0.375
 91  6 24 20 28 29.9950000  0  3G 2G13G12
  20475843.483     -508728.763 7   -396415.46721        23.500           1.344
  18969955.312   -27222767.626 7 -20304325.74121        27.250           1.406
  22030578.702    -4811218.188 5  -3391496.34521        11.750           0.438
 91  6 24 20 28 44.9950000  0  3G 2G13G12
  20478227.437     -496195.007 7   -386648.92321        23.000           1.375
  18963492.210   -27256725.651 7 -20330786.53521        27.500           1.344
  22018366.468    -4875425.402 5  -3441527.91221        11.500           0.375
 91  6 24 20 28 59.9950000  0  3G 2G13G12
  20480623.608     -483601.108 7   -376835.51421        22.000           1.469
  18957058.429   -27290535.733 7 -20357132.04221        27.500           1.313
  22006149.663    -4939599.176 5  -3491533.41721        11.750           0.344
 91  6 24 20 29 14.9950000  0  3G 2G13G12
  20483030.858     -470952.126 7   -366979.18021        23.250           1.438
  18950652.523   -27324202.947 7 -20383366.22321        27.750           1.219
  21993944.468    -5003744.332 5  -3541516.60821        11.250           0.406
 91  6 24 20 29 29.9950000  0  3G 2G13G12
  20485446.101     -458248.401 7   -357080.18421        22.750           1.438
  18944273.460   -27357727.649 8 -20409489.36121        28.250           1.219
  21981739.233    -5067861.021 5  -3591477.64021        11.500           0.469
 91  6 24 20 29 44.9950000  0  3G 2G13G12
  20487873.616     -445496.988 7   -347144.03021        22.000           1.438
  18937918.187   -27391116.757 8 -20435506.84021        28.250           1.188
  21969544.827    -5131955.871 5  -3641421.64621        11.750           0.438
 91  6 24 20 29 59.9950000  0  3G 2G13G12
  20490314.382     -432686.923 7   -337162.18022        22.750           1.531
  18931593.874   -27424359.220 8 -20461410.05321        28.000           1.313
  21957356.280    -5196017.632 5  -3691339.86921        11.500           0.500
 91  6 24 20 30 14.9950000  0  3G 2G13G12
  20492762.366     -419823.541 7   -327138.77321        23.750           1.406
  18925293.413   -27457460.469 7 -20487203.22121        27.750           1.281
  21945170.358    -5260051.472 6  -3741236.34121        12.000           0.469
 91  6 24 20 30 29.9950000  0  3G 2G13G12
  20495218.077     -406901.635 7   -317069.76021        23.000           1.375
  18919021.991   -27490415.252 7 -20512882.27121        27.500           1.313
  21932992.265    -5324051.739 6  -3791106.63721        12.000           0.469
 91  6 24 20 30 44.9950000  0  3G 2G13G12
  20497686.304     -393928.381 7   -306960.73321        22.250           1.344
  18912778.898   -27523230.790 8 -20538452.81121        28.250           1.188
  21920820.554    -5388025.386 6  -3840956.20921        12.750           0.500
 91  6 24 20 30 59.9950000  0  3G 2G13G12
  20500167.999     -380900.636 7   -296809.24821        22.750           1.375
  18906559.640   -27555904.078 8 -20563912.51421        28.000           1.219
  21908652.124    -5451969.083 6  -3890782.43021        12.750           0.469
 91  6 24 20 31 14.9950000  0  3G 2G13G12
  20502656.023     -367813.549 7   -286611.52421        22.250           1.344
  18900371.304   -27588429.800 8 -20589257.22221        28.250           1.188
  21896489.632    -5515877.403 6  -3940581.08521        12.750           0.500
 91  6 24 20 31 29.9950000  0  3G 2G13G12
  20505158.062     -354673.104 7   -276372.22621        22.750           1.375
  18894209.788   -27620814.204 8 -20614491.81721        28.000           1.219
  21884334.046    -5579756.166 6  -3990356.71521        13.000           0.469
 91  6 24 20 31 44.9950000  0  3G 2G13G12
  20507669.687     -341469.874 7   -266084.00821        22.750           1.313
  18888074.968   -27653047.450 8 -20639608.62421        28.000           1.250
  21872185.187    -5643595.569 6  -4040101.67721        13.500           0.500
 91  6 24 20 31 59.9950000  0  3G 2G13G12
  20510194.296     -328213.577 7   -255754.44221        23.250           1.406
  18881969.054   -27685139.340 8 -20664615.27921        28.000           1.219
  21860044.507    -5707405.099 6  -4089823.37621        13.500           0.563
 91  6 24 20 32 14.9950000  0  3G 2G13G12
  20512725.491     -314901.374 7   -245381.31221        22.500           1.406
  18875888.483   -27717087.175 8 -20689509.69121        28.250           1.219
  21847905.460    -5771181.669 6  -4139519.36621        13.250           0.594
 91  6 24 20 32 29.9950000  0  3G 2G13G12
  20515272.038     -301533.183 7   -234964.55621        21.750           1.438
  18869836.991   -27748890.756 7 -20714291.69221        27.750           1.281
  21835777.210    -5834924.809 6  -4189189.32021        13.500           0.500
 91  6 24 20 32 44.9950000  0  3G 2G13G12
  20517825.960     -288107.839 7   -224503.26422        21.000           1.500
  18863812.194   -27780548.970 8 -20738960.42321        28.000           1.281
  21823654.405    -5898633.061 6  -4238832.08821        13.750           0.531
 91  6 24 20 32 59.9950000  0  3G 2G13G12
  20520389.788     -274625.746 7   -213997.75721        21.500           1.438
  18857814.741   -27812062.001 7 -20763516.02221        27.750           1.375
  21811539.179    -5962306.366 6  -4288447.61621        13.500           0.469
 91  6 24 20 33 14.9950000  0  3G 2G13G12
  20522964.429     -261094.325 7   -203453.81022        21.750           1.656
  18851843.757   -27843437.660 7 -20787964.57821        27.250           1.219
  21799426.226    -6025951.986 6  -4338041.57521        13.250           0.594
 91  6 24 20 33 29.9950000  0  3G 2G13G12
  20525553.460     -247506.477 7   -192865.89822        22.250           1.563
  18845901.812   -27874668.528 7 -20812300.30921        27.500           1.281
  21787317.382    -6089562.634 6  -4387608.28021        13.000           0.469
 91  6 24 20 33 44.9950000  0  3G 2G13G12
  20528148.929     -233861.369 7   -182233.37421        21.000           1.469
  18839986.499   -27905754.045 8 -20836522.78421        28.250           1.250
  21775221.148    -6153137.329 6  -4437146.97821        13.250           0.469
 91  6 24 20 33 59.9950000  0  3G 2G13G12
  20530756.335     -220156.441 7   -171554.23721        21.250           1.406
  18834099.577   -27936691.238 7 -20860629.68321        27.500           1.219
  21763136.694    -6216672.889 6  -4486655.18621        13.750           0.594
 91  6 24 20 34 14.9950000  0  3G 2G13G12
  20533373.991     -206398.473 7   -160833.77321        21.500           1.469
  18828240.882   -27967487.112 8 -20884626.45721        28.250           1.156
  21751047.124    -6280175.962 6  -4536138.06121        13.000           0.469
 91  6 24 20 34 29.9950000  0  3G 2G13G12
  20536002.358     -192587.106 7   -150071.69721        23.250           1.406
  18822405.187   -27998141.160 7 -20908512.71521        27.250           1.094
  21738972.702    -6343645.703 6  -4585594.96921        13.500           0.563
 91  6 24 20 34 44.9950000  0  3G 2G13G12
  20538643.241     -178719.327 7   -139265.65221        21.750           1.438
  18816600.108   -28028650.283 8 -20932286.05821        28.000           1.156
  21726900.663    -6407078.767 6  -4635023.29721        13.750           0.531
 91  6 24 20 34 59.9950000  0  3G 2G13G12
  20541291.671     -164796.771 7   -128416.94221        22.500           1.438
  18810819.593   -28059016.444 7 -20955947.98921        26.500           1.156
  21714832.483    -6470476.700 6  -4684424.25021        13.750           0.594
 91  6 24 20 35 14.9950000  0  3G 2G13G12
  20543950.562     -150819.952 7   -117525.91321        22.250           1.344
  18805069.351   -28089240.101 7 -20979498.88521        27.250           1.156
  21702778.429    -6533839.576 6  -4733797.89521        14.250           0.438
 91  6 24 20 35 29.9950000  0  3G 2G13G12
  20546620.812     -136794.671 7   -106597.12721        22.250           1.344
  18799344.554   -28119326.760 7 -21002943.02121        27.500           1.219
  21690725.398    -6597172.811 6  -4783148.44521        13.750           0.563
 91  6 24 20 35 44.9950000  0  3G 2G13G12
  20549298.085     -122710.008 7    -95622.05221        22.000           1.406
  18793648.116   -28149265.666 7 -21026272.03021        27.750           1.125
  21678678.663    -6660465.217 6  -4832467.15921        14.000           0.469
 91  6 24 20 35 59.9950000  0  3G 2G13G12
  20551989.319     -108575.985 7    -84608.52221        21.500           1.406
  18787977.874   -28179066.759 8 -21049493.65121        28.000           1.063
  21666644.421    -6723726.529 6  -4881761.67621        14.000           0.500
 91  6 24 20 36 14.9950000  0  3G 2G13G12
  20554691.780      -94381.661 7    -73548.01121        21.500           1.438
  18782332.483   -28208719.054 7 -21072599.33121        27.750           1.156
  21654613.499    -6786945.336 6  -4931023.06521        14.000           0.656
 91  6 24 20 36 29.9950000  0  3G 2G13G12
  20557402.273      -80133.065 7    -62445.21721        21.500           1.438
  18776718.523   -28238228.640 8 -21095593.81021        28.000           1.188
  21642590.077    -6850127.382 6  -4980255.79021        13.750           0.625
 91  6 24 20 36 44.9950000  0  3G 2G13G12
  20560125.226      -65829.408 7    -51299.51421        22.500           1.375
  18771131.483   -28267594.865 7 -21118476.57321        27.750           1.188
  21630574.890    -6913271.602 6  -5029459.03721        14.250           0.500
 91  6 24 20 36 59.9950000  0  3G 2G13G12
  20562851.773      -51473.900 7    -40113.40021        20.250           1.344
  18765569.491   -28296820.706 8 -21141249.94521        28.000           1.219
  21618567.421    -6976380.871 6  -5078635.06821        15.250           0.531
 91  6 24 20 37 14.9950000  0  3G 2G13G12
  20565594.991      -37067.038 7    -28887.29021        21.250           1.344
  18760033.944   -28325906.726 8 -21163914.37321        28.250           1.156
  21606561.030    -7039455.562 6  -5127784.14421        14.750           0.594
 91  6 24 20 37 29.9950000  0  3G 2G13G12
  20568347.288      -22605.920 7    -17618.89221        21.000           1.313
  18754527.444   -28354850.339 8 -21186467.82221        28.500           1.125
  21594566.577    -7102492.516 6  -5176903.81321        14.500           0.531
 91  6 24 20 37 44.9950000  0  3G 2G13G12
  20571111.390       -8089.438 7     -6307.36421        21.750           1.281
  18749045.968   -28383650.229 8 -21208909.29721        28.000           1.094
  21582576.913    -7165490.171 6  -5225992.86721        14.750           0.531
 91  6 24 20 37 59.9950000  0  3G 2G13G12
  20573883.023        6476.945 7      5043.06021        21.750           1.313
  18743590.937   -28412311.860 8 -21231243.02321        28.000           1.125
  21570598.077    -7228453.734 6  -5275055.34621        15.000           0.531
 91  6 24 20 38 14.9950000  0  3G 2G13G12
  20576666.140       21099.473 7     16437.21521        22.250           1.156
  18738164.499   -28440828.848 8 -21253464.04121        28.250           1.188
  21558624.202    -7291376.572 6  -5324086.10321        15.500           0.438
 91  6 24 20 38 29.9950000  0  3G 2G13G12
  20579459.444       35774.880 7     27872.60021        22.250           1.281
  18732765.429   -28469204.582 8 -21275574.99721        28.750           1.156
  21546657.108    -7354261.583 6  -5373087.41521        15.000           0.406
 91  6 24 20 38 44.9950000  0  3G 2G13G12
  20582258.898       50499.826 7     39346.56021        20.750           1.313
  18727391.905   -28497442.657 8 -21297578.68321        29.000           1.125
  21534695.796    -7417111.961 6  -5422061.69321        15.000           0.531
 91  6 24 20 38 59.9950000  0  3G 2G13G12
  20585073.593       65285.782 7     50868.07721        20.250           1.219
  18722046.296   -28525531.392 8 -21319466.00421        29.000           1.125
  21522746.319    -7479915.730 6  -5470999.65021        15.250           0.563
 91  6 24 20 39 14.9950000  0  3G 2G13G12
  20587896.538       80117.903 7     62425.55121        20.250           1.313
  18716726.913   -28553485.650 8 -21341248.53221        29.000           1.125
  21510799.241    -7542687.443 6  -5519912.64821        15.500           0.531
 91  6 24 20 39 29.9950000  0  3G 2G13G12
  20590728.718       95004.467 7     74025.45521        20.750           1.281
  18711433.890   -28581297.100 8 -21362919.78221        28.750           1.031
  21498864.866    -7605418.531 6  -5568793.98421        15.500           0.563
 91  6 24 20 39 44.9950000  0  3G 2G13G12
  20593573.608      109944.057 7     85666.69221        21.250           1.156
  18706170.312   -28608966.966 8 -21384480.71621        29.000           1.125
  21486930.819    -7668109.863 6  -5617644.33821        14.750           0.531
 91  6 24 20 39 59.9950000  0  3G 2G13G12
  20596424.468      124933.401 7     97346.67421        21.250           1.188
  18700929.405   -28636498.888 8 -21405934.15121        28.500           1.031
  21475009.929    -7730764.664 6  -5666466.22521        15.000           0.563
 91  6 24 20 40 14.9950000  0  3G 2G13G12
  20599289.140      139977.015 7    109068.96121        21.000           1.250
  18695718.773   -28663888.228 8 -21427276.49221        29.250           1.125
  21463094.562    -7793378.011 6  -5715255.81721        14.750           0.656
 91  6 24 20 40 29.9950000  0  3G 2G13G12
  20602158.429      155072.449 7    120831.62821        20.500           1.250
  18690534.312   -28691137.501 8 -21448509.69221        29.250           1.063
  21451190.491    -7855952.083 6  -5764014.80121        15.250           0.531
 91  6 24 20 40 44.9950000  0  3G 2G13G12
  20605045.124      170226.298 7    132639.79721        20.500           1.281
  18685376.351   -28718240.118 8 -21469628.60821        29.000           1.188
  21439286.593    -7918480.080 6  -5812737.87521        14.750           0.594
 91  6 24 20 40 59.9950000  0  3G 2G13G12
  20607938.015      185432.966 7    144489.13221        20.750           1.281
  18680244.296   -28745201.659 8 -21490637.59121        29.000           1.125
  21427396.015    -7980967.001 6  -5861428.95721        14.250           0.563
 91  6 24 20 41 14.9950000  0  3G 2G13G12
  20610840.437      200691.336 7    156378.76521        21.000           1.250
  18675141.788   -28772023.281 8 -21511537.54221        29.000           1.156
  21415512.007    -8043413.763 6  -5910088.73821        14.000           0.656
 91  6 24 20 41 29.9950000  0  3G 2G13G12
  20613756.968      216003.734 7    168310.49421        20.500           1.188
  18670064.280   -28798702.696 8 -21532326.69421        29.250           1.250
  21403640.249    -8105817.713 6  -5958715.15121        15.000           0.531
 91  6 24 20 41 44.9940000  0  3G 2G13G12
  20616678.502      231363.891 7    180279.43421        20.750           1.313
  18665014.275   -28825243.535 8 -21553007.86221        29.250           1.125
  21391772.799    -8168179.664 6  -6007308.84221        15.750           0.531
 91  6 24 20 41 59.9940000  0  3G 2G13G12
  20619611.197      246776.668 7    192289.36521        20.750           1.250
  18659988.971   -28851646.473 8 -21573581.57221        28.750           1.219
  21379914.619    -8230504.605 6  -6055873.70721        16.000           0.656
 91  6 24 20 42 14.9940000  0  3G 2G13G12
  20622555.502      262245.153 7    204342.71721        20.750           1.219
  18654993.479   -28877905.476 8 -21594043.11821        29.250           1.188
  21368059.744    -8292783.984 6  -6104403.04621        15.250           0.656
 91  6 24 20 42 29.9940000  0  3G 2G13G12
  20625508.158      277766.224 7    216437.04521        20.250           1.125
  18650023.432   -28904024.130 8 -21614395.31021        30.000           1.250
  21356215.994    -8355020.832 6  -6152899.26521        15.750           0.625
 91  6 24 20 42 44.9940000  0  3G 2G13G12
  20628472.807      293341.043 6    228573.24421        19.500           1.125
  18645079.166   -28930001.106 8 -21634637.10021        29.500           1.094
  21344382.486    -8417213.501 6  -6201361.05921        15.750           0.688
 91  6 24 20 42 59.9940000  0  3G 2G13G12
  20631447.768      308969.664 7    240751.37821        20.250           1.188
  18640162.775   -28955836.399 8 -21654768.49421        29.250           1.156
  21332554.346    -8479361.562 6  -6249788.08821        15.500           0.656
 91  6 24 20 43 14.9940000  0  3G 2G13G12
  20634426.807      324645.148 6    252966.02421        19.750           1.094
  18635272.369   -28981536.846 8 -21674794.80621        29.750           1.125
  21320736.705    -8541471.735 6  -6298185.58921        15.500           0.688
 91  6 24 20 43 29.9940000  0  3G 2G13G12
  20637422.190      340370.416 6    265219.45921        19.750           1.000
  18630407.150   -29007099.486 8 -21694713.74721        29.500           1.156
  21308925.494    -8603540.723 6  -6346550.99821        16.250           0.688
 91  6 24 20 43 44.9940000  0  3G 2G13G12
  20640424.877      356150.804 7    277515.84321        20.750           1.156
  18625569.291   -29032519.151 8 -21714521.27021        28.750           1.094
  21297123.838    -8665562.850 6  -6394879.88521        16.250           0.656
 91  6 24 20 43 59.9940000  0  3G 2G13G12
  20643437.885      371987.505 7    289856.10821        20.000           1.125
  18620760.158   -29057794.467 8 -21734216.32121        29.250           1.125
  21285331.627    -8727536.430 6  -6443170.96421        16.750           0.719
 91  6 24 20 44 14.9940000  0  3G 2G13G12
  20646460.768      387879.041 7    302239.10321        20.500           1.094
  18615976.861   -29082927.351 8 -21753800.37421        29.000           1.188
  21273544.705    -8789462.895 6  -6491425.33521        16.500           0.688
 91  6 24 20 44 29.9940000  0  3G 2G13G12
  20649497.674      403823.073 7    314663.01621        21.250           1.219
  18611222.572   -29107919.985 8 -21773275.15121        29.000           1.250
  21261770.705    -8851344.101 6  -6539644.43921        16.250           0.688
 91  6 24 20 44 44.9940000  0  3G 2G13G12
  20652540.260      419816.518 7    327125.41721        20.750           1.156
  18606491.385   -29132775.682 8 -21792643.21121        28.750           1.063
  21250001.549    -8913182.937 6  -6587830.51121        16.500           0.750
 91  6 24 20 44 59.9940000  0  3G 2G13G12
  20655594.768      435861.249 7    339627.79821        20.250           1.125
  18601788.783   -29157492.280 8 -21811902.89021        29.000           1.125
  21238243.244    -8974977.050 6  -6635981.73921        16.750           0.719
 91  6 24 20 45 14.9940000  0  3G 2G13G12
  20658656.447      451962.179 6    352173.95421        19.250           1.188
  18597113.119   -29182065.045 8 -21831050.48621        30.000           1.094
  21226496.361    -9036721.263 6  -6684094.09121        16.500           0.781
 91  6 24 20 45 29.9940000  0  3G 2G13G12
  20661730.525      468117.182 7    364762.25221        20.250           1.219
  18592462.775   -29206496.019 8 -21850087.60421        29.000           1.156
  21214755.393    -9098417.372 6  -6732168.95121        16.250           0.688
 91  6 24 20 45 44.9940000  0  3G 2G13G12
  20664815.033      484324.370 7    377391.22821        20.750           1.188
  18587841.002   -29230787.543 8 -21869016.05021        29.000           1.063
  21203022.932    -9160067.011 6  -6780207.60321        16.500           0.688
 91  6 24 20 45 59.9940000  0  3G 2G13G12
  20667911.721      500581.240 7    390058.90221        20.750           1.156
  18583243.635   -29254942.131 8 -21887837.80221        28.750           1.125
  21191299.518    -9221672.306 6  -6828211.71221        16.500           0.688
 91  6 24 20 46 14.9940000  0  3G 2G13G12
  20671012.088      516895.343 6    402771.18121        19.500           1.156
  18578674.963   -29278951.926 8 -21906546.73121        29.000           1.125
  21179585.041    -9283225.234 6  -6876174.99821        16.250           0.688
 91  6 24 20 46 29.9940000  0  3G 2G13G12
  20674127.775      533259.626 6    415522.55421        19.750           1.063
  18574131.182   -29302824.123 8 -21925148.43221        29.250           1.156
  21167881.682    -9344732.551 6  -6924102.75221        16.750           0.813
 91  6 24 20 46 44.9940000  0  3G 2G13G12
  20677251.846      549681.916 6    428319.14021        19.250           1.063
  18569616.502   -29326551.013 8 -21943636.92021        29.000           1.125
  21156189.135    -9406186.182 6  -6971988.67721        16.750           0.719
 91  6 24 20 46 59.9940000  0  3G 2G13G12
  20680387.213      566151.641 7    441152.66421        20.250           1.000
  18565128.471   -29350143.023 8 -21962020.30521        29.250           1.125
  21144500.236    -9467596.117 6  -7019840.54021        16.250           0.688
 91  6 24 20 47 14.9940000  0  3G 2G13G12
  20683530.494      582673.779 6    454027.05121        19.750           1.000
  18560666.690   -29373595.497 8 -21980294.95321        29.750           1.094
  21132823.213    -9528957.276 6  -7067654.41921        16.250           0.719
 91  6 24 20 47 29.9940000  0  3G 2G13G12
  20686685.096      599249.038 6    466942.81221        19.500           1.031
  18556228.565   -29396907.580 8 -21998460.20721        29.500           1.094
  21121157.174    -9590268.492 6  -7115429.36121        16.500           0.813
 91  6 24 20 47 44.9940000  0  3G 2G13G12
  20689846.963      615870.824 6    479894.82921        19.000           1.125
  18551818.463   -29420085.983 8 -22016521.30721        29.500           1.125
  21109500.572    -9651536.038 6  -7163170.27621        16.000           0.844
 91  6 24 20 47 59.9940000  0  3G 2G13G12
  20693021.807      632544.961 6    492887.64321        19.250           1.031
  18547433.830   -29443124.913 8 -22034473.71021        29.250           1.000
  21097851.307    -9712753.785 6  -7210872.38121        16.500           0.750
 91  6 24 20 48 14.9940000  0  3G 2G13G12
  20696204.768      649272.965 6    505922.43521        19.750           0.969
  18543077.244   -29466023.209 8 -22052316.52521        29.250           1.156
  21086211.088    -9773920.013 6  -7258534.34021        16.250           0.750
 91  6 24 20 48 29.9940000  0  3G 2G13G12
  20699398.455      666055.092 6    518999.40721        19.250           0.969
  18538744.799   -29488780.387 8 -22070049.38221        29.000           1.063
  21074577.916    -9835033.993 6  -7306155.60621        16.250           0.781
 91  6 24 20 48 44.9940000  0  3G 2G13G12
  20702598.440      682884.498 6    532113.21021        18.250           1.000
  18534442.096   -29511403.597 8 -22087677.84821        29.250           1.063
  21062962.283    -9896102.205 6  -7353741.19621        17.000           0.844
 91  6 24 20 48 59.9940000  0  3G 2G13G12
  20705812.557      699772.860 6    545272.95821        19.250           0.969
  18530164.893   -29533881.070 8 -22105192.76321        29.250           1.031
  21051349.244    -9957112.666 6  -7401281.79821        16.250           0.844
 91  6 24 20 49 14.9940000  0  3G 2G13G12
  20709040.471      716715.238 6    558474.79221        19.500           1.000
  18525913.354   -29556217.866 8 -22122598.06121        29.000           1.094
  21039748.494   -10018069.935 6  -7448780.94421        16.500           1.000
 91  6 24 20 49 29.9940000  0  3G 2G13G12
  20712272.096      733708.922 6    571716.61721        18.750           0.969
  18521689.713   -29578416.594 8 -22139895.77021        29.500           1.031
  21028158.096   -10078976.206 6  -7496240.34021        16.500           0.844
 91  6 24 20 49 44.9940000  0  3G 2G13G12
  20715517.557      750757.373 6    585001.09721        18.750           1.156
  18517492.150   -29600474.179 8 -22157083.48821        29.750           1.156
  21016580.455   -10139828.024 6  -7543657.32721        16.500           0.906
 91  6 24 20 49 59.9940000  0  3G 2G13G12
  20718768.760      767860.788 6    598328.40821        18.250           1.031
  18513322.236   -29622390.138 8 -22174160.85321        30.250           1.094
  21005010.010   -10200624.832 6  -7591031.44421        16.250           0.844
 91  6 24 20 50 14.9940000  0  3G 2G13G12
  20722036.635      785017.615 6    611697.34921        18.250           1.031
  18509177.416   -29644166.233 8 -22191129.22721        29.750           1.063
  20993454.596   -10261367.762 6  -7638363.55421        16.750           0.875
 91  6 24 20 50 29.9940000  0  3G 2G13G12
  20725310.635      802229.751 6    625109.36821        17.500           1.063
  18505060.143   -29665800.524 8 -22207987.11421        29.500           1.094
  20981902.143   -10322054.560 6  -7685651.94921        17.000           0.875
 91  6 24 20 50 44.9940000  0  3G 2G13G12
  20728595.072      819496.982 6    638564.33821        17.000           1.063
  18500972.174   -29687293.542 8 -22224734.91121        30.250           1.094
  20970365.986   -10382685.060 6  -7732896.48121        16.500           0.906
 91  6 24 20 50 59.9940000  0  3G 2G13G12
  20731893.440      836821.049 6    652063.59321        17.000           0.969
  18496906.893   -29708643.519 8 -22241371.25121        29.250           1.094
  20958838.502   -10443257.255 6  -7780095.56421        17.500           0.938
 91  6 24 20 51 14.9940000  0  3G 2G13G12
  20735199.682      854199.705 6    665605.37921        18.250           0.938
  18492873.190   -29729852.757 8 -22257897.92421        29.750           1.000
  20947321.424   -10503772.883 6  -7827250.57721        16.750           0.938
 91  6 24 20 51 29.9940000  0  3G 2G13G12
  20738519.815      871635.163 6    679191.43521        18.750           0.969
  18488861.807   -29750919.186 8 -22274313.31621        28.750           1.094
  20935817.721   -10564229.451 6  -7874359.57221        16.750           0.906
 91  6 24 20 51 44.9940000  0  3G 2G13G12
  20741842.924      889122.053 6    692817.55221        18.000           1.094
  18484881.666   -29771848.144 8 -22290621.59021        29.500           0.969
  20924326.650   -10624632.235 6  -7921426.65521        17.250           0.906
 91  6 24 20 51 59.9940000  0  3G 2G13G12
  20745186.322      906668.667 6    706490.21321        19.500           1.125
  18480924.815   -29792631.311 8 -22306816.26621        28.500           1.063
  20912841.697   -10684972.308 6  -7968444.87221        17.000           0.906
 91  6 24 20 52 14.9940000  0  3G 2G13G12
  20748532.002      924265.987 6    720202.39021        17.500           1.063
  18476996.799   -29813277.919 8 -22322904.53521        29.250           1.031
  20901370.940   -10745258.420 6  -8015421.03221        18.000           0.906
 91  6 24 20 52 29.9940000  0  3G 2G13G12
  20751893.236      941920.272 6    733958.95521        18.250           1.000
  18473094.025   -29833781.745 8 -22338881.54121        29.000           1.125
  20889910.822   -10805483.991 6  -8062350.04321        18.500           0.844
 91  6 24 20 52 44.9940000  0  3G 2G13G12
  20755262.393      959625.084 6    747754.89621        18.750           0.938
  18469218.283   -29854149.329 8 -22354752.38021        28.750           1.000
  20878459.588   -10865655.069 6  -8109236.57721        18.000           1.031
 91  6 24 20 52 59.9940000  0  3G 2G13G12
  20758641.135      977385.961 6    761594.52521        18.750           1.031
  18465369.627   -29874374.978 8 -22370512.63021        29.250           1.000
  20867020.893   -10925765.561 6  -8156075.89221        18.000           0.969
 91  6 24 20 53 14.9940000  0  3G 2G13G12
  20762035.377      995202.929 6    775477.85921        19.500           1.031
  18461546.979   -29894458.909 8 -22386162.44421        29.250           1.094
  20855592.596   -10985815.231 6  -8202867.82321        18.250           0.875
 91  6 24 20 53 29.9940000  0  3G 2G13G12
  20765432.854     1013075.368 6    789404.41221        18.500           1.031
  18457752.549   -29914402.046 8 -22401702.54821        28.750           1.063
  20844177.447   -11045804.574 6  -8249612.75421        18.750           1.000
 91  6 24 20 53 44.9940000  0  3G 2G13G12
  20768847.221     1031001.379 6    803372.71221        17.750           1.031
  18453984.174   -29934206.242 8 -22417134.38721        29.000           1.094
  20832775.518   -11105735.024 6  -8296311.78121        18.750           1.000
 91  6 24 20 53 59.9940000  0  3G 2G13G12
  20772267.361     1048986.947 6    817387.39921        18.250           1.094
  18450244.088   -29953865.685 8 -22432453.42921        29.500           1.031
  20821382.205   -11165600.211 6  -8342959.94421        18.500           1.031
 91  6 24 20 54 14.9940000  0  3G 2G13G12
  20775699.690     1067026.997 6    831444.54621        18.000           1.063
  18446529.518   -29973385.745 8 -22447663.86021        29.750           1.000
  20809998.440   -11225404.858 6  -8389560.93821        17.750           0.906
 91  6 24 20 54 29.9940000  0  3G 2G13G12
  20779145.307     1085121.355 6    845544.03721        18.250           1.094
  18442840.604   -29992766.378 8 -22462765.65121        29.250           1.000
  20798629.815   -11285148.597 6  -8436114.48221        18.250           0.969
 91  6 24 20 54 44.9940000  0  3G 2G13G12
  20782597.729     1103271.907 6    859687.29521        18.250           1.094
  18439180.408   -30012005.952 8 -22477757.52221        29.500           1.000
  20787274.885   -11344829.347 6  -8482618.93621        18.500           0.938
 91  6 24 20 54 59.9940000  0  3G 2G13G12
  20786062.760     1121479.460 6    873874.98121        18.500           0.969
  18435544.854   -30031103.532 8 -22492638.74921        29.000           1.000
  20775930.510   -11404446.011 6  -8529073.44921        19.000           0.969
 91  6 24 20 55 14.9940000  0  3G 2G13G12
  20789539.440     1139745.127 6    888107.95121        18.500           0.969
  18431938.502   -30050058.183 8 -22507408.60521        29.000           1.094
  20764596.143   -11463997.108 6  -8575476.88521        18.500           0.969
 91  6 24 20 55 29.9940000  0  3G 2G13G12
  20793022.736     1158068.277 6    902385.69921        17.000           0.969
  18428358.119   -30068870.651 8 -22522067.67021        29.500           1.063
  20753277.775   -11523482.977 6  -8621829.49221        18.750           0.938
 91  6 24 20 55 44.9940000  0  3G 2G13G12
  20796522.619     1176447.110 6    916706.83421        17.500           0.906
  18424804.830   -30087542.754 8 -22536617.36121        29.250           1.031
  20741968.815   -11582905.064 6  -8668132.38621        18.250           1.000
 91  6 24 20 55 59.9940000  0  3G 2G13G12
  20800030.471     1194882.200 6    931071.82321        18.250           0.938
  18421278.182   -30106073.936 8 -22551057.23821        28.750           1.063
  20730675.221   -11642262.338 6  -8714384.78021        18.500           0.938
 91  6 24 20 56 14.9940000  0  3G 2G13G12
  20803547.541     1213366.677 6    945475.29321        18.750           0.938
  18417777.705   -30124471.287 8 -22565392.84521        28.500           0.969
  20719390.369   -11701561.370 6  -8760591.80221        19.000           0.969
 91  6 24 20 56 29.9940000  0  3G 2G13G12
  20807076.455     1231910.194 6    959924.76421        18.500           1.000
  18414303.385   -30142725.193 8 -22579616.65921        29.000           1.000
  20708121.580   -11760792.080 6  -8806745.58521        18.750           0.906
 91  6 24 20 56 44.9940000  0  3G 2G13G12
  20810616.971     1250511.558 6    974419.30721        18.500           0.875
  18410857.205   -30160836.866 8 -22593729.65221        28.750           0.969
  20696860.361   -11819955.189 6  -8852846.67721        19.250           0.969
 91  6 24 20 56 59.9940000  0  3G 2G13G12
  20814166.268     1269164.310 6    988953.90621        18.250           0.844
  18407435.666   -30178813.044 8 -22607737.06421        28.750           1.000
  20685614.463   -11879056.882 6  -8898899.91321        19.000           1.000
 91  6 24 20 57 14.9940000  0  3G 2G13G12
  20817728.518     1287875.972 6   1003534.39121        18.250           0.781
  18404042.596   -30196646.150 8 -22621632.98321        29.250           1.031
  20674379.963   -11938089.310 6  -8944899.19321        18.750           0.906
 91  6 24 20 57 29.9940000  0  3G 2G13G12
  20821297.330     1306646.644 6   1018160.86921        18.250           0.906
  18400676.025   -30214336.279 8 -22635417.49921        29.250           1.000
  20663162.018   -11997052.111 6  -8990844.21421        19.000           0.938
 91  6 24 20 57 44.9940000  0  3G 2G13G12
  20824882.807     1325472.179 6   1032830.10121        18.500           0.781
  18397335.815   -30231887.853 8 -22649094.05221        29.000           0.969
  20651950.033   -12055948.977 6  -9036737.85121        18.750           1.000
 91  6 24 20 57 59.9940000  0  3G 2G13G12
  20828474.416     1344356.430 6   1047545.07321        18.250           0.719
  18394023.315   -30249297.131 8 -22662659.71821        28.750           0.875
  20640760.596   -12114775.782 6  -9082576.89721        19.750           0.969
 91  6 24 20 58 14.9940000  0  3G 2G13G12
  20832077.697     1363295.081 6   1062302.45421        17.750           0.750
  18390736.916   -30266568.597 8 -22676118.00321        28.750           1.000
  20629577.166   -12173536.558 6  -9128364.49821        19.500           1.000
 91  6 24 20 58 29.9940000  0  3G 2G13G12
  20835690.674     1382291.185 6   1077104.58821        17.000           0.781
  18387476.869   -30283699.065 8 -22689466.41821        29.250           0.969
  20618406.752   -12232227.782 6  -9174097.90321        19.000           1.031
 91  6 24 20 58 44.9940000  0  3G 2G13G12
  20839317.971     1401342.761 6   1091949.93621        17.750           0.781
  18384242.971   -30300690.627 8 -22702706.59621        29.000           1.031
  20607249.830   -12290851.134 6  -9219778.40921        18.500           1.063
 91  6 24 20 58 59.9940000  0  3G 2G13G12
  20842954.440     1420451.352 6   1106839.73621        16.750           0.750
  18381037.963   -30317541.620 8 -22715837.23621        29.750           0.906
  20596109.736   -12349404.636 6  -9265404.49621        19.250           1.031
 91  6 24 20 59 14.9940000  0  3G 2G13G12
  20846601.854     1439617.934 6   1121774.72221        16.750           0.594
  18377856.471   -30334251.558 8 -22728857.96721        29.250           0.969
  20584981.525   -12407887.091 6  -9310975.22321        19.500           1.031
 91  6 24 20 59 29.9940000  0  3G 2G13G12
  20850256.643     1458836.696 6   1136750.36421        17.000           0.656
  18374704.229   -30350826.088 8 -22741773.18321        30.000           1.000
  20573866.135   -12466303.743 6  -9356494.66021        19.750           1.094
 91  6 24 20 59 44.9940000  0  3G 2G13G12
  20853928.893     1478113.769 6   1151771.44421        17.500           0.750
  18371576.643   -30367259.332 8 -22754578.30621        29.750           1.031
  20562759.666   -12524648.233 6  -9401957.88321        19.250           1.156
 91  6 24 20 59 59.9940000  0  3G 2G13G12
  20857606.666     1497451.971 6   1166840.14621        16.500           0.656
  18368476.057   -30383548.610 8 -22767271.26221        29.750           0.938
  20551674.166   -12582917.296 6  -9447362.32821        19.500           1.219
 91  6 24 21  0 14.9940000  0  3G 2G13G12
  20861295.143     1516846.668 6   1181952.87821        16.250           0.813
  18365403.072   -30399698.635 8 -22779855.69921        30.000           0.969
  20540598.416   -12641115.244 6  -9492711.35621        19.500           1.188
 91  6 24 21  0 29.9940000  0  3G 2G13G12
  20864999.557     1536292.875 6   1197105.74621        16.750           0.844
  18362355.650   -30415714.567 8 -22792335.64621        29.500           1.094
  20529536.963   -12699246.835 6  -9538008.67421        19.750           1.188
 91  6 24 21  0 44.9940000  0  3G 2G13G12
  20868709.525     1555793.238 6   1212300.81621        16.750           0.813
  18359333.643   -30431593.774 8 -22804709.05721        29.500           1.063
  20518488.846   -12757308.903 7  -9583251.82921        20.000           1.188
 91  6 24 21  0 59.9940000  0  3G 2G13G12
  20872430.861     1575349.060 6   1227539.08221        17.750           0.781
  18356337.885   -30447335.158 8 -22816975.07221        29.250           0.969
  20507451.744   -12815299.842 7  -9628439.54621        20.000           1.125
 91  6 24 21  1 14.9940000  0  3G 2G13G12
  20876163.713     1594961.126 6   1242821.18921        18.250           0.875
  18353369.072   -30462938.062 8 -22829133.17921        28.750           0.969
  20496431.557   -12873218.359 7  -9673570.83821        20.250           1.125
 91  6 24 21  1 29.9940000  0  3G 2G13G12
  20879905.432     1614629.631 6   1258147.27021        17.250           0.781
  18350426.119   -30478402.414 8 -22841183.31221        29.000           0.906
  20485423.236   -12931063.946 7  -9718645.30621        20.500           1.125
 91  6 24 21  1 44.9940000  0  3G 2G13G12
  20883660.221     1634357.377 6   1273519.52221        17.250           0.844
  18347510.338   -30493725.384 8 -22853123.29421        29.250           1.000
  20474429.690   -12988833.495 7  -9763660.52221        20.000           1.094
 91  6 24 21  1 59.9940000  0  3G 2G13G12
  20887422.947     1654138.386 6   1288933.26321        17.500           0.844
  18344620.674   -30508913.129 8 -22864957.90321        29.500           1.000
  20463450.385   -13046532.775 6  -9808620.97821        19.750           1.156
 91  6 24 21  2 14.9940000  0  3G 2G13G12
  20891199.893     1673975.819 6   1304390.98121        17.250           0.813
  18341756.729   -30523962.570 8 -22876684.73721        29.500           0.906
  20452486.150   -13104158.196 7  -9853523.87521        20.500           1.188
 91  6 24 21  2 29.9940000  0  3G 2G13G12
  20894982.986     1693864.100 6   1319888.31121        15.750           0.813
  18338917.979   -30538879.328 8 -22888308.18721        30.000           0.906
  20441532.135   -13161714.816 7  -9898373.16721        20.750           1.250
 91  6 24 21  2 44.9940000  0  3G 2G13G12
  20898778.471     1713808.813 6   1335429.61721        16.250           0.719
  18336107.057   -30553657.989 8 -22899824.02521        29.750           1.063
  20430592.549   -13219196.689 7  -9943164.22021        20.500           1.188
 91  6 24 21  2 59.9940000  0  3G 2G13G12
  20902585.924     1733808.945 6   1351014.10021        16.750           0.781
  18333319.002   -30568299.549 8 -22911233.02821        29.750           0.969
  20419670.947   -13276604.565 7  -9987897.61021        20.250           1.219
 91  6 24 21  3 14.9940000  0  3G 2G13G12
  20906402.268     1753867.311 6   1366643.98421        16.750           0.719
  18330560.783   -30582801.440 8 -22922533.20521        30.250           1.031
  20408758.604   -13333935.243 7 -10032570.84021        20.250           1.281
 91  6 24 21  3 29.9940000  0  3G 2G13G12
  20910227.338     1773979.120 6   1382315.49221        17.250           0.750
  18327826.830   -30597168.718 8 -22933728.48321        30.000           1.031
  20397862.979   -13391193.101 7 -10077187.33421        20.250           1.250
 91  6 24 21  3 44.9940000  0  3G 2G13G12
  20914068.549     1794148.500 6   1398031.87521        17.750           0.781
  18325117.518   -30611397.403 8 -22944815.76421        29.250           1.000
  20386984.229   -13448373.636 7 -10121743.57021        21.000           1.406
 91  6 24 21  3 59.9940000  0  3G 2G13G12
  20917915.885     1814374.869 6   1413792.65221        17.000           0.875
  18322436.854   -30625488.162 8 -22955795.57821        29.750           1.000
  20376114.135   -13505476.998 7 -10166239.67521        20.250           1.281
 91  6 24 21  4 14.9940000  0  3G 2G13G12
  20921772.025     1834657.783 6   1429597.48921        15.500           0.875
  18319780.572   -30639441.637 8 -22966668.41421        30.000           0.969
  20365263.986   -13562503.402 7 -10210675.81921        20.750           1.344
 91  6 24 21  4 29.9940000  0  3G 2G13G12
  20925646.455     1854991.894 6   1445442.22521        16.000           0.750
  18317150.932   -30653263.307 8 -22977438.54021        29.750           1.000
  20354426.619   -13619457.929 7 -10255055.94421        21.000           1.219
 91  6 24 21  4 44.9930000  0  3G 2G13G12
  20929526.380     1875384.113 6   1461332.23821        16.250           0.813
  18314547.614   -30666943.941 8 -22988098.77721        30.000           0.906
  20343602.700   -13676327.899 7 -10299370.19221        21.250           1.313
 91  6 24 21  4 59.9930000  0  3G 2G13G12
  20933416.997     1895834.103 6   1477267.27721        15.000           0.688
  18311970.528   -30680488.774 8 -22998653.19121        29.750           1.063
  20332796.185   -13733123.710 7 -10343626.65421        21.750           1.250
 91  6 24 21  5 14.9930000  0  3G 2G13G12
  20937319.685     1916339.257 6   1493245.27621        16.250           0.750
  18309417.982   -30693898.100 8 -23009102.02221        29.500           1.000
  20322003.216   -13789842.426 7 -10387823.04021        21.250           1.344
 91  6 24 21  5 29.9930000  0  3G 2G13G12
  20941231.935     1936900.245 6   1509266.80521        15.250           0.750
  18306891.989   -30707171.400 8 -23019444.85421        30.000           0.969
  20311221.497   -13846483.081 7 -10431958.60121        20.500           1.281
 91  6 24 21  5 44.9930000  0  3G 2G13G12
  20945153.849     1957512.438 6   1525328.21321        15.250           0.688
  18304392.724   -30720313.372 8 -23029685.35121        30.250           1.031
  20300461.333   -13903049.909 7 -10476036.62221        21.250           1.344
 91  6 24 21  5 59.9930000  0  3G 2G13G12
  20949088.982     1978184.558 6   1541436.31121        16.000           0.688
  18301918.169   -30733315.387 8 -23039816.79621        30.000           1.063
  20289711.872   -13959533.623 7 -10520049.88721        21.500           1.313
 91  6 24 21  6 14.9930000  0  3G 2G13G12
  20953030.372     1998910.772 6   1557586.60021        16.000           0.625
  18299469.544   -30746183.807 8 -23049844.14121        29.750           1.000
  20278978.841   -14015939.975 7 -10564002.87621        21.500           1.281
 91  6 24 21  6 29.9930000  0  3G 2G13G12
  20956983.583     2019690.434 6   1573778.53521        15.750           0.688
  18297044.950   -30758919.240 8 -23059767.85921        29.500           0.969
  20268258.044   -14072269.120 7 -10607895.69621        21.250           1.313
 91  6 24 21  6 44.9930000  0  3G 2G13G12
  20960950.044     2040522.265 6   1590011.08421        15.750           0.781
  18294646.966   -30771522.983 8 -23069588.95421        29.250           1.063
  20257553.364   -14128521.961 7 -10651729.07421        21.250           1.313
 91  6 24 21  6 59.9930000  0  3G 2G13G12
  20964922.997     2061409.246 6   1606286.62821        16.000           0.563
  18292274.442   -30783991.801 8 -23079304.92021        29.750           1.125
  20246863.122   -14184694.931 7 -10695500.20421        20.750           1.313
 91  6 24 21  7 14.9930000  0  3G 2G13G12
  20968910.911     2082353.653 6   1622606.94021        16.000           0.688
  18289928.872   -30796323.894 8 -23088914.34421        29.750           1.063
  20236189.325   -14240785.678 7 -10739207.24621        20.750           1.250
 91  6 24 21  7 29.9930000  0  3G 2G13G12
  20972905.724     2103354.545 6   1638971.23621        14.750           0.719
  18287606.497   -30808520.377 8 -23098418.09721        29.750           1.000
  20225535.099   -14296794.720 7 -10782850.64621        22.000           1.281
 91  6 24 21  7 44.9930000  0  3G 2G13G12
  20976913.966     2124412.735 6   1655380.17721        14.750           0.719
  18285313.794   -30820580.725 8 -23107815.77221        31.000           1.094
  20214889.607   -14352720.793 7 -10826429.38921        21.250           1.188
 91  6 24 21  7 59.9930000  0  3G 2G13G12
  20980932.888     2145528.125 6   1671833.70021        15.000           0.688
  18283042.989   -30832505.165 8 -23117107.54121        30.000           1.000
  20204261.614   -14408563.651 7 -10869943.28321        21.750           1.281
 91  6 24 21  8 14.9930000  0  3G 2G13G12
  20984958.255     2166694.502 6   1688326.95021        14.500           0.625
  18280799.153   -30844299.985 8 -23126298.31921        29.750           1.094
  20193653.357   -14464329.072 7 -10913396.84221        21.750           1.344
 91  6 24 21  8 29.9930000  0  3G 2G13G12
  20988999.122     2187916.476 6   1704863.52221        15.250           0.719
  18278579.849   -30855960.765 8 -23135384.64021        29.750           0.969
  20183055.661   -14520012.249 7 -10956786.31221        21.750           1.281
 91  6 24 21  8 44.9930000  0  3G 2G13G12
  20993047.841     2209195.718 6   1721444.72021        15.250           0.750
  18276387.747   -30867485.932 8 -23144365.29221        30.000           1.031
  20172475.630   -14575611.033 7 -11000110.02421        22.250           1.313
 91  6 24 21  8 59.9930000  0  3G 2G13G12
  20997109.700     2230527.175 6   1738066.59821        16.500           0.656
  18274217.919   -30878880.613 8 -23153244.26321        29.250           1.063
  20161914.208   -14631130.182 7 -11043371.68821        22.500           1.313
 91  6 24 21  9 14.9930000  0  3G 2G13G12
  21001176.497     2251906.632 6   1754725.88521        16.250           0.625
  18272073.747   -30890149.020 8 -23162024.84521        29.250           1.094
  20151361.083   -14686573.348 7 -11086574.13421        22.250           1.313
 91  6 24 21  9 29.9930000  0  3G 2G13G12
  21005258.411     2273338.806 6   1771426.25221        16.250           0.688
  18269954.599   -30901286.820 8 -23170703.65221        29.750           1.125
  20140826.278   -14741935.587 7 -11129713.52821        22.250           1.406
 91  6 24 21  9 44.9930000  0  3G 2G13G12
  21009344.161     2294827.034 6   1788170.29721        15.750           0.656
  18267860.599   -30912290.654 8 -23179278.06821        29.250           1.094
  20130306.919   -14797213.135 7 -11172786.92421        22.750           1.375
 91  6 24 21  9 59.9930000  0  3G 2G13G12
  21013443.653     2316373.790 6   1804959.95121        14.250           0.688
  18265792.161   -30923158.213 8 -23187746.29221        29.500           1.094
  20119805.044   -14852403.290 7 -11215792.22421        23.000           1.281
 91  6 24 21 10 14.9930000  0  3G 2G13G12
  21017553.958     2337970.245 6   1821788.32221        14.250           0.625
  18263748.255   -30933898.503 8 -23196115.36721        29.500           1.094
  20109315.091   -14907514.387 7 -11258735.92921        22.250           1.406
 91  6 24 21 10 29.9930000  0  3G 2G13G12
  21021674.146     2359617.780 6   1838656.51021        14.750           0.625
  18261729.614   -30944510.346 8 -23204384.33721        29.750           1.094
  20098846.310   -14962544.625 7 -11301616.61121        22.500           1.438
 91  6 24 21 10 44.9930000  0  3G 2G13G12
  21025804.903     2381319.531 6   1855566.93121        14.750           0.625
  18259735.716   -30954990.806 8 -23212550.93421        29.750           1.063
  20088388.927   -15017490.619 7 -11344431.64821        22.250           1.469
 91  6 24 21 10 59.9930000  0  3G 2G13G12
  21029941.692     2403071.454 6   1872516.44321        14.500           0.594
  18257766.247   -30965343.927 8 -23220618.30621        30.250           1.063
  20077949.396   -15072356.023 7 -11387183.89222        22.000           1.563
 91  6 24 21 11 14.9930000  0  3G 2G13G12
  21034090.286     2424872.793 6   1889504.47521        14.750           0.625
  18255819.208   -30975570.753 8 -23228587.26321        30.000           1.094
  20067523.349   -15127141.148 7 -11429873.57721        22.750           1.406
 91  6 24 21 11 29.9930000  0  3G 2G13G12
  21038248.013     2446720.635 6   1906528.75221        15.250           0.719
  18253896.911   -30985674.508 8 -23236460.31921        29.750           1.031
  20057110.466   -15181848.566 7 -11472502.72222        22.000           1.531
 91  6 24 21 11 44.9930000  0  3G 2G13G12
  21042417.560     2468618.365 6   1923591.89521        16.000           0.656
  18251997.685   -30995651.749 8 -23244234.78921        29.000           1.094
  20046716.075   -15236474.589 7 -11515068.43422        22.500           1.563
 91  6 24 21 11 59.9930000  0  3G 2G13G12
  21046594.857     2490567.202 6   1940694.85221        15.250           0.750
  18250123.317   -31005501.359 8 -23251909.81521        29.250           1.156
  20036339.161   -15291017.487 7 -11557569.38022        22.750           1.531
 91  6 24 21 12 14.9930000  0  3G 2G13G12
  21050775.357     2512565.220 6   1957836.11621        14.500           0.781
  18248274.200   -31015225.236 8 -23259486.86021        29.500           1.000
  20025973.325   -15345478.860 7 -11600006.80322        22.500           1.500
 91  6 24 21 12 29.9930000  0  3G 2G13G12
  21054971.442     2534613.573 6   1975016.62521        14.000           0.688
  18246447.653   -31024822.613 8 -23266965.34421        29.750           1.188
  20015628.333   -15399857.285 7 -11642379.58121        22.750           1.469
 91  6 24 21 12 44.9930000  0  3G 2G13G12
  21059177.755     2556708.131 6   1992233.13221        14.500           0.688
  18244643.263   -31034297.779 8 -23274348.58621        29.500           1.031
  20005292.692   -15454156.514 7 -11684690.65021        22.000           1.406
 91  6 24 21 12 59.9930000  0  3G 2G13G12
  21063390.036     2578851.325 6   2009487.53721        14.750           0.656
  18242863.583   -31043648.324 8 -23281634.72521        28.750           1.031
  19994977.888   -15508373.542 7 -11726937.67521        22.750           1.438
 91  6 24 21 13 14.9930000  0  3G 2G13G12
  21067613.427     2601042.736 6   2026779.49821        14.000           0.594
  18241108.286   -31052874.972 8 -23288824.32921        29.000           1.125
  19984676.692   -15562508.498 7 -11769120.74021        22.750           1.469
 91  6 24 21 13 29.9930000  0  3G 2G13G12
  21071845.107     2623280.232 6   2044107.39021        14.250           0.500
  18239376.169   -31061980.072 8 -23295919.20521        29.000           1.031
  19974386.364   -15616563.180 7 -11811241.25322        21.750           1.500
 91  6 24 21 13 44.9930000  0  3G 2G13G12
  21076085.997     2645563.574 6   2061471.01521        14.500           0.531
  18237666.630   -31070964.037 8 -23302919.71121        29.000           0.969
  19964118.005   -15670537.442 7 -11853299.10622        22.750           1.594
 91  6 24 21 13 59.9930000  0  3G 2G13G12
  21080337.544     2667896.495 6   2078873.24521        14.250           0.563
  18235980.364   -31079823.358 8 -23309823.08021        29.250           1.031
  19953863.380   -15724427.106 7 -11895291.03722        23.250           1.656
 91  6 24 21 14 14.9930000  0  3G 2G13G12
  21084595.278     2690276.094 6   2096311.87121        15.500           0.688
  18234317.966   -31088560.918 8 -23316631.56821        28.250           1.000
  19943626.544   -15778234.799 7 -11937219.09122        23.750           1.625
 91  6 24 21 14 29.9930000  0  3G 2G13G12
  21088861.317     2712696.570 6   2113782.32521        15.250           0.625
  18232677.052   -31097182.710 8 -23323349.85921        28.250           1.063
  19933400.247   -15831965.758 7 -11979087.36321        23.000           1.438
 91  6 24 21 14 44.9930000  0  3G 2G13G12
  21093137.052     2735162.217 6   2131287.99921        14.750           0.625
  18231059.411   -31105684.396 8 -23329974.55421        28.000           1.125
  19923189.224   -15885615.373 7 -12020892.24822        23.750           1.531
 91  6 24 21 14 59.9930000  0  3G 2G13G12
  21097422.239     2757672.367 6   2148828.34021        15.000           0.719
  18229464.442   -31114066.842 8 -23336506.33421        28.250           1.063
  19912997.888   -15939183.963 7 -12062633.99621        23.250           1.469
 91  6 24 21 15 14.9930000  0  3G 2G13G12
  21101710.310     2780228.190 6   2166404.26421        13.750           0.625
  18227891.497   -31122329.141 8 -23342944.50221        28.500           1.031
  19902820.528   -15992669.981 7 -12104311.40121        23.750           1.469
 91  6 24 21 15 29.9930000  0  3G 2G13G12
  21106011.591     2802829.863 6   2184015.92921        13.750           0.688
  18226343.052   -31130471.325 8 -23349289.06321        28.500           1.094
  19892656.849   -16046072.747 7 -12145923.94122        24.000           1.531
 91  6 24 21 15 44.9930000  0  3G 2G13G12
  21110322.482     2825477.013 6   2201663.01721        14.000           0.688
  18224815.396   -31138493.938 8 -23355540.45621        28.500           1.125
  19882508.372   -16099392.492 7 -12187471.78622        23.000           1.563
 91  6 24 21 15 59.9930000  0  3G 2G13G12
  21114643.208     2848175.681 6   2219350.25021        14.500           0.594
  18223312.810   -31146391.284 8 -23361694.23421        28.500           1.000
  19872380.482   -16152622.778 7 -12228949.91522        23.500           1.531
 91  6 24 21 16 14.9930000  0  3G 2G13G12
  21118969.935     2870913.048 6   2237067.66121        14.250           0.625
  18221831.692   -31154175.913 8 -23367760.18421        28.750           1.125
  19862267.466   -16205775.990 7 -12270368.00022        23.500           1.531
 91  6 24 21 16 29.9930000  0  3G 2G13G12
  21123307.122     2893699.535 6   2254823.32321        14.250           0.438
  18220374.755   -31161837.655 8 -23373730.37521        29.000           1.063
  19852168.794   -16258841.141 7 -12311717.45522        23.250           1.594
 91  6 24 21 16 44.9930000  0  3G 2G13G12
  21127651.091     2916530.685 6   2272613.78321        14.500           0.469
  18218937.091   -31169381.255 8 -23379608.51221        28.750           1.094
  19842085.849   -16311822.386 7 -12353001.53022        23.000           1.625
 91  6 24 21 16 59.9930000  0  3G 2G13G12
  21132005.232     2939406.642 6   2290439.18421        14.500           0.500
  18217524.466   -31176806.772 8 -23385394.62821        28.500           1.094
  19832019.388   -16364719.473 7 -12394220.01322        23.250           1.688
 91  6 24 21 17 14.9930000  0  3G 2G13G12
  21136364.708     2962328.283 6   2308300.16021        14.250           0.500
  18216137.107   -31184113.521 8 -23391088.20321        29.000           1.094
  19821969.247   -16417531.176 7 -12435371.99222        23.000           1.625
 91  6 24 21 17 29.9930000  0  3G 2G13G12
  21140734.849     2985292.606 6   2326194.39421        13.750           0.500
  18214765.817   -31191304.604 8 -23396691.64221        29.000           1.094
  19811933.192   -16470259.976 7 -12476459.36722        23.000           1.594
 91  6 24 21 17 44.9930000  0  3G 2G13G12
  21145115.739     3008303.063 6   2344124.59621        14.750           0.438
  18213419.708   -31198376.721 8 -23402202.37821        28.250           1.094
  19801919.232   -16522901.991 7 -12517479.10022        24.250           1.656
 91  6 24 21 17 59.9930000  0  3G 2G13G12
  21149504.317     3031359.812 6   2362090.85621        14.750           0.406
  18212095.989   -31205330.120 8 -23407620.61421        28.000           1.094
  19791920.185   -16575456.629 7 -12558430.75722        24.500           1.656
 91  6 24 21 18 14.9930000  0  3G 2G13G12
  21153897.216     3054461.328 6   2380092.00221        15.250           0.500
  18210795.974   -31212166.019 8 -23412947.29321        28.000           1.156
  19781934.810   -16627925.045 7 -12599315.23322        23.750           1.625
 91  6 24 21 18 29.9930000  0  3G 2G13G12
  21158302.232     3077603.663 6   2398124.96021        14.750           0.438
  18209517.607   -31218888.730 8 -23418185.77021        28.250           1.031
  19771965.028   -16680310.748 7 -12640135.25422        23.500           1.563
 91  6 24 21 18 44.9930000  0  3G 2G13G12
  21162711.739     3100793.360 6   2416194.84121        13.000           0.469
  18208260.185   -31225491.840 8 -23423331.04921        28.750           1.063
  19762014.122   -16732606.827 7 -12680885.43522        24.000           1.625
 91  6 24 21 18 59.9930000  0  3G 2G13G12
  21167138.755     3124034.795 6   2434305.00921        13.000           0.469
  18207027.622   -31231971.469 8 -23428380.11121        28.250           1.000
  19752080.552   -16784808.791 7 -12721562.26022        24.500           1.656
 91  6 24 21 19 14.9930000  0  3G 2G13G12
  21171568.841     3147328.711 6   2452456.05821        13.000           0.469
  18205817.794   -31238326.792 8 -23433332.31721        28.250           1.125
  19742162.700   -16836915.351 7 -12762164.75222        24.500           1.625
 91  6 24 21 19 29.9930000  0  3G 2G13G12
  21176013.130     3170668.966 6   2470643.23021        12.750           0.531
  18204630.005   -31244564.220 8 -23438192.64621        28.000           1.125
  19732265.232   -16888932.233 7 -12802697.37922        24.750           1.750
 91  6 24 21 19 44.9930000  0  3G 2G13G12
  21180463.794     3194055.885 6   2488866.77421        12.500           0.469
  18203466.200   -31250683.541 7 -23442960.94721        27.750           1.000
  19722382.458   -16940858.779 7 -12843159.61322        24.500           1.688
 91  6 24 21 19 59.9930000  0  3G 2G13G12
  21184921.021     3217491.356 6   2507128.12621        12.250           0.563
  18202323.130   -31256683.143 7 -23447635.96521        27.500           1.156
  19712519.208   -16992692.857 7 -12883549.78522        25.000           1.688
 91  6 24 21 20 14.9930000  0  3G 2G13G12
  21189390.896     3240973.491 6   2525425.84421        12.500           0.438
  18201204.872   -31262565.092 8 -23452219.30521        28.250           1.094
  19702672.161   -17044435.910 7 -12923869.04422        24.000           1.625
 91  6 24 21 20 29.9930000  0  3G 2G13G12
  21193866.364     3264501.308 6   2543759.16921        12.000           0.469
  18200107.778   -31268330.327 7 -23456711.69621        27.750           1.094
  19692844.927   -17096088.467 7 -12964117.77522        24.500           1.625
 91  6 24 21 20 44.9930000  0  3G 2G13G12
  21198351.114     3288078.064 5   2562130.64021        11.000           0.438
  18199033.614   -31273975.801 8 -23461110.77321        28.000           1.188
  19683033.185   -17147646.843 7 -13004293.11422        25.000           1.656
 91  6 24 21 20 59.9930000  0  3G 2G13G12
  21202847.817     3311708.785 5   2580544.14021        11.500           0.656
  18197984.396   -31279496.673 8 -23465412.75021        28.250           1.063
  19673242.341   -17199105.597 7 -13044390.83622        25.000           1.594
 91  6 24 21 21 14.9930000  0  3G 2G13G12
  21207358.302     3335383.172 6   2598991.68021        12.250           0.531
  18196955.013   -31284903.382 8 -23469625.76621        28.000           1.125
  19663464.997   -17250474.597 7 -13084418.61222        25.000           1.813
 91  6 24 21 21 29.9930000  0  3G 2G13G12
  21211866.552     3359105.597 6   2617476.63221        12.250           0.438
  18195947.825   -31290191.824 8 -23473746.63821        28.000           1.094
  19653708.083   -17301749.185 7 -13124372.82522        25.250           1.688
 91  6 24 21 21 44.9930000  0  3G 2G13G12
  21216394.880     3382882.429 5   2636004.01221        11.500           0.594
  18194964.997   -31295355.934 8 -23477770.61621        28.250           1.188
  19643970.013   -17352922.726 7 -13164248.30222        25.250           1.688
 91  6 24 21 21 59.9930000  0  3G 2G13G12
  21220928.896     3406707.164 6   2654568.67021        13.000           0.531
  18194004.591   -31300402.465 8 -23481702.98221        28.250           1.219
  19634252.653   -17404001.410 7 -13204049.85822        25.500           1.625
 91  6 24 21 22 14.9930000  0  3G 2G13G12
  21225469.638     3430581.540 6   2673172.04021        12.750           0.500
  18193068.536   -31305329.445 8 -23485542.19521        28.750           1.156
  19624548.044   -17454982.820 7 -13243775.62622        24.750           1.656
 91  6 24 21 22 29.9930000  0  3G 2G13G12
  21230025.232     3454508.835 6   2691816.65621        12.750           0.531
  18192153.232   -31310133.756 8 -23489285.81221        29.000           1.219
  19614865.177   -17505863.261 7 -13283422.71122        24.250           1.656
 91  6 24 21 22 44.9930000  0  3G 2G13G12
  21234588.567     3478484.712 6   2710499.10621        13.750           0.563
  18191260.474   -31314820.030 8 -23492937.45521        28.500           1.188
  19605202.919   -17556646.785 7 -13322994.28422        24.750           1.656
 91  6 24 21 22 59.9930000  0  3G 2G13G12
  21239159.864     3502511.451 6   2729221.19921        13.500           0.531
  18190392.013   -31319386.261 8 -23496495.56421        28.000           1.188
  19595559.052   -17607330.670 7 -13362488.20722        25.500           1.656
 91  6 24 21 23 14.9930000  0  3G 2G13G12
  21243745.177     3526589.638 6   2747983.39121        14.250           0.531
  18189546.841   -31323832.019 8 -23499959.80121        28.750           1.094
  19585930.872   -17657914.124 7 -13401903.87722        23.750           1.750
 91  6 24 21 23 29.9930000  0  3G 2G13G12
  21248334.833     3550720.266 6   2766786.42621        13.750           0.500
  18188723.122   -31328156.579 8 -23503329.58921        28.250           1.156
  19576325.591   -17708395.622 7 -13441240.09822        24.750           1.969
 91  6 24 21 23 44.9930000  0  3G 2G13G12
  21252936.052     3574902.301 6   2785629.52021        13.750           0.594
  18187924.599   -31332361.315 8 -23506606.00921        28.250           1.125
  19566740.841   -17758776.071 7 -13480497.57322        25.500           1.906
 91  6 24 21 23 59.9930000  0  3G 2G13G12
  21257545.763     3599137.611 6   2804514.14821        12.500           0.500
  18187145.521   -31336444.483 8 -23509787.70121        28.250           1.031
  19557171.521   -17809053.098 7 -13519674.47122        25.000           1.813
 91  6 24 21 24 14.9930000  0  3G 2G13G12
  21262170.271     3623426.746 6   2823440.70121        13.500           0.563
  18186393.200   -31340405.530 8 -23512874.23721        28.000           1.250
  19547624.997   -17859225.648 7 -13558769.95222        25.250           1.750
 91  6 24 21 24 29.9930000  0  3G 2G13G12
  21266800.497     3647767.176 6   2842407.23421        12.750           0.406
  18185659.692   -31344246.944 7 -23515867.54721        27.750           1.188
  19538095.146   -17909295.974 7 -13597785.77622        24.750           1.781
 91  6 24 21 24 44.9930000  0  3G 2G13G12
  21271443.247     3672160.563 6   2861415.01821        13.750           0.469
  18184952.732   -31347967.348 7 -23518766.57121        27.750           1.156
  19528586.396   -17959262.133 7 -13636720.43422        24.250           1.688
 91  6 24 21 24 59.9930000  0  3G 2G13G12
  21276092.692     3696602.439 6   2880460.58921        13.250           0.500
  18184269.458   -31351571.420 8 -23521574.94121        28.250           1.156
  19519100.583   -18009128.064 7 -13675576.99122        25.250           1.844
 91  6 24 21 25 14.9930000  0  3G 2G13G12
  21280756.372     3721093.821 6   2899544.74421        13.000           0.563
  18183605.974   -31355058.514 8 -23524292.16021        28.000           1.219
  19509629.177   -18058892.477 7 -13714354.44122        25.250           1.750
 91  6 24 21 25 29.9930000  0  3G 2G13G12
  21285426.857     3745636.660 6   2918668.98721        13.500           0.469
  18182963.474   -31358426.743 8 -23526916.75521        28.000           1.219
  19500178.700   -18108553.070 7 -13753051.00622        25.500           1.750
 91  6 24 21 25 44.9930000  0  3G 2G13G12
  21290102.880     3770229.014 6   2937831.80621        12.500           0.563
  18182343.724   -31361678.285 7 -23529450.42521        27.000           1.156
  19490748.747   -18158111.309 7 -13791667.80622        26.000           1.813
 91  6 24 21 25 59.9930000  0  3G 2G13G12
  21294796.583     3794874.704 6   2957036.20921        12.500           0.438
  18181749.474   -31364809.433 7 -23531890.28121        27.500           1.219
  19481337.692   -18207562.978 7 -13830201.56122        25.750           1.813
 91  6 24 21 26 14.9930000  0  3G 2G13G12
  21299492.911     3819568.768 6   2976278.28021        12.750           0.438
  18181173.880   -31367825.222 7 -23534240.25121        27.000           1.063
  19471946.638   -18256912.559 7 -13868655.76622        25.500           1.906
 91  6 24 21 26 29.9930000  0  3G 2G13G12
  21304202.224     3844311.183 6   2995558.03521        12.000           0.438
  18180623.317   -31370725.960 7 -23536500.57421        27.250           1.125
  19462576.489   -18306159.813 7 -13907030.24322        26.250           1.781
 91  6 24 21 26 44.9930000  0  3G 2G13G12
  21308920.325     3869102.083 6   3014875.56221        12.500           0.375
  18180093.450   -31373511.695 8 -23538671.27521        28.000           1.219
  19453223.021   -18355304.164 7 -13945324.52322        25.750           1.875
 91  6 24 21 26 59.9930000  0  3G 2G13G12
  21313646.255     3893946.934 6   3034235.16621        12.000           0.406
  18179585.216   -31376177.138 7 -23540748.24721        27.750           1.250
  19443892.435   -18404339.808 7 -13983534.11122        26.250           1.781
 91  6 24 21 27 14.9930000  0  3G 2G13G12
  21318387.771     3918843.004 6   3053634.65821        12.750           0.500
  18179100.825   -31378725.190 7 -23542733.74621        27.500           1.281
  19434580.966   -18453269.078 7 -14021660.80222        26.000           1.781
 91  6 24 21 27 29.9930000  0  3G 2G13G12
  21323128.130     3943780.950 6   3073066.76521        12.250           0.406
  18178636.505   -31381165.634 7 -23544635.39321        27.500           1.219
  19425288.919   -18502100.971 7 -14059711.61922        26.250           1.844
 91  6 24 21 27 44.9920000  0  3G 2G13G12
  21327885.774     3968771.005 6   3092539.48921        12.250           0.438
  18178193.547   -31383486.519 7 -23546443.87821        27.500           1.281
  19416018.305   -18550819.937 7 -14097674.44822        26.500           1.875
 91  6 24 21 27 59.9920000  0  3G 2G13G12
  21332650.094     3993811.920 6   3112051.84821        12.000           0.500
  18177772.969   -31385692.577 7 -23548162.88421        27.750           1.281
  19406766.445   -18599436.684 7 -14135557.61122        26.250           1.813
 91  6 24 21 28 14.9920000  0  3G 2G13G12
  21337424.586     4018897.849 5   3131599.27621        11.500           0.438
  18177376.219   -31387788.106 8 -23549795.77221        28.250           1.219
  19397532.672   -18647951.628 7 -14173361.45522        26.000           1.906
 91  6 24 21 28 29.9920000  0  3G 2G13G12
  21342208.055     4044037.765 5   3151188.76421        11.250           0.406
  18177000.008   -31389764.313 8 -23551335.67821        28.500           1.281
  19388324.297   -18696355.521 7 -14211078.76822        26.000           1.844
 91  6 24 21 28 44.9920000  0  3G 2G13G12
  21346998.234     4069220.788 5   3170811.84921        11.000           0.406
  18176645.445   -31391632.537 8 -23552791.44521        28.750           1.281
  19379131.234   -18744658.951 7 -14248717.79422        25.750           1.875
 91  6 24 21 28 59.9920000  0  3G 2G13G12
  21351800.492     4094448.638 5   3190469.88921        11.000           0.406
  18176311.149   -31393390.914 8 -23554161.60621        28.250           1.250
  19369957.906   -18792859.697 7 -14286276.80422        26.000           1.969
 91  6 24 21 29 14.9920000  0  3G 2G13G12
  21356612.211     4119731.782 5   3210170.98421        11.500           0.344
  18175997.508   -31395029.419 8 -23555438.37021        28.250           1.250
  19360807.352   -18840946.962 7 -14323747.39722        26.250           1.906
 91  6 24 21 29 29.9920000  0  3G 2G13G12
  21361432.156     4145063.436 5   3229909.87721        11.250           0.375
  18175708.266   -31396555.167 8 -23556627.26421        28.250           1.250
  19351679.258   -18888927.208 7 -14361134.58622        26.750           1.875
 91  6 24 21 29 44.9920000  0  3G 2G13G12
  21366264.102     4170445.109 6   3249687.76521        12.500           0.406
  18175438.352   -31397966.757 7 -23557727.20821        27.750           1.313
  19342567.609   -18936798.573 7 -14398436.94422        26.500           2.000
 91  6 24 21 29 59.9920000  0  3G 2G13G12
  21371102.758     4195871.752 6   3269500.69121        12.250           0.406
  18175189.344   -31399269.098 7 -23558742.02621        27.500           1.281
  19333479.789   -18984565.620 7 -14435658.00822        27.000           1.906
 91  6 24 21 30 14.9920000  0  3G 2G13G12
  21375948.445     4221346.386 6   3289351.01521        12.000           0.375
  18174965.164   -31400459.580 7 -23559669.68021        27.500           1.219
  19324409.711   -19032225.062 7 -14472795.23122        27.250           1.969
 91  6 24 21 30 29.9920000  0  3G 2G13G12
  21380806.125     4246867.202 5   3309237.32921        11.500           0.469
  18174758.102   -31401540.004 7 -23560511.56821        27.250           1.219
  19315359.859   -19079778.258 7 -14509849.66022        27.000           1.875
 91  6 24 21 30 44.9920000  0  3G 2G13G12
  21385675.891     4272437.124 6   3329161.88921        13.250           0.406
  18174575.508   -31402507.558 7 -23561265.51521        27.000           1.250
  19306332.953   -19127221.752 7 -14546818.61422        27.500           1.844
 91  6 24 21 30 59.9920000  0  3G 2G13G12
  21390548.961     4298061.508 6   3349128.90721        13.250           0.500
  18174412.906   -31403357.409 7 -23561927.74821        27.000           1.313
  19297324.672   -19174549.951 7 -14583697.72522        27.250           1.938
 91  6 24 21 31 14.9920000  0  3G 2G13G12
  21395433.109     4323735.238 6   3369134.36521        12.750           0.344
  18174271.633   -31404094.668 7 -23562502.24021        27.250           1.156
  19288341.492   -19221767.644 7 -14620490.71922        27.000           2.000
 91  6 24 21 31 29.9920000  0  3G 2G13G12
  21400327.938     4349458.718 6   3389178.56421        12.000           0.406
  18174156.211   -31404719.234 7 -23562988.91621        27.250           1.125
  19279375.883   -19268874.013 7 -14657196.97422        26.750           2.031
 91  6 24 21 31 44.9920000  0  3G 2G13G12
  21405234.313     4375229.337 6   3409259.55121        12.500           0.406
  18174055.531   -31405234.072 7 -23563390.10021        27.250           1.219
  19270433.391   -19315871.365 7 -14693818.28222        26.750           1.969
